[[{"header":{"parameterUnit":"m.s-1","parameterCategory":1,"la1":31.0,"la2":29.5877,"lo1":-88.7671,"lo2":-86.6584,"dy":0.0162,"dx":0.0185,"nx":115,"ny":88,"refTime":"2023-10-26T12:00:00:Z","depth":0,"parameterNumber":2,"parameterNumberName":"U-component_of_WINDS"},"data":[0.0,0.0,0.0,0.0,0.0,0.0,0.0,0.0,0.0,0.0,0.0,0.0,0.0,0.0,0.0,0.0,0.0,0.0,0.0,0.0,0.0,0.0,0.0,0.0,0.0,0.0,0.0,0.0,0.0,0.0,0.0,0.0,0.0,0.0,0.0,0.0,0.0,0.0,0.0,0.0,0.0,0.0,0.0,0.0,0.0,0.0,0.0,0.0,0.0,0.0,0.0,0.0,0.0,0.0,0.0,0.0,0.0,0.0,0.0,0.0,0.0,0.0,0.0,0.0,0.0,0.0,0.0,0.0,0.0,0.0,0.0,0.0,0.0,0.0,0.0,0.0,0.0,0.0,0.0,0.0,0.0,0.0,0.0,0.0,0.0,0.0,0.0,0.0,0.0,0.0,0.0,0.0,0.0,0.0,0.0,0.0,0.0,0.0,0.0,0.0,0.0,0.0,0.0,0.0,0.0,0.0,0.0,0.0,0.0,0.0,0.0,0.0,0.0,0.0,0.0,0.0,0.0,0.0,0.0,0.0,0.0,0.0,0.0,0.0,0.0,0.0,0.0,0.0,0.0,0.0,0.0,0.0,0.0,0.0,0.0,0.0,0.0,0.0,0.0,0.0,0.0,0.0,0.0,0.0,0.0,0.0,0.0,0.0,0.0,0.0,0.0,0.0,0.0,0.0,0.0,0.0,0.0,0.0,0.0,0.0,0.0,0.0,0.0,0.0,0.0,0.0,0.0,0.0,0.0,0.0,0.0,0.0,0.0,0.0,0.0,0.0,0.0,0.0,0.0,0.0,0.0,0.0,0.0,0.0,0.0,0.0,0.0,0.0,0.0,0.0,0.0,0.0,0.0,0.0,0.0,0.0,0.0,0.0,0.0,0.0,0.0,0.0,0.0,0.0,0.0,0.0,0.0,0.0,0.0,0.0,0.0,0.0,0.0,0.0,0.0,0.0,0.0,0.0,0.0,0.0,0.0,0.0,0.0,0.0,0.0,0.0,0.0,0.0,0.0,0.0,0.0,0.0,0.0,0.0,0.0,0.0,0.0,0.0,0.0,0.0,0.0,0.0,0.0,0.0,0.0,0.0,0.0,0.0,0.0,0.0,0.0,0.0,0.0,0.0,0.0,0.0,0.0,0.0,0.0,0.0,0.0,0.0,0.0,0.0,0.0,0.0,0.0,0.0,0.0,0.0,0.0,0.0,0.0,0.0,0.0,0.0,0.0,0.0,0.0,0.0,0.0,0.0,0.0,0.0,0.0,0.0,0.0,0.0,0.0,0.0,0.0,0.0,0.0,0.0,0.0,0.0,0.0,0.0,0.0,0.0,0.0,0.0,0.0,0.0,0.0,0.0,0.0,0.0,0.0,0.0,0.0,0.0,0.0,0.0,0.0,0.0,0.0,0.0,0.0,0.0,0.0,0.0,0.0,0.0,0.0,0.0,0.0,0.0,0.0,0.0,0.0,0.0,0.0,0.0,0.0,0.0,0.0,0.0,0.0,0.0,0.0,0.0,0.0,0.0,0.0,0.0,0.0,0.0,0.0,0.0,0.0,0.0,0.0,0.0,0.0,0.0,0.0,0.0,0.0,0.0,0.0,0.0,0.0,0.0,0.0,0.0,0.0,0.0,0.0,0.0,0.0,0.0,0.0,0.0,0.0,0.0,0.0,0.0,0.0,0.0,0.0,0.0,0.0,0.0,0.0,0.0,0.0,0.0,0.0,0.0,0.0,0.0,0.0,0.0,0.0,0.0,0.0,0.0,0.0,0.0,0.0,0.0,0.0,0.0,0.0,0.0,0.0,0.0,0.0,0.0,0.0,0.0,0.0,0.0,0.0,0.0,0.0,0.0,0.0,0.0,0.0,0.0,0.0,0.0,0.0,0.0,0.0,0.0,0.0,0.0,0.0,0.0,0.0,0.0,0.0,0.0,0.0,0.0,0.0,0.0,0.0,0.0,0.0,0.0,0.0,0.0,0.0,0.0,0.0,0.0,0.0,0.0,0.0,0.0,0.0,0.0,0.0,0.0,0.0,0.0,0.0,0.0,0.0,0.0,0.0,0.0,0.0,0.0,0.0,0.0,0.0,0.0,0.0,0.0,0.0,0.0,0.0,0.0,0.0,0.0,0.0,0.0,0.0,0.0,0.0,0.0,0.0,0.0,0.0,0.0,0.0,0.0,0.0,0.0,0.0,0.0,0.0,0.0,0.0,0.0,0.0,0.0,0.0,0.0,0.0,0.0,0.0,0.0,0.0,0.0,0.0,0.0,0.0,0.0,0.0,0.0,0.0,0.0,0.0,0.0,0.0,0.0,0.0,0.0,0.0,0.0,0.0,0.0,0.0,0.0,0.0,0.0,0.0,0.0,0.0,0.0,0.0,0.0,0.0,0.0,0.0,0.0,0.0,0.0,0.0,0.0,0.0,0.0,0.0,0.0,0.0,0.0,0.0,0.0,0.0,0.0,0.0,0.0,0.0,0.0,0.0,0.0,0.0,0.0,0.0,0.0,0.0,0.0,0.0,0.0,0.0,0.0,0.0,0.0,0.0,0.0,0.0,0.0,0.0,0.0,0.0,0.0,0.0,0.0,0.0,0.0,0.0,0.0,0.0,0.0,0.0,0.0,0.0,0.0,0.0,0.0,0.0,0.0,0.0,0.0,0.0,0.0,0.0,0.0,0.0,0.0,0.0,0.0,0.0,0.0,0.0,0.0,0.0,0.0,0.0,0.0,0.0,0.0,0.0,0.0,0.0,0.0,0.0,0.0,0.0,0.0,0.0,0.0,0.0,0.0,0.0,0.0,0.0,0.0,0.0,0.0,0.0,0.0,0.0,0.0,0.0,0.0,0.0,0.0,0.0,0.0,0.0,0.0,0.0,0.0,0.0,0.0,0.0,0.0,0.0,0.0,0.0,0.0,0.0,0.0,0.0,0.0,0.0,0.0,0.0,0.0,0.0,0.0,0.0,0.0,0.0,0.0,0.0,0.0,0.0,0.0,0.0,0.0,0.0,0.0,0.0,0.0,0.0,0.0,0.0,0.0,0.0,0.0,0.0,0.0,0.0,0.0,0.0,0.0,0.0,0.0,0.0,0.0,0.0,0.0,0.0,0.0,0.0,0.0,0.0,0.0,0.0,0.0,0.0,0.0,0.0,0.0,0.0,0.0,0.0,0.0,0.0,0.0,0.0,0.0,0.0,0.0,0.0,0.0,0.0,0.0,0.0,0.0,0.0,0.0,0.0,0.0,0.0,0.0,0.0,0.0,0.0,0.0,0.0,0.0,0.0,0.0,0.0,0.0,0.0,0.0,0.0,0.0,0.0,0.0,0.0,0.0,0.0,0.0,0.0,0.0,0.0,0.0,0.0,0.0,0.0,0.0,0.0,0.0,0.0,0.0,0.0,0.0,0.0,0.0,0.0,0.0,0.0,0.0,0.0,0.0,0.0,0.0,0.0,0.0,0.0,0.0,0.0,0.0,0.0,0.0,0.0,0.0,0.0,0.0,0.0,0.0,0.0,0.0,0.0,0.0,0.0,0.0,0.0,0.0,0.0,0.0,0.0,0.0,0.0,0.0,0.0,0.0,0.0,0.0,0.0,0.0,0.0,0.0,0.0,0.0,0.0,0.0,0.0,0.0,0.0,0.0,0.0,0.0,0.0,0.0,0.0,0.0,0.0,0.0,0.0,0.0,0.0,0.0,0.0,0.0,0.0,0.0,0.0,0.0,0.0,0.0,0.0,0.0,0.0,0.0,0.0,0.0,0.0,0.0,0.0,0.0,0.0,0.0,0.0,0.0,0.0,0.0,0.0,0.0,0.0,0.0,0.0,0.0,0.0,0.0,0.0,0.0,0.0,0.0,0.0,0.0,0.0,0.0,0.0,0.0,0.0,0.0,0.0,0.0,0.0,0.0,0.0,0.0,0.0,0.0,0.0,0.0,0.0,0.0,0.0,0.0,0.0,0.0,0.0,0.0,0.0,0.0,0.0,0.0,0.0,0.0,0.0,0.0,0.0,0.0,0.0,0.0,0.0,0.0,0.0,0.0,0.0,0.0,0.0,0.0,0.0,0.0,0.0,0.0,0.0,0.0,0.0,0.0,0.0,0.0,0.0,0.0,0.0,0.0,0.0,0.0,0.0,0.0,0.0,0.0,0.0,0.0,0.0,0.0,0.0,0.0,0.0,0.0,0.0,0.0,0.0,0.0,0.0,0.0,0.0,0.0,0.0,0.0,0.0,0.0,0.0,0.0,0.0,0.0,0.0,0.0,0.0,0.0,0.0,0.0,6.5065,0.0,0.0,0.0,0.0,0.0,0.0,0.0,0.0,0.0,0.0,0.0,0.0,0.0,0.0,0.0,0.0,0.0,0.0,0.0,0.0,0.0,0.0,0.0,0.0,0.0,0.0,0.0,0.0,0.0,0.0,0.0,0.0,0.0,0.0,0.0,0.0,0.0,0.0,0.0,0.0,0.0,0.0,0.0,0.0,0.0,0.0,0.0,0.0,0.0,0.0,0.0,0.0,0.0,0.0,0.0,0.0,0.0,0.0,0.0,0.0,0.0,0.0,0.0,0.0,0.0,0.0,0.0,0.0,0.0,0.0,0.0,0.0,0.0,0.0,0.0,0.0,0.0,0.0,0.0,0.0,0.0,0.0,0.0,0.0,0.0,0.0,0.0,0.0,0.0,0.0,0.0,0.0,0.0,0.0,0.0,0.0,0.0,0.0,0.0,0.0,0.0,0.0,0.0,0.0,0.0,0.0,0.0,0.0,0.0,0.0,6.679,6.6795,6.5574,6.5074,6.5394,0.0,0.0,0.0,0.0,0.0,0.0,0.0,0.0,0.0,0.0,0.0,0.0,0.0,0.0,0.0,0.0,0.0,0.0,0.0,0.0,0.0,0.0,0.0,0.0,0.0,0.0,0.0,0.0,0.0,0.0,0.0,0.0,0.0,0.0,0.0,0.0,0.0,0.0,0.0,0.0,0.0,0.0,0.0,0.0,0.0,0.0,0.0,0.0,0.0,0.0,0.0,0.0,0.0,0.0,0.0,0.0,0.0,0.0,0.0,0.0,0.0,0.0,0.0,0.0,0.0,0.0,0.0,0.0,0.0,0.0,0.0,0.0,0.0,0.0,0.0,0.0,0.0,0.0,0.0,0.0,0.0,0.0,0.0,0.0,0.0,0.0,0.0,0.0,0.0,0.0,0.0,0.0,0.0,0.0,0.0,0.0,0.0,0.0,0.0,0.0,0.0,0.0,0.0,0.0,0.0,0.0,0.0,0.0,0.0,0.0,0.0,0.0,6.6571,6.5971,6.5744,0.0,0.0,0.0,0.0,0.0,0.0,0.0,0.0,0.0,0.0,0.0,0.0,0.0,0.0,0.0,0.0,0.0,0.0,0.0,0.0,0.0,0.0,0.0,0.0,0.0,0.0,0.0,0.0,0.0,0.0,0.0,0.0,0.0,0.0,0.0,0.0,0.0,0.0,0.0,0.0,0.0,0.0,0.0,0.0,0.0,0.0,0.0,0.0,0.0,0.0,0.0,0.0,0.0,0.0,0.0,0.0,0.0,0.0,0.0,0.0,0.0,0.0,0.0,0.0,0.0,0.0,0.0,0.0,0.0,0.0,0.0,0.0,0.0,0.0,0.0,0.0,0.0,0.0,0.0,0.0,0.0,0.0,0.0,0.0,0.0,0.0,0.0,0.0,0.0,0.0,0.0,0.0,0.0,0.0,0.0,0.0,0.0,0.0,0.0,0.0,0.0,0.0,0.0,0.0,0.0,0.0,0.0,0.0,0.0,0.0,6.7537,6.9103,6.8312,0.0,6.679,0.0,0.0,0.0,0.0,0.0,0.0,0.0,0.0,0.0,0.0,0.0,0.0,0.0,0.0,0.0,0.0,0.0,0.0,0.0,0.0,0.0,0.0,0.0,0.0,0.0,0.0,0.0,0.0,0.0,0.0,0.0,0.0,0.0,0.0,0.0,0.0,0.0,0.0,0.0,0.0,0.0,0.0,0.0,0.0,0.0,0.0,0.0,0.0,0.0,0.0,0.0,0.0,0.0,0.0,0.0,0.0,0.0,0.0,0.0,0.0,0.0,0.0,0.0,0.0,0.0,0.0,0.0,0.0,0.0,0.0,0.0,0.0,0.0,0.0,0.0,0.0,0.0,0.0,0.0,0.0,0.0,0.0,0.0,0.0,0.0,0.0,0.0,0.0,0.0,0.0,0.0,0.0,0.0,0.0,0.0,0.0,0.0,0.0,0.0,0.0,0.0,0.0,0.0,0.0,0.0,0.0,0.0,0.0,0.0,0.0,6.8669,6.9372,6.9059,6.8468,0.0,0.0,0.0,0.0,0.0,0.0,0.0,0.0,0.0,0.0,0.0,0.0,0.0,0.0,0.0,0.0,0.0,0.0,0.0,0.0,0.0,0.0,0.0,0.0,0.0,0.0,0.0,0.0,0.0,0.0,0.0,0.0,0.0,0.0,0.0,0.0,0.0,0.0,0.0,0.0,0.0,0.0,0.0,0.0,0.0,0.0,0.0,0.0,0.0,0.0,0.0,0.0,0.0,0.0,0.0,0.0,0.0,0.0,0.0,0.0,0.0,0.0,0.0,0.0,0.0,0.0,0.0,0.0,0.0,0.0,0.0,0.0,0.0,0.0,0.0,0.0,0.0,0.0,0.0,0.0,0.0,0.0,0.0,0.0,0.0,0.0,0.0,0.0,0.0,0.0,0.0,0.0,0.0,0.0,0.0,0.0,0.0,0.0,0.0,0.0,0.0,0.0,0.0,0.0,0.0,0.0,0.0,0.0,0.0,0.0,6.902,6.9645,7.0074,6.9879,6.9366,6.8468,0.0,0.0,0.0,0.0,0.0,0.0,0.0,0.0,0.0,0.0,0.0,0.0,0.0,0.0,0.0,0.0,0.0,0.0,0.0,0.0,0.0,0.0,0.0,0.0,0.0,0.0,0.0,0.0,0.0,0.0,0.0,0.0,0.0,0.0,0.0,0.0,0.0,0.0,0.0,0.0,0.0,0.0,0.0,0.0,0.0,0.0,0.0,0.0,0.0,0.0,0.0,0.0,0.0,0.0,0.0,0.0,0.0,0.0,0.0,0.0,0.0,0.0,0.0,0.0,0.0,0.0,0.0,0.0,0.0,0.0,0.0,0.0,0.0,0.0,0.0,0.0,0.0,0.0,0.0,0.0,0.0,0.0,0.0,0.0,0.0,0.0,0.0,0.0,0.0,0.0,0.0,0.0,0.0,0.0,0.0,0.0,0.0,0.0,0.0,0.0,0.0,0.0,0.0,0.0,0.0,0.0,0.0,0.0,7.1485,7.0197,7.0191,7.1792,7.1089,7.023,0.0,0.0,0.0,0.0,0.0,0.0,0.0,0.0,0.0,0.0,0.0,0.0,0.0,0.0,0.0,0.0,0.0,0.0,0.0,0.0,0.0,0.0,0.0,0.0,0.0,0.0,0.0,0.0,0.0,0.0,0.0,0.0,0.0,0.0,0.0,0.0,0.0,0.0,0.0,0.0,0.0,0.0,0.0,0.0,0.0,0.0,0.0,0.0,0.0,0.0,0.0,0.0,0.0,0.0,0.0,0.0,0.0,0.0,0.0,0.0,0.0,0.0,0.0,0.0,0.0,0.0,0.0,0.0,0.0,0.0,0.0,0.0,0.0,0.0,0.0,0.0,0.0,0.0,0.0,0.0,0.0,0.0,0.0,0.0,0.0,0.0,0.0,0.0,0.0,0.0,0.0,0.0,0.0,0.0,0.0,0.0,0.0,0.0,0.0,0.0,0.0,0.0,0.0,0.0,0.0,0.0,0.0,0.0,0.0,6.8596,6.9137,7.0738,7.3393,7.1167,7.0225,0.0,0.0,0.0,0.0,0.0,0.0,0.0,0.0,0.0,0.0,0.0,0.0,0.0,0.0,0.0,0.0,0.0,0.0,0.0,0.0,0.0,0.0,0.0,0.0,0.0,0.0,0.0,0.0,0.0,0.0,0.0,0.0,0.0,0.0,0.0,0.0,0.0,0.0,0.0,0.0,0.0,0.0,0.0,0.0,0.0,0.0,0.0,0.0,0.0,0.0,0.0,0.0,0.0,0.0,0.0,0.0,0.0,0.0,0.0,0.0,0.0,0.0,0.0,0.0,0.0,0.0,0.0,0.0,0.0,0.0,0.0,0.0,0.0,0.0,0.0,0.0,0.0,0.0,0.0,0.0,0.0,0.0,0.0,0.0,0.0,0.0,0.0,0.0,0.0,0.0,0.0,0.0,0.0,0.0,0.0,0.0,0.0,0.0,0.0,0.0,0.0,0.0,0.0,0.0,0.0,0.0,0.0,0.0,0.0,6.8474,0.0,7.1909,7.351,7.148,7.0264,0.0,0.0,0.0,0.0,0.0,0.0,0.0,0.0,0.0,0.0,0.0,0.0,0.0,0.0,0.0,0.0,0.0,0.0,0.0,0.0,0.0,0.0,0.0,0.0,0.0,0.0,0.0,0.0,0.0,0.0,0.0,0.0,0.0,0.0,0.0,0.0,0.0,0.0,0.0,0.0,0.0,0.0,0.0,0.0,0.0,0.0,0.0,0.0,0.0,0.0,0.0,0.0,0.0,0.0,0.0,0.0,0.0,0.0,0.0,0.0,0.0,0.0,0.0,0.0,0.0,0.0,0.0,0.0,0.0,0.0,0.0,0.0,0.0,0.0,0.0,0.0,0.0,0.0,0.0,0.0,0.0,0.0,0.0,0.0,0.0,0.0,0.0,0.0,0.0,0.0,0.0,0.0,0.0,0.0,0.0,0.0,0.0,0.0,0.0,0.0,0.0,0.0,0.0,0.0,0.0,0.0,0.0,0.0,6.8552,7.1792,7.3471,7.3549,7.2104,7.1948,7.0348,0.0,0.0,0.0,0.0,0.0,0.0,0.0,0.0,0.0,0.0,0.0,0.0,0.0,0.0,0.0,0.0,0.0,0.0,0.0,0.0,0.0,0.0,0.0,0.0,0.0,0.0,0.0,0.0,0.0,0.0,0.0,0.0,0.0,0.0,0.0,0.0,0.0,0.0,0.0,0.0,0.0,0.0,0.0,0.0,0.0,0.0,0.0,0.0,0.0,0.0,0.0,0.0,0.0,0.0,0.0,0.0,0.0,0.0,0.0,0.0,0.0,0.0,0.0,0.0,0.0,0.0,0.0,0.0,0.0,0.0,0.0,0.0,0.0,0.0,0.0,0.0,0.0,0.0,0.0,0.0,0.0,0.0,0.0,0.0,0.0,0.0,0.0,0.0,0.0,0.0,0.0,0.0,0.0,0.0,0.0,0.0,0.0,0.0,0.0,0.0,0.0,0.0,0.0,0.0,0.0,0.0,0.0,0.0,0.0,7.1128,7.2182,7.308,7.3627,7.1441,7.027,0.0,0.0,0.0,0.0,0.0,0.0,0.0,0.0,0.0,0.0,0.0,0.0,0.0,0.0,0.0,0.0,0.0,0.0,0.0,0.0,0.0,0.0,0.0,0.0,0.0,0.0,0.0,0.0,0.0,0.0,0.0,0.0,0.0,0.0,0.0,0.0,0.0,0.0,0.0,0.0,0.0,0.0,0.0,0.0,0.0,0.0,0.0,0.0,0.0,0.0,0.0,0.0,0.0,0.0,0.0,0.0,0.0,0.0,0.0,0.0,0.0,0.0,0.0,0.0,0.0,0.0,0.0,0.0,0.0,0.0,0.0,0.0,0.0,0.0,0.0,0.0,0.0,0.0,0.0,0.0,0.0,0.0,0.0,0.0,0.0,0.0,0.0,0.0,0.0,0.0,0.0,0.0,0.0,0.0,0.0,0.0,0.0,0.0,0.0,0.0,0.0,0.0,0.0,0.0,0.0,0.0,0.0,0.0,0.0,7.3666,7.4759,7.5384,7.5462,7.308,7.1558,7.1011,0.0,0.0,0.0,0.0,0.0,0.0,0.0,0.0,0.0,0.0,0.0,0.0,0.0,0.0,0.0,0.0,0.0,0.0,0.0,0.0,0.0,0.0,0.0,0.0,0.0,0.0,0.0,0.0,0.0,0.0,0.0,0.0,0.0,0.0,0.0,0.0,0.0,0.0,0.0,0.0,0.0,0.0,0.0,0.0,0.0,0.0,0.0,0.0,0.0,0.0,0.0,0.0,0.0,0.0,0.0,0.0,0.0,0.0,0.0,0.0,0.0,0.0,0.0,0.0,0.0,0.0,0.0,0.0,0.0,0.0,0.0,0.0,0.0,0.0,0.0,0.0,0.0,0.0,0.0,0.0,0.0,0.0,0.0,0.0,0.0,0.0,0.0,0.0,0.0,0.0,0.0,0.0,0.0,0.0,0.0,0.0,0.0,0.0,0.0,0.0,0.0,0.0,0.0,0.0,0.0,0.0,0.0,0.0,7.8585,8.0465,8.0113,7.7497,7.632,7.39,0.0,0.0,0.0,0.0,0.0,0.0,0.0,0.0,0.0,0.0,0.0,0.0,0.0,0.0,0.0,0.0,0.0,0.0,0.0,0.0,0.0,0.0,0.0,0.0,0.0,0.0,0.0,0.0,0.0,0.0,0.0,0.0,0.0,0.0,0.0,0.0,0.0,0.0,0.0,0.0,0.0,0.0,0.0,0.0,0.0,0.0,0.0,0.0,0.0,0.0,0.0,0.0,0.0,0.0,0.0,0.0,0.0,0.0,0.0,0.0,0.0,0.0,0.0,0.0,0.0,0.0,0.0,0.0,0.0,0.0,0.0,0.0,0.0,0.0,0.0,0.0,0.0,0.0,0.0,0.0,0.0,0.0,0.0,0.0,0.0,0.0,0.0,0.0,0.0,0.0,0.0,0.0,0.0,0.0,0.0,0.0,0.0,0.0,0.0,0.0,0.0,0.0,0.0,0.0,0.0,0.0,0.0,0.0,0.0,8.1329,8.4834,8.4839,8.1039,7.7581,7.5266,0.0,0.0,0.0,0.0,0.0,0.0,0.0,0.0,0.0,0.0,0.0,0.0,0.0,0.0,0.0,0.0,0.0,0.0,0.0,0.0,0.0,0.0,0.0,0.0,0.0,0.0,0.0,0.0,0.0,0.0,0.0,0.0,0.0,0.0,0.0,0.0,0.0,0.0,0.0,0.0,0.0,0.0,0.0,0.0,0.0,0.0,0.0,0.0,0.0,0.0,0.0,0.0,0.0,0.0,0.0,0.0,0.0,0.0,0.0,0.0,0.0,0.0,0.0,0.0,0.0,0.0,0.0,0.0,0.0,0.0,0.0,0.0,0.0,0.0,0.0,0.0,0.0,0.0,0.0,0.0,0.0,0.0,0.0,0.0,0.0,0.0,0.0,0.0,0.0,0.0,0.0,0.0,0.0,0.0,0.0,0.0,0.0,0.0,0.0,0.0,0.0,0.0,0.0,0.0,0.0,0.0,0.0,0.0,8.2015,8.3398,8.7221,8.789,8.5075,8.1162,7.8024,0.0,0.0,0.0,0.0,0.0,0.0,0.0,0.0,0.0,0.0,0.0,0.0,0.0,0.0,0.0,0.0,0.0,0.0,0.0,0.0,0.0,0.0,0.0,0.0,0.0,0.0,0.0,0.0,0.0,0.0,0.0,0.0,0.0,0.0,0.0,0.0,0.0,0.0,0.0,0.0,0.0,0.0,0.0,0.0,0.0,0.0,0.0,0.0,0.0,0.0,0.0,0.0,0.0,0.0,0.0,0.0,0.0,0.0,0.0,0.0,0.0,0.0,0.0,0.0,0.0,0.0,0.0,0.0,0.0,0.0,0.0,0.0,0.0,0.0,0.0,0.0,0.0,0.0,0.0,0.0,0.0,0.0,0.0,0.0,0.0,0.0,0.0,0.0,0.0,0.0,0.0,0.0,0.0,0.0,0.0,0.0,0.0,0.0,0.0,0.0,0.0,0.0,0.0,0.0,0.0,0.0,0.0,0.0,8.4241,8.5283,8.8551,8.9844,8.8906,8.539,8.1208,0.0,0.0,0.0,0.0,0.0,0.0,0.0,0.0,0.0,0.0,0.0,0.0,0.0,0.0,0.0,0.0,0.0,0.0,0.0,0.0,0.0,0.0,0.0,0.0,0.0,0.0,0.0,0.0,0.0,0.0,0.0,0.0,0.0,0.0,0.0,0.0,0.0,0.0,0.0,0.0,0.0,0.0,0.0,0.0,0.0,0.0,0.0,0.0,0.0,0.0,0.0,0.0,0.0,0.0,0.0,0.0,0.0,0.0,0.0,0.0,0.0,0.0,0.0,0.0,0.0,0.0,0.0,0.0,0.0,0.0,0.0,0.0,0.0,0.0,0.0,0.0,0.0,0.0,0.0,0.0,0.0,0.0,0.0,0.0,0.0,0.0,0.0,0.0,0.0,0.0,0.0,0.0,0.0,0.0,0.0,0.0,0.0,0.0,0.0,0.0,0.0,0.0,0.0,0.0,0.0,0.0,0.0,0.0,8.5686,8.7849,9.0625,9.164,9.0742,8.5429,8.1406,0.0,0.0,0.0,0.0,0.0,0.0,0.0,0.0,0.0,0.0,0.0,0.0,0.0,0.0,0.0,0.0,0.0,0.0,0.0,0.0,0.0,0.0,0.0,0.0,0.0,0.0,0.0,0.0,0.0,0.0,0.0,0.0,0.0,0.0,0.0,0.0,0.0,0.0,0.0,0.0,0.0,0.0,0.0,0.0,0.0,0.0,0.0,0.0,7.095,0.0,0.0,0.0,0.0,0.0,0.0,0.0,0.0,0.0,0.0,0.0,0.0,0.0,0.0,0.0,0.0,0.0,0.0,0.0,0.0,0.0,0.0,0.0,0.0,0.0,0.0,0.0,0.0,0.0,0.0,0.0,0.0,0.0,0.0,0.0,0.0,0.0,0.0,0.0,0.0,0.0,0.0,0.0,0.0,0.0,0.0,0.0,0.0,0.0,0.0,0.0,0.0,0.0,0.0,0.0,0.0,0.0,0.0,0.0,8.6741,8.9258,9.1054,9.1758,9.1172,8.7383,8.3906,0.0,0.0,0.0,0.0,0.0,0.0,0.0,0.0,0.0,0.0,0.0,0.0,0.0,0.0,0.0,0.0,0.0,0.0,0.0,0.0,0.0,0.0,0.0,0.0,0.0,0.0,0.0,0.0,0.0,0.0,0.0,0.0,0.0,0.0,0.0,0.0,0.0,0.0,0.0,0.0,0.0,0.0,0.0,0.0,0.0,0.0,0.0,0.0,0.0,0.0,0.0,0.0,0.0,0.0,0.0,0.0,0.0,0.0,0.0,0.0,0.0,0.0,0.0,0.0,0.0,0.0,0.0,0.0,0.0,0.0,0.0,0.0,0.0,0.0,0.0,0.0,0.0,0.0,0.0,0.0,0.0,0.0,0.0,0.0,0.0,0.0,0.0,0.0,0.0,0.0,0.0,0.0,0.0,0.0,0.0,0.0,0.0,0.0,0.0,0.0,0.0,0.0,0.0,0.0,0.0,0.0,0.0,8.4355,8.7565,9.0273,9.1133,9.1484,9.1484,8.9804,8.6953,8.2851,0.0,0.0,0.0,0.0,0.0,0.0,0.0,0.0,0.0,0.0,0.0,0.0,0.0,0.0,0.0,0.0,0.0,0.0,0.0,0.0,0.0,0.0,0.0,0.0,0.0,0.0,0.0,0.0,0.0,0.0,0.0,0.0,0.0,0.0,0.0,0.0,0.0,0.0,6.8823,7.0005,0.0,0.0,0.0,0.0,0.0,0.0,0.0,0.0,7.2267,0.0,0.0,0.0,0.0,0.0,0.0,0.0,0.0,0.0,0.0,0.0,0.0,0.0,0.0,0.0,0.0,0.0,0.0,0.0,0.0,0.0,0.0,0.0,0.0,0.0,0.0,0.0,0.0,0.0,0.0,0.0,0.0,0.0,0.0,0.0,0.0,0.0,0.0,0.0,0.0,0.0,0.0,0.0,0.0,0.0,0.0,0.0,0.0,0.0,0.0,0.0,0.0,0.0,0.0,0.0,0.0,8.5039,8.5819,8.8124,9.207,9.2304,9.2383,9.2344,9.0703,8.8125,8.4609,0.0,0.0,0.0,0.0,0.0,0.0,0.0,0.0,0.0,0.0,0.0,0.0,0.0,0.0,0.0,0.0,0.0,0.0,0.0,0.0,0.0,0.0,0.0,0.0,0.0,0.0,0.0,0.0,0.0,0.0,0.0,0.0,0.0,0.0,0.0,0.0,0.0,0.0,0.0,7.3401,7.3799,0.0,0.0,0.0,0.0,0.0,0.0,0.0,0.0,7.5178,0.0,0.0,0.0,0.0,0.0,0.0,0.0,0.0,0.0,0.0,0.0,0.0,0.0,0.0,0.0,0.0,0.0,0.0,0.0,0.0,0.0,0.0,0.0,0.0,0.0,0.0,0.0,0.0,0.0,0.0,0.0,0.0,0.0,0.0,0.0,0.0,0.0,0.0,0.0,0.0,0.0,0.0,0.0,0.0,0.0,0.0,0.0,0.0,0.0,0.0,0.0,0.0,0.0,0.0,0.0,8.4716,8.746,9.0273,9.3164,9.3711,9.3945,9.3867,9.1406,8.8398,0.0,0.0,0.0,0.0,0.0,0.0,0.0,0.0,0.0,0.0,0.0,0.0,0.0,0.0,0.0,0.0,0.0,0.0,0.0,0.0,0.0,0.0,0.0,0.0,0.0,0.0,0.0,0.0,0.0,0.0,0.0,0.0,0.0,0.0,0.0,0.0,0.0,0.0,0.0,0.0,7.5455,7.6104,7.7797,0.0,0.0,0.0,0.0,0.0,0.0,7.7332,7.5935,0.0,0.0,0.0,0.0,0.0,0.0,0.0,0.0,0.0,0.0,0.0,0.0,0.0,0.0,0.0,0.0,0.0,0.0,0.0,0.0,0.0,0.0,0.0,0.0,0.0,0.0,0.0,0.0,0.0,0.0,0.0,0.0,0.0,0.0,0.0,0.0,0.0,0.0,0.0,0.0,0.0,0.0,0.0,0.0,0.0,0.0,0.0,0.0,0.0,0.0,0.0,0.0,0.0,0.0,0.0,8.4159,8.8862,9.2225,9.4101,9.4844,9.5195,9.5117,9.164,8.8281,0.0,0.0,0.0,0.0,0.0,0.0,0.0,0.0,0.0,0.0,0.0,0.0,0.0,0.0,0.0,0.0,0.0,0.0,0.0,0.0,0.0,0.0,0.0,0.0,0.0,0.0,0.0,0.0,0.0,0.0,0.0,0.0,0.0,0.0,0.0,0.0,0.0,0.0,0.0,0.0,0.0,7.8166,8.0997,7.8418,0.0,0.0,0.0,0.0,7.9657,7.8649,0.0,0.0,0.0,0.0,0.0,0.0,0.0,0.0,0.0,0.0,0.0,0.0,0.0,0.0,0.0,0.0,0.0,0.0,0.0,0.0,0.0,0.0,0.0,0.0,0.0,0.0,0.0,0.0,0.0,0.0,0.0,0.0,0.0,0.0,0.0,0.0,0.0,0.0,0.0,0.0,0.0,0.0,0.0,0.0,0.0,0.0,0.0,0.0,0.0,0.0,0.0,0.0,0.0,0.0,0.0,0.0,8.5858,8.9436,9.2525,9.4922,9.5156,9.5195,9.5117,9.1094,8.7965,0.0,0.0,0.0,0.0,0.0,0.0,0.0,0.0,0.0,0.0,0.0,0.0,0.0,0.0,0.0,0.0,0.0,0.0,0.0,0.0,0.0,0.0,0.0,0.0,0.0,0.0,0.0,0.0,0.0,0.0,0.0,0.0,0.0,0.0,0.0,0.0,0.0,0.0,0.0,0.0,0.0,7.9367,8.0394,7.9563,7.8689,0.0,0.0,8.2156,8.2505,8.4126,0.0,0.0,0.0,0.0,0.0,0.0,0.0,0.0,0.0,0.0,0.0,0.0,0.0,0.0,0.0,0.0,0.0,0.0,0.0,0.0,0.0,0.0,0.0,0.0,0.0,0.0,0.0,0.0,0.0,0.0,0.0,0.0,0.0,0.0,0.0,0.0,0.0,0.0,0.0,0.0,0.0,0.0,0.0,0.0,0.0,0.0,0.0,0.0,0.0,0.0,0.0,0.0,0.0,0.0,0.0,8.332,8.625,9.1481,9.4801,9.5898,9.6406,9.6601,9.6601,9.1484,8.8124,0.0,0.0,0.0,0.0,0.0,0.0,0.0,0.0,0.0,0.0,0.0,0.0,0.0,0.0,0.0,0.0,0.0,0.0,0.0,0.0,0.0,0.0,0.0,0.0,0.0,0.0,0.0,0.0,0.0,0.0,0.0,0.0,0.0,0.0,0.0,0.0,0.0,0.0,0.0,0.0,0.0,0.0,8.2435,8.1931,0.0,0.0,0.0,8.2803,8.2367,0.0,0.0,0.0,0.0,0.0,0.0,0.0,0.0,0.0,0.0,0.0,0.0,0.0,0.0,0.0,0.0,0.0,0.0,0.0,0.0,0.0,0.0,0.0,0.0,0.0,0.0,0.0,0.0,0.0,0.0,0.0,0.0,0.0,0.0,0.0,0.0,0.0,0.0,0.0,0.0,0.0,0.0,0.0,0.0,0.0,0.0,0.0,0.0,0.0,0.0,0.0,0.0,0.0,0.0,0.0,0.0,0.0,8.6601,9.332,9.6797,9.6836,9.7383,9.7695,9.7578,9.2695,0.0,0.0,0.0,0.0,0.0,0.0,0.0,0.0,0.0,0.0,0.0,0.0,0.0,0.0,0.0,0.0,0.0,0.0,0.0,0.0,0.0,0.0,0.0,0.0,0.0,0.0,0.0,6.8435,0.0,0.0,0.0,0.0,0.0,0.0,0.0,0.0,0.0,0.0,0.0,0.0,0.0,0.0,8.2566,8.4165,8.397,8.4277,0.0,0.0,8.3582,8.338,8.5926,8.6184,0.0,0.0,0.0,0.0,0.0,0.0,0.0,0.0,0.0,0.0,0.0,0.0,0.0,0.0,0.0,0.0,0.0,0.0,0.0,0.0,0.0,0.0,0.0,0.0,0.0,0.0,0.0,0.0,0.0,0.0,0.0,0.0,0.0,0.0,0.0,0.0,0.0,0.0,0.0,0.0,0.0,0.0,0.0,0.0,0.0,0.0,0.0,0.0,0.0,0.0,0.0,0.0,0.0,0.0,0.0,8.7617,9.414,9.7617,9.7617,9.7656,9.7695,9.7656,9.5,9.1598,0.0,0.0,0.0,0.0,0.0,0.0,0.0,0.0,0.0,0.0,0.0,0.0,0.0,0.0,0.0,0.0,0.0,0.0,0.0,0.0,0.0,0.0,0.0,0.0,0.0,0.0,0.0,0.0,0.0,0.0,0.0,0.0,0.0,0.0,0.0,0.0,0.0,0.0,0.0,0.0,0.0,8.3247,8.434,8.5038,8.6062,0.0,8.6553,8.5933,8.7331,8.9692,8.9383,8.3584,0.0,0.0,0.0,0.0,0.0,0.0,0.0,0.0,0.0,0.0,0.0,0.0,0.0,0.0,0.0,0.0,0.0,0.0,0.0,0.0,0.0,0.0,0.0,0.0,0.0,0.0,0.0,0.0,0.0,0.0,0.0,0.0,0.0,0.0,0.0,0.0,0.0,0.0,0.0,0.0,0.0,0.0,0.0,0.0,0.0,0.0,0.0,0.0,0.0,0.0,0.0,0.0,0.0,8.6875,8.8281,9.4492,9.7695,9.7695,9.7695,9.7695,9.7695,9.5234,9.2108,0.0,0.0,0.0,0.0,0.0,0.0,0.0,0.0,0.0,0.0,0.0,0.0,0.0,0.0,0.0,0.0,0.0,0.0,0.0,0.0,0.0,0.0,0.0,0.0,0.0,0.0,0.0,0.0,7.7661,7.8321,7.7135,0.0,0.0,0.0,0.0,0.0,0.0,0.0,0.0,0.0,0.0,8.4631,8.669,8.7232,0.0,0.0,8.7971,8.7433,8.8012,8.8861,8.7979,8.3773,8.1971,0.0,0.0,0.0,0.0,0.0,0.0,0.0,0.0,0.0,0.0,0.0,0.0,0.0,0.0,0.0,0.0,0.0,0.0,0.0,0.0,0.0,0.0,0.0,0.0,0.0,0.0,0.0,0.0,0.0,0.0,0.0,0.0,0.0,0.0,0.0,0.0,0.0,0.0,0.0,0.0,0.0,0.0,0.0,0.0,0.0,0.0,0.0,0.0,0.0,0.0,0.0,0.0,8.7265,8.8711,9.4648,9.7695,9.7695,9.7695,9.7695,9.7656,9.5976,9.3398,0.0,0.0,0.0,0.0,0.0,0.0,0.0,0.0,0.0,0.0,0.0,0.0,0.0,0.0,0.0,0.0,0.0,0.0,0.0,0.0,0.0,0.0,0.0,0.0,0.0,0.0,0.0,0.0,7.9815,7.9854,7.7834,0.0,0.0,0.0,0.0,0.0,0.0,0.0,0.0,0.0,0.0,8.628,8.7962,8.8126,8.8227,8.875,8.785,8.7261,8.7714,8.7953,8.715,8.4432,0.0,0.0,0.0,0.0,0.0,0.0,0.0,0.0,0.0,0.0,0.0,0.0,0.0,0.0,0.0,0.0,0.0,0.0,0.0,0.0,0.0,0.0,0.0,0.0,0.0,0.0,0.0,7.3164,0.0,0.0,7.1914,0.0,0.0,0.0,0.0,0.0,0.0,0.0,0.0,0.0,0.0,0.0,0.0,0.0,0.0,0.0,0.0,0.0,0.0,0.0,0.0,0.0,0.0,8.789,8.8789,9.4687,9.7734,9.7734,9.7695,9.7773,9.7734,9.7656,9.6012,9.258,0.0,0.0,0.0,0.0,0.0,0.0,0.0,0.0,0.0,0.0,0.0,0.0,0.0,0.0,0.0,0.0,0.0,0.0,0.0,0.0,0.0,0.0,0.0,0.0,0.0,0.0,7.4911,7.6777,7.7843,0.0,0.0,0.0,0.0,0.0,0.0,0.0,0.0,0.0,8.1933,8.5732,8.8062,8.7546,8.7298,8.7298,8.7355,8.5853,8.5186,8.6776,8.766,8.7643,0.0,0.0,0.0,0.0,0.0,0.0,0.0,0.0,0.0,0.0,0.0,0.0,0.0,0.0,0.0,0.0,0.0,0.0,0.0,0.0,0.0,0.0,0.0,0.0,0.0,0.0,0.0,7.7265,7.6714,0.0,0.0,0.0,0.0,0.0,0.0,0.0,0.0,0.0,0.0,0.0,8.3997,8.5145,0.0,0.0,0.0,0.0,0.0,0.0,0.0,0.0,0.0,0.0,0.0,0.0,8.8984,9.0586,9.5781,9.8828,9.9414,9.9414,9.9453,9.9414,9.9453,9.7812,9.4447,0.0,0.0,0.0,0.0,0.0,0.0,0.0,0.0,0.0,0.0,0.0,0.0,0.0,0.0,0.0,0.0,0.0,0.0,0.0,0.0,0.0,0.0,0.0,0.0,0.0,7.8271,0.0,0.0,0.0,0.0,0.0,0.0,0.0,0.0,0.0,0.0,0.0,8.3029,8.5351,8.687,8.8078,8.901,8.9093,8.9223,0.0,0.0,0.0,0.0,0.0,0.0,0.0,0.0,0.0,0.0,0.0,0.0,0.0,0.0,8.3564,7.9267,7.9095,7.9639,7.9641,0.0,0.0,0.0,0.0,0.0,0.0,0.0,0.0,0.0,0.0,0.0,0.0,0.0,0.0,8.1484,8.0701,8.011,0.0,0.0,0.0,0.0,0.0,0.0,0.0,0.0,8.6003,8.7858,8.8369,8.9469,8.9875,8.9554,8.8111,8.5395,0.0,0.0,0.0,0.0,0.0,0.0,0.0,0.0,9.0,9.1875,9.6836,9.9726,10.0273,10.0312,10.0312,10.0312,10.0312,9.9258,9.7031,9.3086,9.0193,0.0,0.0,0.0,0.0,0.0,0.0,0.0,0.0,0.0,0.0,0.0,0.0,0.0,0.0,0.0,0.0,0.0,0.0,0.0,0.0,0.0,0.0,0.0,8.0551,0.0,0.0,0.0,0.0,0.0,0.0,0.0,0.0,0.0,8.0501,8.3008,8.559,8.7581,8.8376,8.887,8.9055,0.0,0.0,0.0,0.0,0.0,0.0,0.0,8.5653,8.6072,8.5136,8.4468,8.4877,8.6534,8.7351,8.5951,0.0,0.0,8.2859,8.2572,8.3064,8.3031,8.3053,8.3208,8.3751,8.4104,8.4513,0.0,0.0,0.0,0.0,8.3646,0.0,0.0,0.0,8.6639,8.5856,0.0,8.5032,0.0,0.0,0.0,0.0,8.146,8.4544,0.0,0.0,9.2507,9.4161,9.267,9.2631,9.31,9.3732,9.1379,9.0169,8.9938,8.7704,0.0,0.0,0.0,0.0,0.0,0.0,9.0976,9.289,9.7773,10.0351,10.039,10.039,10.039,10.0429,10.0429,10.039,10.0234,9.7148,9.5351,9.5156,8.8069,0.0,0.0,0.0,0.0,0.0,0.0,0.0,0.0,0.0,0.0,0.0,0.0,0.0,0.0,0.0,0.0,0.0,0.0,0.0,0.0,8.131,0.0,0.0,0.0,0.0,0.0,0.0,0.0,0.0,0.0,0.0,8.2772,8.539,8.781,8.8669,0.0,0.0,0.0,0.0,8.8239,8.6678,8.5663,8.5441,8.6338,8.7048,8.7815,8.8674,0.0,0.0,8.8429,8.896,8.8809,8.6399,8.8572,8.9909,8.7525,8.638,8.5892,8.5854,8.5872,8.5815,8.5874,8.6632,8.7175,8.8026,0.0,0.0,0.0,0.0,8.7251,8.8728,9.1084,9.0862,9.0276,8.9444,8.8806,0.0,0.0,0.0,0.0,0.0,0.0,8.8774,9.0276,9.2958,9.4552,9.5293,9.5918,9.6347,9.6542,9.5824,9.5449,9.548,9.5352,9.1637,8.4653,0.0,0.0,0.0,0.0,9.3931,9.6289,9.9531,10.1523,10.2148,10.2148,10.2148,10.2187,10.2148,10.2148,10.2148,10.0586,9.8906,9.7031,9.3749,0.0,0.0,0.0,0.0,0.0,0.0,0.0,0.0,0.0,0.0,0.0,0.0,0.0,0.0,0.0,0.0,0.0,0.0,0.0,8.2273,8.3972,8.3894,0.0,0.0,0.0,0.0,0.0,0.0,0.0,0.0,0.0,8.858,8.8954,8.9562,0.0,0.0,9.0078,8.9293,8.9957,9.0582,9.0739,9.0549,0.0,9.1523,9.0833,9.0494,9.1343,9.173,9.1776,9.1219,9.1245,9.114,9.0365,9.1011,9.1399,9.0714,9.0224,8.9927,8.9966,8.9966,8.9966,9.0004,9.0185,9.0288,9.1363,8.9852,8.8837,8.9149,9.0242,9.0257,9.1734,9.4122,9.4122,9.3802,9.3334,9.3139,9.1538,8.8884,8.7693,0.0,0.0,0.0,9.1851,9.388,9.4864,9.5918,9.6894,9.7479,9.7675,9.7675,9.7675,9.7884,9.8214,9.8377,9.5629,9.0172,0.0,9.0114,9.0106,9.3589,9.6517,9.8738,10.1283,10.3007,10.3867,10.3906,10.375,10.3437,10.3398,10.3242,10.289,10.2383,10.1367,9.9804,9.7461,9.4138,0.0,0.0,0.0,0.0,0.0,0.0,0.0,0.0,0.0,0.0,0.0,7.7693,7.4804,0.0,0.0,0.0,8.2844,8.4764,8.6438,8.6596,0.0,0.0,0.0,0.0,0.0,0.0,0.0,8.675,8.9305,9.1363,9.215,9.1858,9.1726,9.2187,9.1867,9.1398,9.101,0.0,9.2498,9.3047,9.2807,9.2912,9.3732,9.3043,9.2616,9.3384,9.3451,9.3353,9.3321,9.3202,9.3154,9.3131,9.3131,9.3092,9.3015,9.2948,9.2567,9.187,9.1716,9.1716,9.1716,9.1716,9.1716,9.3888,9.3693,9.1389,9.1389,9.2873,9.299,9.4317,9.6464,9.6464,9.6503,9.6542,9.7362,9.5527,9.1734,9.0133,0.0,9.4122,9.4122,9.5371,9.7675,9.7675,9.7675,9.7714,9.7792,9.7792,9.7792,9.787,9.8338,9.9041,9.8392,9.7962,9.7862,9.7159,9.591,9.4356,9.6535,9.8682,10.0477,10.2777,10.4444,10.5351,10.5429,10.5039,10.4297,10.4297,10.3906,10.3047,10.3008,10.2969,10.2812,9.9844,9.7617,9.6328,0.0,0.0,0.0,0.0,0.0,0.0,0.0,0.0,0.0,0.0,0.0,0.0,0.0,0.0,0.0,8.7537,0.0,9.1349,8.9291,0.0,0.0,0.0,8.5813,8.762,8.9305,9.0325,9.0316,0.0,0.0,9.4012,9.409,9.4129,9.4207,9.4079,9.3717,9.2912,9.355,9.4108,9.4138,9.3515,9.332,9.4336,9.4336,9.4492,9.5039,9.5078,9.4961,9.4841,9.4706,9.4745,9.4654,9.4745,9.4679,9.4705,9.4596,9.4171,9.234,9.2014,9.1986,9.2102,9.2102,9.2102,9.4786,9.4747,9.4122,9.4512,9.5527,9.6191,9.6855,9.7401,9.7401,9.7401,9.7401,9.7636,9.7128,9.6152,9.5762,9.5996,9.6777,9.6777,9.7089,9.7675,9.7675,9.7675,9.7714,9.8377,9.869,9.8729,9.9353,9.9783,10.0017,10.0399,10.0235,9.967,10.0056,9.9126,9.6925,9.7992,9.9817,10.2195,10.2796,10.3858,10.5348,10.5426,10.5282,10.5108,10.5116,10.4726,10.3867,10.3867,10.3594,10.289,10.2109,10.039,9.7461,9.2344,0.0,0.0,0.0,0.0,0.0,0.0,0.0,0.0,0.0,8.1617,7.6794,0.0,8.4218,0.0,9.0174,9.3554,9.3288,9.2111,0.0,0.0,8.9057,8.8703,9.1094,9.2333,9.2954,9.2965,9.4449,9.5575,9.5775,9.5806,9.6049,9.6661,9.5662,9.4724,9.4562,9.5226,9.5814,9.5871,9.6166,9.6562,9.6719,9.6797,9.6836,9.6992,9.6523,9.6094,9.6094,9.5496,9.5067,9.5067,9.5067,9.504,9.4991,9.4868,9.4729,9.4096,9.3985,9.3988,9.3988,9.3872,9.3833,9.623,9.6308,9.666,9.7128,9.7518,9.6816,9.6777,9.7089,9.7128,9.7323,9.7675,9.7675,9.7675,9.7675,9.7675,9.7909,9.826,9.826,9.8494,9.8846,9.8885,9.8846,9.8885,9.9353,9.9588,9.9627,10.0446,10.1032,10.1461,10.2242,10.2624,10.2529,10.2997,10.2324,10.0576,9.9839,10.0385,10.2176,10.3348,10.478,10.6458,10.6575,10.5841,10.4339,10.4277,10.3304,10.1312,10.1277,10.0894,10.0078,10.0,9.8984,9.664,9.25,8.91,0.0,0.0,0.0,0.0,0.0,0.0,0.0,0.0,0.0,0.0,0.0,8.6992,8.6601,9.1791,9.4527,9.2885,9.2638,9.2712,9.2997,9.2182,9.2457,9.4645,9.531,9.5582,9.5614,9.6404,9.6991,9.6981,9.6988,9.7304,9.816,9.7457,9.6835,9.6866,9.7264,9.768,9.8071,9.8551,9.8867,9.8828,9.8867,9.8867,9.8828,9.8476,9.8203,9.8164,9.7812,9.7461,9.7461,9.7461,9.7461,9.733,9.7316,9.7277,9.7193,9.7186,9.6582,9.5062,9.4613,9.4568,9.8026,9.8104,9.8846,9.9158,9.9002,9.6738,9.6191,9.6894,9.6894,9.7323,9.8026,9.8026,9.8026,9.8026,9.8026,9.8455,9.9158,9.9158,9.9588,10.029,10.0407,10.0446,10.0446,10.0681,10.0798,10.0837,10.1618,10.2398,10.314,10.3882,10.4584,10.5201,10.5251,10.4817,10.3854,10.1671,10.0891,10.1657,10.4148,10.6146,10.7629,10.7426,10.5864,10.2906,10.2663,10.1141,9.801,9.7854,9.7466,9.6638,9.6562,9.6328,9.5781,9.1836,8.9601,0.0,8.5058,0.0,0.0,0.0,0.0,0.0,0.0,0.0,0.0,8.9601,8.9952,8.9411,9.2924,9.4374,9.2297,9.2811,9.3853,9.5319,9.5508,9.6114,9.75,9.7695,9.7695,9.7695,9.7812,9.789,9.789,9.7929,9.8359,9.9023,9.9101,9.9062,9.9297,9.9179,9.9375,10.0234,10.0312,10.0078,10.0156,10.0234,10.0195,10.0273,10.0156,10.0312,10.0156,10.0156,10.0234,10.0195,10.0039,10.0156,10.0273,10.0195,10.0195,10.0051,10.0007,9.9059,9.6512,9.5732,9.5362,9.9783,9.9822,9.9978,10.0056,10.0017,9.9509,9.9392,9.9548,9.9548,9.9666,9.9822,9.9822,9.9822,9.9822,9.9822,9.99,10.0056,10.0056,10.0134,10.0329,10.0954,10.1266,10.1375,10.2711,10.3374,10.3413,10.4233,10.4741,10.4897,10.5092,10.4889,10.4363,10.4333,10.3885,10.2983,0.0,0.0,0.0,10.4402,10.556,10.5834,10.451,10.3134,10.1826,10.1727,0.0,9.8792,9.8669,9.8274,9.75,9.7457,0.0,0.0,0.0,0.0,0.0,0.0,0.0,0.0,0.0,0.0,0.0,9.2486,9.1219,8.8959,9.012,9.1575,9.2809,9.4296,9.5547,9.6406,9.664,9.6874,9.7185,9.7226,9.7382,9.7656,9.7695,9.7695,9.7695,9.832,9.875,9.8789,9.9336,9.9844,10.0078,10.0078,10.0351,10.1054,10.0547,10.0156,10.0312,10.0586,10.039,10.0312,10.0469,10.0664,10.0312,10.0312,10.039,10.0508,10.0469,10.039,10.0469,10.0312,10.039,10.039,10.0312,10.0508,10.0351,10.0351,10.0069,9.9366,9.914,9.9028,10.1539,10.1539,10.1539,10.1539,0.0,10.1539,10.1539,10.1461,10.0642,10.029,10.0329,10.0329,10.0329,10.0329,10.0329,10.0524,10.0915,10.0876,10.1344,10.2164,10.2593,10.3023,10.3444,10.435,10.4741,10.4741,10.517,10.5638,10.6029,10.6068,10.6021,10.6012,10.6021,10.5786,10.5368,10.5738,10.5348,10.402,10.4919,10.5795,10.6614,10.5817,10.4549,10.2871,10.2792,0.0,0.0,0.0,0.0,0.0,0.0,0.0,0.0,9.7371,0.0,9.6395,9.479,9.4196,9.4995,9.5094,9.5853,9.7539,9.7299,9.5758,9.2724,9.3688,9.4799,9.5664,9.6172,9.6758,9.7578,9.7695,9.7695,9.7734,9.8086,9.8359,9.8398,9.8711,9.8984,9.9023,9.9375,9.9648,9.9648,10.0,10.0703,10.1445,10.1601,10.2031,10.3125,10.2383,10.1836,10.2695,10.2851,10.289,10.2851,10.2851,10.2851,10.289,10.289,10.2851,10.289,10.2851,10.2851,10.2851,10.2851,10.2851,10.2851,10.2851,10.2734,10.2344,10.2226,10.2031,10.1679,10.0859,10.0156,10.3257,10.3257,10.3257,10.3257,10.3257,10.3257,10.3257,10.314,10.1461,0.0,0.0,10.072,10.0759,10.0759,10.0876,10.1344,10.1969,10.2125,10.2984,10.4311,10.4506,10.4936,10.5638,10.5786,10.5873,10.5873,10.5834,10.6224,10.6888,10.6927,10.7356,10.8137,10.8215,10.8293,10.8488,10.9152,10.8441,10.6393,10.6021,10.6536,10.7942,10.7708,10.6372,10.3924,10.3864,10.2694,10.0314,10.0186,9.9856,9.9181,9.9189,9.9041,9.8619,9.8585,9.8437,9.8047,9.8008,9.863,10.0049,10.0005,10.0453,10.1757,10.1015,9.9568,9.7237,9.7728,9.8164,9.8164,9.8164,9.8164,9.8164,9.8164,9.8164,9.8164,9.8789,9.9219,9.9258,9.9844,10.0234,10.0312,10.0547,10.0742,10.082,10.1133,10.1719,10.2969,10.3359,10.3906,10.5117,10.4297,10.3789,10.4883,10.5039,10.5312,10.5429,10.5312,10.5508,10.5195,10.5312,10.5508,10.5508,10.5508,10.5508,10.5195,10.5508,10.5351,10.5429,10.5234,10.5234,10.457,10.4414,10.4219,10.3476,10.2226,10.125,10.5014,10.5053,10.5053,10.5053,10.5014,10.5053,10.5053,10.4897,10.3218,10.2437,10.2437,10.2437,10.2437,10.2476,10.3257,10.3648,10.3804,10.4506,10.4975,10.5248,10.599,10.6419,10.6575,10.7278,10.7629,10.7629,10.7629,10.7708,10.7786,10.7825,10.8254,10.9035,10.9113,10.9464,11.0089,11.0284,11.0167,10.9768,10.8371,10.7747,10.7981,10.6536,10.4889,10.3093,10.3027,10.207,10.0264,10.0275,10.0139,10.0001,10.0031,10.0655,10.1976,10.2061,10.2695,10.3984,10.4101,10.4296,10.4492,10.3906,10.3242,10.2734,10.1914,10.0937,9.9882,9.9843,9.9922,9.9922,9.9844,9.9922,9.9922,9.9883,9.9804,9.9883,10.0039,10.0117,10.0195,10.039,10.0547,10.0586,10.164,10.2539,10.2656,10.3711,10.4531,10.5,10.5078,10.5469,10.6093,10.5742,10.5273,10.5429,10.5508,10.5508,10.5703,10.5508,10.5664,10.5508,10.5586,10.5703,10.5703,10.5703,10.5703,10.5586,10.5664,10.5625,10.5625,10.5508,10.5508,10.5351,10.5312,10.5195,10.4961,10.4648,10.4062,10.4702,10.4741,10.5209,10.5404,10.5404,10.5404,10.5404,10.5326,10.4584,10.4194,10.4194,10.4194,10.4233,10.4233,10.4623,10.4819,10.4858,10.5209,10.5638,10.6107,10.6536,10.6966,10.7395,10.7825,10.802,10.802,10.802,10.8215,10.8684,10.8684,10.9113,10.9894,10.9972,11.0362,11.1143,11.1182,11.1455,11.1846,11.0206,10.9347,10.9347,10.8566,10.7786,10.6966,10.6948,10.6597,10.5846,10.5378,10.5153,10.5123,10.4685,10.4802,10.556,10.5633,10.5761,10.6073,10.6091,10.5898,10.5469,10.5117,10.4726,10.4336,10.3945,10.3554,10.3164,10.1367,10.0312,10.0312,10.0312,10.0312,10.0312,10.0312,10.0312,10.0312,10.1133,10.1719,10.1836,10.2617,10.3125,10.3164,10.3828,10.4297,10.4297,10.5,10.5703,10.6054,10.6484,10.6992,10.7344,10.7109,10.6836,10.6836,10.6875,10.6836,10.6836,10.6875,10.6875,10.6836,10.6875,10.6875,10.6875,10.6836,10.6836,10.6875,10.6836,10.6836,10.6836,10.6836,10.6679,10.6211,10.6133,10.6015,10.5664,10.5508,10.5156,10.4975,10.5053,10.5717,10.599,10.599,10.599,10.599,10.599,10.599,10.599,10.5951,10.5599,10.5404,10.5404,10.5599,10.5678,10.5717,10.5912,10.6341,10.6966,10.7005,10.7356,10.7981,10.8176,10.8293,10.8332,10.8449,10.8918,10.9503,10.9542,10.9972,11.0753,11.0987,11.1416,11.208,11.208,11.2431,11.2978,11.1768,11.1065,11.1065,11.1065,11.0987,11.0792,11.0753,11.0714,11.0479,10.9894,10.9581,10.9542,10.8762,10.8293,10.8293,10.8098,10.7708,10.7083,10.6976,10.66,10.5781,10.5742,10.5664,10.5508,10.5508,10.5508,10.5273,10.3086,10.1484,10.1484,10.1601,10.1601,10.164,10.1601,10.1484,10.1562,10.2617,10.3437,10.3633,10.4726,10.5508,10.5508,10.5664,10.5742,10.5781,10.5937,10.6328,10.6953,10.7617,10.7969,10.8008,10.8008,10.8008,10.8008,10.8008,10.7929,10.8008,10.7969,10.7929,10.8008,10.7929,10.7851,10.7851,10.7969,10.7969,10.7851,10.7929,10.7851,10.7969,10.7929,10.7656,10.7148,10.6992,10.6797,10.6367,10.6211,10.5898,10.759,10.7669,10.7629,10.7786,10.7708,10.7708,10.7708,10.7708,10.7747,10.7747,10.7512,10.6107,10.5443,10.5521,10.6263,10.6575,10.6653,10.7395,10.7786,10.7825,10.7864,10.7903,10.8098,10.8801,10.9191,10.923,10.9855,11.0206,11.0401,11.044,11.087,11.1689,11.247,11.2861,11.2978,11.3017,11.3056,11.3095,11.2939,11.2861,11.2861,11.2861,11.247,11.1689,11.1689,11.1299,11.0674,11.044,11.0401,11.0323,10.962,10.9191,10.9113,10.8449,10.7981,10.7903,10.7872,10.7508,10.6719,10.6601,10.6289,10.5586,10.5586,10.5586,10.5586,10.5234,10.5,10.4922,10.4961,10.4765,10.5,10.4844,10.4648,10.4531,10.4961,10.5234,10.5234,10.539,10.5508,10.5508,10.6211,10.6562,10.6679,10.7148,10.7656,10.7695,10.7851,10.8008,10.8008,10.8008,10.8008,10.8008,10.8008,10.8008,10.8008,10.8008,10.8008,10.8008,10.8008,10.8008,10.8008,10.8008,10.8008,10.8008,10.8008,10.8008,10.8008,10.8008,10.7969,10.7812,10.7734,10.7773,10.7734,10.7617,10.7148,10.72,10.7278,10.7786,10.802,10.802,10.802,10.802,10.802,10.802,10.802,10.7942,10.7239,10.6966,10.6966,10.7317,10.7473,10.7473,10.7864,10.802,10.802,10.802,10.802,10.8098,10.8918,10.9308,10.9347,11.0128,11.0753,11.1299,11.1768,11.2236,11.2626,11.3446,11.3876,11.3915,11.4383,11.4617,11.4617,11.4617,11.4617,11.4578,11.411,11.368,11.3407,11.3329,11.2939,11.208,11.1533,11.126,11.1221,11.0479,11.0011,11.0011,10.923,10.8762,10.8723,10.8293,10.784,10.7513,10.7457,10.7344,10.6992,10.6953,10.6992,10.6992,10.6992,10.6953,10.6875,10.6093,10.5508,10.5547,10.5508,10.5508,10.5547,10.5898,10.6211,10.6211,10.6679,10.6992,10.6992,10.7265,10.7461,10.75,10.7773,10.8008,10.8008,10.8008,10.8008,10.8008,10.8008,10.8008,10.8008,10.8008,10.8008,10.8008,10.8008,10.8008,10.8008,10.8008,10.8008,10.8086,10.8008,10.8008,10.8047,10.8008,10.8008,10.8008,10.8008,10.8008,10.8008,10.8008,10.8008,10.8008,10.8008,10.7617,10.7044,10.7161,10.7747,10.802,10.802,10.802,10.802,10.802,10.802,10.802,10.802,10.802,10.802,10.802,10.802,10.802,10.802,10.802,10.802,10.802,10.802,10.8137,10.841,10.923,10.9777,11.0089,11.087,11.1572,11.2197,11.3017,11.3446,11.3563,11.4344,11.4734,11.4813,11.5437,11.571,11.5671,11.571,11.5789,11.5906,11.5437,11.5008,11.4774,11.45,11.4071,11.3485,11.2626,11.2158,11.2158,11.1338,11.087,11.0831,11.0089,10.962,10.9542,10.884,10.8371,10.8332,10.8143,10.8005,10.8008,10.8008,10.8008,10.8008,10.8008,10.8008,10.789,10.6875,10.625,10.6172,10.6172,10.6172,10.6211,10.6758,10.7031,10.7109,10.7656,10.7969,10.8008,10.789,10.8008,10.8008,10.8008,10.8008,10.8008,10.8008,10.8008,10.8008,10.8008,10.8008,10.8008,10.8008,10.8008,10.8008,10.8008,10.8047,10.832,10.8437,10.8515,10.8554,10.8593,10.8359,10.8593,10.8242,10.8008,10.8008,10.8008,10.8008,10.8008,10.8008,10.8008,10.8008,10.8008,10.8008,10.7942,10.7942,10.7981,10.802,10.802,10.802,10.802,10.802,10.802,10.802,10.802,10.802,10.802,10.802,10.802,10.802,10.802,10.802,10.802,10.802,10.802,10.8449,10.9269,11.0089,11.087,11.1494,11.2431,11.2978,11.3134,11.3915,11.4344,11.4383,11.5203,11.5632,11.5671,11.5789,11.5749,11.5906,11.5906,11.614,11.6804,11.6882,11.6452,11.5749,11.4891,11.4461,11.4227,11.3524,11.3056,11.3017,11.2197,11.1729,11.1689,11.0948,11.044,11.0323,10.9659,10.923,10.9152,10.8574,10.8133,10.8047,10.8125,10.8008,10.8008,10.8008,10.8008,10.8008,10.7812,10.7695,10.7695,10.7578,10.7656,10.7695,10.7812,10.7851,10.789,10.789,10.8008,10.8008,10.8008,10.8008,10.8008,10.8008,10.8008,10.8008,10.8008,10.8008,10.8008,10.8008,10.8125,10.8125,10.8125,10.8047,10.8047,10.8008,10.8359,10.8906,10.9218,10.9336,10.9726,10.9922,10.9453,10.8984,10.8398,10.8047,10.8008,10.8008,10.8008,10.8008,10.8008,10.8008,10.8008,10.8008,10.8008,10.802,10.802,10.802,10.802,10.802,10.802,10.802,10.802,10.802,10.802,10.802,10.802,10.802,10.802,10.802,10.802,10.802,10.802,10.802,10.802,10.802,10.8449,10.9347,11.0128,11.0987,11.1924,11.3251,11.4227,11.4774,11.5086,11.5242,11.5359,11.6101,11.653,11.6608,11.7116,11.735,11.735,11.735,11.7545,11.778,11.7819,11.7662,11.735,11.653,11.5515,11.4422,11.4071,11.368,11.3134,11.2783,11.2626,11.2548,11.1807,11.1065,11.0557,11.0245,11.0089,11.005,10.9855,10.9433,10.8875,10.8815,10.8587,10.8157,10.8008,10.8008,10.8047,10.8008,10.8008,10.8008,10.8008,10.8008,10.8008,10.8008,10.8008,10.8008,10.8008,10.8008,10.8008,10.8008,10.8008,10.8047,10.8008,10.8008,10.8008,10.8008,10.8047,10.8125,10.8476,10.8828,10.8945,10.9297,10.9687,10.9687,10.8593,10.832,10.9336,10.9843,10.9531,10.9687,10.9765,10.9375,10.8906,10.8359,10.8047,10.8008,10.8008,10.8008,10.8008,10.8008,10.8008,10.8008,10.8008,10.8008,10.8801,10.8801,10.8801,10.884,10.884,10.8801,10.8801,10.8801,10.8801,10.8801,10.8801,10.8801,10.884,10.8801,10.884,10.884,10.8762,10.8566,10.841,10.8449,10.8684,10.9269,11.0128,11.0948,11.1807,11.2744,11.411,11.5164,11.5671,11.5984,11.6101,11.6179,11.696,11.7428,11.7545,11.8014,11.8287,11.8287,11.8287,11.8287,11.8287,11.8287,11.8287,11.8209,11.774,11.6764,11.532,11.4969,11.4578,11.4032,11.3954,11.3798,11.3485,11.2704,11.1963,11.1416,11.1065,11.0948,11.087,11.0714,11.0323,10.9816,10.9721,10.9427,10.8919,10.8854,10.8824,10.8828,10.8828,10.8828,10.8828,10.8867,10.8633,10.8164,10.8008,10.8008,10.8008,10.8008,10.8008,10.8008,10.8008,10.8125,10.8359,10.8437,10.8593,10.8789,10.8867,10.8828,10.8945,10.9297,10.9726,10.9765,11.0156,11.0586,11.0625,10.9883,10.957,11.0429,11.0703,11.0234,11.0,10.9922,10.9492,10.8906,10.8437,10.8164,10.8008,10.8008,10.8008,10.8008,10.8008,10.8008,10.8008,10.8008,10.8008,11.044,11.0362,11.0479,11.0323,11.0284,11.0284,11.0401,11.0323,11.0362,11.0245,11.0167,11.0362,11.0245,11.0362,11.0206,11.0362,11.0167,10.9699,10.9386,10.9347,10.9972,11.0792,11.1689,11.2431,11.3446,11.4422,11.5281,11.571,11.5984,11.6647,11.6999,11.7155,11.778,11.8131,11.8248,11.8248,11.8287,11.8287,11.8287,11.8287,11.8287,11.8287,11.8287,11.8287,11.8209,11.778,11.696,11.614,11.5632,11.5554,11.5554,11.5242,11.4422,11.3563,11.3095,11.29,11.2275,11.1846,11.1729,11.1143,11.0792,11.0596,11.0596,11.0526,11.0292,11.0339,11.032,11.0273,11.0312,11.0429,11.039,11.0351,10.9804,10.8398,10.832,10.832,10.8242,10.8086,10.8047,10.8203,10.8281,10.8476,10.9062,10.9336,10.9531,11.0078,11.0273,11.0234,11.0234,11.0429,11.0586,11.0625,11.0937,11.1406,11.1367,11.1289,11.1445,11.1601,11.1601,11.1445,11.1406,11.1289,11.0508,10.9843,10.8828,10.8476,10.8008,10.8008,10.8008,10.8008,10.8008,10.8008,10.8008,10.8008,10.8008,11.0518,11.0518,11.0518,11.0518,11.0518,11.0518,11.0518,11.0518,11.0518,11.0518,11.0518,11.0518,11.0518,11.0518,11.0518,11.0518,11.0518,11.0792,11.0714,11.0284,11.044,11.1299,11.2509,11.2978,11.4188,11.5945,11.6452,11.6921,11.7428,11.774,11.7897,11.7975,11.817,11.8287,11.8287,11.8287,11.8287,11.8287,11.8287,11.8287,11.8287,11.8287,11.8287,11.8287,11.8287,11.8131,11.7897,11.7077,11.6335,11.5789,11.571,11.5554,11.5203,11.4461,11.3993,11.3915,11.3173,11.2704,11.2665,11.2431,11.2002,11.1572,11.1416,11.1143,11.0674,11.0644,11.0651,11.0637,11.0586,11.0586,11.0586,11.0586,11.039,10.9843,10.9804,10.9687,10.9648,10.9687,10.9804,10.9765,10.9765,10.9922,11.0117,11.0195,11.0351,11.0625,11.0703,11.0703,11.0742,11.1211,11.1484,11.1484,11.1914,11.2226,11.2226,11.2187,11.2304,11.2265,11.2226,11.2226,11.2265,11.2031,11.1328,11.0547,10.9531,10.8828,10.832,10.8125,10.8164,10.8047,10.8008,10.8008,10.8008,10.8008,10.8008,11.1455,11.1455,11.1455,11.1455,11.1455,11.1455,11.1455,11.1494,11.1455,11.1455,11.1494,11.1494,11.1455,11.1455,11.1455,11.1455,11.1494,11.2041,11.2002,11.1533,11.1455,11.2119,11.3173,11.3837,11.5203,11.7116,11.7467,11.774,11.8248,11.8287,11.8287,11.8287,11.8287,11.8287,11.8287,11.8287,11.8287,11.8287,11.8287,11.8287,11.8287,11.8287,11.8287,11.8287,11.8287,11.8287,11.8287,11.774,11.7233,11.6686,11.6374,11.6179,11.6101,11.5398,11.4891,11.4774,11.4383,11.3954,11.3641,11.3563,11.3212,11.247,11.2275,11.2088,11.1635,11.1524,11.1536,11.1545,11.1601,11.1562,11.1601,11.1562,11.1562,11.1562,11.0898,11.0664,11.0586,11.0586,11.0586,11.0508,11.0508,11.0742,11.0976,11.1093,11.125,11.1445,11.1562,11.1562,11.1679,11.207,11.2226,11.2383,11.2656,11.289,11.3086,11.3125,11.3125,11.2929,11.2734,11.2656,11.2656,11.2187,11.1523,11.0859,10.9961,10.9453,10.8984,10.8711,10.8633,10.8359,10.8086,10.8008,10.8008,10.8008,10.8008,11.3095,11.3173,11.3095,11.2978,11.2978,11.2939,11.29,11.3017,11.2978,11.29,11.2939,11.2822,11.2939,11.3017,11.2822,11.2822,11.3056,11.2939,11.2939,11.2861,11.29,11.3095,11.3641,11.5125,11.6686,11.7975,11.817,11.8248,11.8287,11.8287,11.8287,11.8287,11.8287,11.8287,11.8287,11.8287,11.8287,11.8287,11.8287,11.8287,11.8287,11.8287,11.8287,11.8287,11.8287,11.8287,11.8287,11.817,11.8209,11.8131,11.7428,11.7077,11.6921,11.6257,11.5749,11.5749,11.571,11.5164,11.4656,11.4461,11.4149,11.3485,11.3251,11.315,11.3059,11.2877,11.2806,11.2847,11.2928,11.3008,11.3008,11.2968,11.2968,11.2929,11.1836,11.1093,11.082,11.0898,11.1054,11.0976,11.082,11.1054,11.1875,11.1953,11.2304,11.2734,11.2929,11.2851,11.2851,11.289,11.3086,11.3164,11.3125,11.3164,11.3203,11.3203,11.3203,11.3125,11.2968,11.2929,11.2929,11.2461,11.1914,11.1211,11.0703,11.0195,10.9648,10.9336,10.8945,10.8593,10.832,10.8125,10.8008,10.8008,10.8008,11.3485,11.3954,11.3368,11.3095,11.3095,11.3095,11.3134,11.3134,11.3134,11.3212,11.3134,11.3095,11.3212,11.3134,11.3173,11.3095,11.3212,11.3173,11.3095,11.3095,11.3095,11.3915,11.5125,11.6725,11.778,11.8248,11.8287,11.8287,11.8287,11.8287,11.8287,11.8287,11.8287,11.8287,11.8287,11.8287,11.8287,11.8287,11.8287,11.8287,11.8287,11.8287,11.8287,11.8287,11.8287,11.8287,11.8287,11.8287,11.8287,11.8287,11.8131,11.7975,11.7819,11.7116,11.6647,11.6608,11.6101,11.5671,11.5437,11.5359,11.5203,11.5008,11.4344,11.404,11.4048,11.3476,11.3203,11.3137,11.3164,11.3203,11.3203,11.3203,11.3203,11.3164,11.2617,11.2343,11.2383,11.25,11.25,11.25,11.2422,11.2539,11.2656,11.2812,11.289,11.3125,11.3203,11.3203,11.3203,11.3203,11.3203,11.3203,11.3164,11.3164,11.3203,11.3203,11.3203,11.3203,11.3125,11.3125,11.3086,11.2929,11.2422,11.1836,11.164,11.125,11.0429,10.9804,10.9336,10.8906,10.8359,10.8086,10.8008,10.8008,10.8008,11.45,11.4891,11.4383,11.4188,11.4188,11.4188,11.4188,11.4188,11.4188,11.4188,11.4188,11.4188,11.4188,11.4188,11.4227,11.4227,11.4188,11.4188,11.4227,11.4305,11.4656,11.5164,11.5984,11.7155,11.7936,11.8287,11.8287,11.8287,11.8287,11.8287,11.8287,11.8287,11.8287,11.8287,11.8287,11.8287,11.8287,11.8287,11.8287,11.8287,11.8287,11.8287,11.8287,11.8287,11.8287,11.8287,11.8287,11.8287,11.8287,11.8287,11.8287,11.8287,11.8248,11.7858,11.7545,11.7506,11.7038,11.6686,11.6296,11.6218,11.6062,11.571,11.5164,11.5008,11.4891,11.4422,11.4188,11.4282,11.3918,11.3736,11.3623,11.3435,11.3203,11.3164,11.3203,11.3203,11.3203,11.3125,11.3164,11.3203,11.3203,11.3203,11.3203,11.3203,11.3203,11.3203,11.3203,11.3203,11.3203,11.3203,11.3203,11.3203,11.3203,11.3203,11.3203,11.3203,11.3203,11.3203,11.3203,11.3203,11.3203,11.3203,11.289,11.25,11.2461,11.2187,11.1328,11.0468,10.9804,10.9258,10.8554,10.8086,10.8047,10.8008,10.8008,11.5623,11.5828,11.5749,11.571,11.5632,11.5671,11.5515,11.5632,11.5515,11.5554,11.5554,11.5632,11.5437,11.571,11.5359,11.5593,11.5593,11.5437,11.5515,11.571,11.614,11.6491,11.6101,11.696,11.774,11.8209,11.8287,11.8287,11.8287,11.8287,11.8287,11.8287,11.8287,11.8287,11.8287,11.8287,11.8287,11.8287,11.8287,11.8287,11.8287,11.8287,11.8287,11.8287,11.8287,11.8287,11.8287,11.8287,11.8287,11.8287,11.8287,11.8287,11.8287,11.8287,11.8248,11.8209,11.8053,11.774,11.7311,11.7116,11.6882,11.6296,11.6023,11.5828,11.5749,11.5554,11.5398,11.5359,11.4969,11.4595,11.4485,11.3932,11.3711,11.3711,11.3554,11.3359,11.332,11.3242,11.3203,11.3203,11.3203,11.3203,11.3203,11.3203,11.3203,11.3203,11.3203,11.3203,11.3203,11.3203,11.3203,11.3203,11.3203,11.3203,11.3203,11.3203,11.3203,11.3203,11.3203,11.3203,11.3203,11.3203,11.3203,11.3047,11.2851,11.2617,11.2187,11.1367,11.0508,10.9687,10.9062,10.8515,10.8047,10.8008,10.8008,11.5284,11.6647,11.5984,11.571,11.571,11.571,11.571,11.5749,11.5749,11.5867,11.5749,11.5749,11.5789,11.5749,11.5867,11.571,11.5867,11.5867,11.571,11.5828,11.6608,11.6882,11.6882,11.7584,11.8053,11.8287,11.8287,11.8287,11.8287,11.8287,11.8287,11.8287,11.8287,11.8287,11.8287,11.8287,11.8287,11.8287,11.8287,11.8287,11.8287,11.8287,11.8287,11.8287,11.8287,11.8287,11.8287,11.8287,11.8287,11.8287,11.8287,11.8287,11.8287,11.8287,11.8287,11.8287,11.8287,11.817,11.8053,11.7936,11.7936,11.7584,11.6999,11.6686,11.6647,11.6101,11.5828,11.5671,11.5515,11.5398,11.529,11.5246,11.5025,11.4834,11.4492,11.414,11.4023,11.3554,11.3242,11.3203,11.3203,11.3203,11.3203,11.3203,11.3203,11.3203,11.3203,11.3203,11.3203,11.3203,11.3203,11.3203,11.3203,11.3203,11.3203,11.3203,11.3203,11.3203,11.3203,11.3203,11.3203,11.3203,11.3203,11.3203,11.3164,11.289,11.2617,11.207,11.1172,11.039,10.9531,10.8828,10.8242,10.8164,10.8008,11.6492,11.7545,11.7116,11.6921,11.6921,11.6921,11.6921,11.6921,11.6921,11.6921,11.6921,11.6921,11.6921,11.6921,11.6921,11.696,11.6921,11.6921,11.6921,11.7038,11.7467,11.7623,11.7662,11.8014,11.8287,11.8287,11.8287,11.8287,11.8287,11.8287,11.8287,11.8287,11.8287,11.8287,11.8287,11.8287,11.8287,11.8287,11.8287,11.8287,11.8287,11.8287,11.8287,11.8287,11.8287,11.8287,11.8287,11.8287,11.8287,11.8287,11.8287,11.8287,11.8287,11.8287,11.8287,11.8287,11.8287,11.8287,11.8287,11.8287,11.8248,11.8287,11.7819,11.7701,11.7545,11.7155,11.696,11.6804,11.6569,11.6179,11.5749,11.5688,11.5702,11.5624,11.529,11.5029,11.4804,11.3945,11.3203,11.3203,11.3203,11.3203,11.3203,11.3203,11.3203,11.3203,11.3203,11.3203,11.3203,11.3203,11.3203,11.3203,11.3203,11.3203,11.3203,11.3203,11.3203,11.3203,11.3203,11.3203,11.3203,11.3203,11.3203,11.3203,11.3203,11.3203,11.289,11.2343,11.1679,11.0664,10.9765,10.8984,10.8398,10.8125,10.8008,11.7771,11.8229,11.8229,11.8239,11.8287,11.8248,11.817,11.8209,11.8287,11.8053,11.8287,11.8287,11.8014,11.8209,11.817,11.8248,11.8209,11.817,11.7975,11.8053,11.8092,11.8131,11.817,11.8248,11.8287,11.8287,11.8287,11.8287,11.8287,11.8287,11.8287,11.8287,11.8287,11.8287,11.8287,11.8287,11.8287,11.8287,11.8287,11.8287,11.8287,11.8287,11.8287,11.8287,11.8287,11.8287,11.8287,11.8287,11.8287,11.8287,11.8287,11.8287,11.8287,11.8287,11.8287,11.8287,11.8287,11.8287,11.8287,11.8287,11.8287,11.8287,11.8287,11.8248,11.8209,11.8131,11.8053,11.7897,11.7545,11.696,11.6218,11.6335,11.6257,11.614,11.6062,11.5897,11.562,11.4492,11.3867,11.3515,11.3593,11.3593,11.332,11.3203,11.3203,11.3203,11.3203,11.3203,11.3203,11.3203,11.3203,11.3203,11.3203,11.3203,11.3203,11.3203,11.3203,11.3203,11.3203,11.3203,11.3203,11.3203,11.3203,11.3203,11.3203,11.3203,11.3125,11.2734,11.1914,11.0898,11.0078,10.9414,10.875,10.8125,10.8008,11.6766,11.7888,11.7888,11.8041,11.8278,11.8287,11.8287,11.8287,11.8287,11.8287,11.8287,11.8287,11.8287,11.8287,11.8287,11.8287,11.8287,11.8287,11.8287,11.8287,11.8287,11.8287,11.8287,11.8287,11.8287,11.8287,11.8287,11.8287,11.8287,11.8287,11.8287,11.8287,11.8287,11.8287,11.8287,11.8287,11.8287,11.8287,11.8287,11.8287,11.8287,11.8287,11.8287,11.8287,11.8287,11.8287,11.8287,11.8287,11.8287,11.8287,11.8287,11.8287,11.8287,11.8287,11.8287,11.8287,11.8287,11.8287,11.8287,11.8287,11.8287,11.8287,11.8287,11.8287,11.8287,11.8287,11.8287,11.8248,11.817,11.7936,11.7897,11.7623,11.778,11.7662,11.7194,11.6781,11.6579,11.5976,11.5039,11.457,11.4375,11.4101,11.3906,11.3633,11.3515,11.3437,11.3281,11.3242,11.3203,11.3203,11.3203,11.3203,11.3203,11.3203,11.3203,11.3203,11.3203,11.3203,11.3203,11.3203,11.3203,11.3203,11.3203,11.3203,11.3203,11.3203,11.3086,11.2929,11.2226,11.1172,11.0508,10.9843,10.9023,10.8242,10.8008,11.6849,11.7597,11.7761,11.7888,11.8041,11.8229,11.8287,11.8287,11.8287,11.8287,11.8287,11.8287,11.8287,11.8287,11.8287,11.8287,11.8287,11.8287,11.8287,11.8287,11.8287,11.8287,11.8287,11.8287,11.8287,11.8287,11.8287,11.8287,11.8287,11.8287,11.8287,11.8287,11.8287,11.8287,11.8287,11.8287,11.8287,11.8287,11.8287,11.8287,11.8287,11.8287,11.8287,11.8287,11.8287,11.8287,11.8287,11.8287,11.8287,11.8287,11.8287,11.8287,11.8287,11.8287,11.8287,11.8287,11.8287,11.8287,11.8287,11.8287,11.8287,11.8287,11.8287,11.8287,11.8287,11.8287,11.8287,11.8287,11.8287,11.8287,11.8209,11.8287,11.8287,11.8209,11.7897,11.7671,11.757,11.7237,11.6552,11.578,11.5429,11.5117,11.4726,11.4414,11.4023,11.3711,11.3476,11.332,11.3242,11.3203,11.3203,11.3203,11.3203,11.3203,11.3203,11.3203,11.3203,11.3203,11.3203,11.3203,11.3203,11.3203,11.3203,11.3203,11.3203,11.3203,11.3164,11.3047,11.2265,11.1523,11.082,11.0078,10.9101,10.8437,10.8164,11.7042,11.7345,11.7551,11.7683,11.7816,11.8093,11.8229,11.8287,11.8287,11.8287,11.8287,11.8287,11.8287,11.8287,11.8287,11.8287,11.8287,11.8287,11.8287,11.8287,11.8287,11.8287,11.8287,11.8287,11.8287,11.8287,11.8287,11.8287,11.8287,11.8287,11.8287,11.8287,11.8287,11.8287,11.8287,11.8287,11.8287,11.8287,11.8287,11.8287,11.8287,11.8287,11.8287,11.8287,11.8287,11.8287,11.8287,11.8287,11.8287,11.8287,11.8287,11.8287,11.8287,11.8287,11.8287,11.8287,11.8287,11.8287,11.8287,11.8287,11.8287,11.8287,11.8287,11.8287,11.8287,11.8287,11.8287,11.8287,11.8287,11.8287,11.8287,11.8287,11.8287,11.8287,11.8287,11.8248,11.817,11.7992,11.7739,11.7095,11.6597,11.6015,11.5547,11.5117,11.4687,11.4179,11.3906,11.3476,11.3359,11.3203,11.3203,11.3203,11.3203,11.3203,11.3203,11.3203,11.3203,11.3203,11.3203,11.3203,11.3203,11.3203,11.3203,11.3203,11.3203,11.3203,11.3203,11.3086,11.25,11.1836,11.1133,11.0273,10.9297,10.8515,10.8086,11.6748,11.7046,11.7075,11.7373,11.7761,11.7855,11.8041,11.8278,11.8287,11.8287,11.8287,11.8287,11.8287,11.8287,11.8287,11.8287,11.8287,11.8287,11.8287,11.8287,11.8287,11.8287,11.8287,11.8287,11.8287,11.8287,11.8287,11.8287,11.8287,11.8287,11.8287,11.8287,11.8287,11.8287,11.8287,11.8287,11.8287,11.8287,11.8287,11.8287,11.8287,11.8287,11.8287,11.8287,11.8287,11.8287,11.8287,11.8287,11.8287,11.8287,11.8287,11.8287,11.8287,11.8287,11.8287,11.8287,11.8287,11.8287,11.8287,11.8287,11.8287,11.8287,11.8287,11.8287,11.8287,11.8287,11.8287,11.8287,11.8287,11.8287,11.8287,11.8287,11.8287,11.8287,11.8287,11.8287,11.8287,11.8287,11.8077,11.8038,11.7433,11.6748,11.6133,11.5742,11.5312,11.4804,11.4336,11.3906,11.3515,11.3359,11.3203,11.3203,11.3203,11.3203,11.3203,11.3203,11.3203,11.3203,11.3203,11.3203,11.3203,11.3203,11.3203,11.3203,11.3203,11.3203,11.3203,11.3047,11.2695,11.2109,11.1367,11.0429,10.9453,10.875,10.8047,11.6577,11.6748,11.6941,11.7109,11.7373,11.7662,11.7888,11.8041,11.8229,11.8287,11.8287,11.8287,11.8287,11.8287,11.8287,11.8287,11.8287,11.8287,11.8287,11.8287,11.8287,11.8287,11.8287,11.8287,11.8287,11.8287,11.8287,11.8287,11.8287,11.8287,11.8287,11.8287,11.8287,11.8287,11.8287,11.8287,11.8287,11.8287,11.8287,11.8287,11.8287,11.8287,11.8287,11.8287,11.8287,11.8287,11.8287,11.8287,11.8287,11.8287,11.8287,11.8287,11.8287,11.8287,11.8287,11.8287,11.8287,11.8287,11.8287,11.8287,11.8287,11.8287,11.8287,11.8287,11.8287,11.8287,11.8287,11.8287,11.8287,11.8287,11.8287,11.8287,11.8287,11.8287,11.8287,11.8287,11.8287,11.8287,11.8257,11.8287,11.8218,11.7544,11.69,11.6601,11.625,11.5859,11.5156,11.4414,11.3906,11.3515,11.3359,11.3203,11.3203,11.3203,11.3203,11.3203,11.3203,11.3203,11.3203,11.3203,11.3203,11.3203,11.3203,11.3203,11.3203,11.3203,11.3203,11.3086,11.2929,11.2265,11.1562,11.0664,10.9765,10.8672,10.8086,11.6484,11.6529,11.6749,11.6941,11.7011,11.7453,11.7662,11.7833,11.809,11.8209,11.8287,11.8287,11.8287,11.8287,11.8287,11.8287,11.8287,11.8287,11.8287,11.8287,11.8287,11.8287,11.8287,11.8287,11.8287,11.8287,11.8287,11.8287,11.8287,11.8287,11.8287,11.8287,11.8287,11.8287,11.8287,11.8287,11.8287,11.8287,11.8287,11.8287,11.8287,11.8287,11.8287,11.8287,11.8287,11.8287,11.8287,11.8287,11.8287,11.8287,11.8287,11.8287,11.8287,11.8287,11.8287,11.8287,11.8287,11.8287,11.8287,11.8287,11.8287,11.8287,11.8287,11.8287,11.8287,11.8287,11.8287,11.8287,11.8287,11.8287,11.8287,11.8287,11.8287,11.8287,11.8287,11.8287,11.8287,11.8287,11.8287,11.8287,11.8287,11.8287,11.7772,11.7521,11.7226,11.6875,11.6054,11.5039,11.4297,11.3711,11.3398,11.3203,11.3203,11.3203,11.3203,11.3203,11.3203,11.3203,11.3203,11.3203,11.3203,11.3203,11.3203,11.3203,11.3203,11.3203,11.3203,11.3203,11.3125,11.2539,11.1875,11.1054,11.0078,10.8906,10.8125,11.6484,11.6484,11.6529,11.6707,11.7014,11.7011,11.7345,11.7741,11.7845,11.8014,11.8287,11.8287,11.8287,11.8287,11.8287,11.8287,11.8287,11.8287,11.8287,11.8287,11.8287,11.8287,11.8287,11.8287,11.8287,11.8287,11.8287,11.8287,11.8287,11.8287,11.8287,11.8287,11.8287,11.8287,11.8287,11.8287,11.8287,11.8287,11.8287,11.8287,11.8287,11.8287,11.8287,11.8287,11.8287,11.8287,11.8287,11.8287,11.8287,11.8287,11.8287,11.8287,11.8287,11.8287,11.8287,11.8287,11.8287,11.8287,11.8287,11.8287,11.8287,11.8287,11.8287,11.8287,11.8287,11.8287,11.8287,11.8287,11.8287,11.8287,11.8287,11.8287,11.8287,11.8287,11.8287,11.8287,11.8287,11.8287,11.8287,11.8287,11.8287,11.8287,11.8287,11.7967,11.775,11.7383,11.6445,11.5429,11.4414,11.3789,11.3398,11.3203,11.3203,11.3203,11.3203,11.3203,11.3203,11.3203,11.3203,11.3203,11.3203,11.3203,11.3203,11.3203,11.3203,11.3203,11.3203,11.3203,11.3086,11.2773,11.2109,11.0898,10.9883,10.8789,10.8203,11.6484,11.6484,11.6484,11.6616,11.6707,11.6904,11.7237,11.7558,11.7729,11.7975,11.8287,11.8287,11.8287,11.8287,11.8287,11.8287,11.8287,11.8287,11.8287,11.8287,11.8287,11.8287,11.8287,11.8287,11.8287,11.8287,11.8287,11.8287,11.8287,11.8287,11.8287,11.8287,11.8287,11.8287,11.8287,11.8287,11.8287,11.8287,11.8287,11.8287,11.8287,11.8287,11.8287,11.8287,11.8287,11.8287,11.8287,11.8287,11.8287,11.8287,11.8287,11.8287,11.8287,11.8287,11.8287,11.8287,11.8287,11.8287,11.8287,11.8287,11.8287,11.8287,11.8287,11.8287,11.8287,11.8287,11.8287,11.8287,11.8287,11.8287,11.8287,11.8287,11.8287,11.8287,11.8287,11.8287,11.8287,11.8287,11.8287,11.8287,11.8287,11.8287,11.8287,11.8257,11.8077,11.7812,11.6836,11.582,11.4843,11.3828,11.3398,11.3203,11.3203,11.3203,11.3203,11.3203,11.3203,11.3203,11.3203,11.3203,11.3203,11.3203,11.3203,11.3203,11.3203,11.3203,11.3203,11.3203,11.3086,11.2929,11.1797,11.0312,10.9375,10.8515,10.8242,11.6484,11.6484,11.6484,11.6484,11.6529,11.6748,11.7046,11.7278,11.7449,11.7806,11.817,11.8209,11.8287,11.8287,11.8287,11.8287,11.8287,11.8287,11.8287,11.8287,11.8287,11.8287,11.8287,11.8287,11.8287,11.8287,11.8287,11.8287,11.8287,11.8287,11.8287,11.8287,11.8287,11.8287,11.8287,11.8287,11.8287,11.8287,11.8287,11.8287,11.8287,11.8287,11.8287,11.8287,11.8287,11.8287,11.8287,11.8287,11.8287,11.8287,11.8287,11.8287,11.8287,11.8287,11.8287,11.8287,11.8287,11.8287,11.8287,11.8287,11.8287,11.8287,11.8287,11.8287,11.8287,11.8287,11.8287,11.8287,11.8287,11.8287,11.8287,11.8287,11.8287,11.8287,11.8287,11.8287,11.8287,11.8287,11.8287,11.8287,11.8287,11.8287,11.8092,11.8053,11.7944,11.7601,11.6678,11.5876,11.5195,11.4218,11.3281,11.3164,11.3203,11.3203,11.3203,11.3203,11.3203,11.3203,11.3203,11.3203,11.3203,11.3203,11.3203,11.3203,11.3203,11.3203,11.3203,11.3203,11.3203,11.3164,11.1758,11.0156,10.8945,10.8203,10.8164,11.6484,11.6484,11.6484,11.6484,11.6484,11.6484,11.6707,11.7042,11.7128,11.739,11.7887,11.8131,11.8287,11.8287,11.8287,11.8287,11.8287,11.8287,11.8287,11.8287,11.8287,11.8287,11.8287,11.8287,11.8287,11.8287,11.8287,11.8287,11.8287,11.8287,11.8287,11.8287,11.8287,11.8287,11.8287,11.8287,11.8287,11.8287,11.8287,11.8287,11.8287,11.8287,11.8287,11.8287,11.8287,11.8287,11.8287,11.8287,11.8287,11.8287,11.8287,11.8287,11.8287,11.8287,11.8287,11.8287,11.8287,11.8287,11.8287,11.8287,11.8287,11.8287,11.8287,11.8287,11.8287,11.8287,11.8287,11.8287,11.8287,11.8287,11.8287,11.8287,11.8287,11.8248,11.8248,11.817,11.817,11.8014,11.7936,11.8209,11.8287,11.8248,11.7936,11.774,11.7662,11.7233,11.6452,11.5758,11.5188,11.4342,11.3264,11.3112,11.3154,11.3164,11.3164,11.3203,11.3203,11.3203,11.3203,11.3203,11.3203,11.3203,11.3203,11.3203,11.3203,11.3203,11.3203,11.3203,11.2929,11.2539,11.1601,11.0195,10.8906,10.8008,10.8008,11.6484,11.6484,11.6484,11.6484,11.6484,11.6484,11.6666,11.7007,11.7362,11.7616,11.7838,11.8131,11.8287,11.8287,11.8287,11.8287,11.8287,11.8287,11.8287,11.8287,11.8287,11.8287,11.8287,11.8287,11.8287,11.8287,11.8287,11.8287,11.8287,11.8287,11.8287,11.8287,11.8287,11.8287,11.8287,11.8287,11.8287,11.8287,11.8287,11.8287,11.8287,11.8287,11.8287,11.8287,11.8287,11.8287,11.8287,11.8287,11.8287,11.8287,11.8287,11.8287,11.8287,11.8287,11.8287,11.8287,11.8287,11.8287,11.8287,11.8287,11.8287,11.8287,11.8287,11.8287,11.8287,11.8287,11.8287,11.8287,11.8287,11.8287,11.8287,11.8287,11.8248,11.8131,11.8053,11.7975,11.7858,11.7545,11.7467,11.8014,11.8287,11.778,11.7389,11.6921,11.6764,11.6335,11.5515,11.5203,11.4712,11.4009,11.3118,11.3118,11.3125,11.3142,11.3151,11.3157,11.3203,11.3203,11.3203,11.3203,11.3203,11.3203,11.3203,11.3203,11.3203,11.3203,11.3203,11.3047,11.2383,11.1718,11.1054,11.0039,10.8593,10.8008,10.8008,11.6484,11.6484,11.6484,11.6484,11.6484,11.6484,11.662,11.6902,11.7388,11.7638,11.776,11.8092,11.8287,11.8287,11.8287,11.8287,11.8287,11.8287,11.8287,11.8287,11.8287,11.8287,11.8287,11.8287,11.8287,11.8287,11.8287,11.8287,11.8287,11.8287,11.8287,11.8287,11.8287,11.8287,11.8287,11.8287,11.8287,11.8287,11.8287,11.8287,11.8287,11.8287,11.8287,11.8287,11.8287,11.8287,11.8287,11.8287,11.8287,11.8287,11.8287,11.8287,11.8287,11.8287,11.8287,11.8287,11.8287,11.8287,11.8287,11.8287,11.8287,11.8287,11.8287,11.8287,11.8287,11.8287,11.8287,11.8287,11.8287,11.8248,11.8248,11.8248,11.8131,11.8014,11.7623,11.7506,11.735,11.7038,11.6686,11.7311,11.7467,11.7038,11.6647,11.614,11.571,11.5125,11.4539,11.4383,11.4227,11.3641,11.3095,11.3095,11.3103,11.3118,11.3131,11.3181,11.3164,11.3203,11.3203,11.3203,11.3203,11.3203,11.3203,11.3203,11.3203,11.3203,11.3203,11.2929,11.2461,11.1797,11.1015,10.9804,10.832,10.8001,10.8003,11.6484,11.6484,11.6484,11.6484,11.6484,11.6484,11.6529,11.6577,11.7174,11.743,11.7467,11.8053,11.8287,11.8287,11.8287,11.8287,11.8287,11.8287,11.8287,11.8287,11.8287,11.8287,11.8287,11.8287,11.8287,11.8287,11.8287,11.8287,11.8287,11.8287,11.8287,11.8287,11.8287,11.8287,11.8287,11.8287,11.8287,11.8287,11.8287,11.8287,11.8287,11.8287,11.8287,11.8287,11.8287,11.8287,11.8287,11.8287,11.8287,11.8287,11.8287,11.8287,11.8287,11.8287,11.8287,11.8287,11.8287,11.8287,11.8287,11.8287,11.8287,11.8287,11.8287,11.8287,11.8287,11.8287,11.8287,11.8287,11.8287,11.8209,11.817,11.8092,11.8014,11.7584,11.7038,11.6882,11.6725,11.6374,11.5945,11.5984,11.6101,11.5906,11.5671,11.5203,11.493,11.4344,11.3954,11.3915,11.3759,11.3524,11.3134,11.3095,11.3095,11.3095,11.3111,11.3118,11.3164,11.3164,11.3164,11.3164,11.3164,11.3203,11.3203,11.3203,11.3203,11.3203,11.3203,11.3047,11.2773,11.1992,11.1093,11.0039,10.8694,10.8127,10.8016,11.6484,11.6484,11.6484,11.6484,11.6484,11.6484,11.6484,11.6577,11.7135,11.741,11.7467,11.8014,11.8287,11.8287,11.8287,11.8287,11.8287,11.8287,11.8287,11.8287,11.8287,11.8287,11.8287,11.8287,11.8287,11.8287,11.8287,11.8287,11.8287,11.8287,11.8287,11.8287,11.8287,11.8287,11.8287,11.8287,11.8287,11.8287,11.8287,11.8287,11.8287,11.8287,11.8287,11.8287,11.8287,11.8287,11.8287,11.8287,11.8287,11.8287,11.8287,11.8287,11.8287,11.8287,11.8287,11.8287,11.8287,11.8287,11.8287,11.8287,11.8287,11.8287,11.8287,11.8287,11.8287,11.8248,11.8209,11.8131,11.7936,11.774,11.7467,11.735,11.7194,11.6764,11.6218,11.5867,11.571,11.5398,11.5008,11.5164,11.5242,11.5047,11.4774,11.4656,11.4305,11.368,11.3368,11.3407,11.3407,11.3212,11.3134,11.3095,11.3095,11.3095,11.3095,11.3111,11.3125,11.3125,11.3151,11.3159,11.3164,11.3164,11.3203,11.3203,11.3164,11.3203,11.3203,11.3047,11.289,11.207,11.1172,11.0195,10.9259,10.8582,10.8059,11.6484,11.6484,11.6484,11.6484,11.6484,11.6484,11.6484,11.662,11.7135,11.741,11.7497,11.8053,11.8287,11.8287,11.8287,11.8287,11.8287,11.8287,11.8287,11.8287,11.8287,11.8287,11.8287,11.8287,11.8287,11.8287,11.8287,11.8287,11.8287,11.8287,11.8287,11.8287,11.8287,11.8287,11.8287,11.8287,11.8287,11.8287,11.8287,11.8287,11.8287,11.8287,11.8287,11.8287,11.8287,11.8287,11.8287,11.8287,11.8287,11.8287,11.8287,11.8287,11.8287,11.8287,11.8287,11.8287,11.8287,11.8287,11.8287,11.8287,11.8287,11.8287,11.8287,11.8287,11.8092,11.7936,11.778,11.7623,11.735,11.7038,11.6725,11.6413,11.6101,11.5789,11.5281,11.4774,11.45,11.4305,11.4344,11.45,11.4422,11.4266,11.4071,11.3993,11.3837,11.3407,11.3212,11.3212,11.3212,11.3173,11.3134,11.3095,11.3095,11.3095,11.3095,11.3095,11.3111,11.3118,11.3125,11.3142,11.3154,11.3164,11.3164,11.3164,11.3164,11.3164,11.3164,11.3164,11.2968,11.2187,11.1444,11.053,10.9611,10.8738,10.8301,11.6484,11.6484,11.6484,11.6484,11.6484,11.6484,11.6484,11.6577,11.7135,11.741,11.7516,11.8053,11.8287,11.8287,11.8287,11.8287,11.8287,11.8287,11.8287,11.8287,11.8287,11.8287,11.8287,11.8287,11.8287,11.8287,11.8287,11.8287,11.8287,11.8287,11.8287,11.8287,11.8287,11.8268,11.8171,11.8278,11.8278,11.8168,11.8229,11.8287,11.8287,11.8287,11.8287,11.8287,11.8287,11.8287,11.8287,11.8287,11.8287,11.8287,11.8287,11.8287,11.8287,11.8287,11.8287,11.8287,11.8287,11.8287,11.8287,11.8287,11.8287,11.8287,11.8287,11.8287,11.8092,11.7623,11.7389,11.7155,11.6882,11.6218,11.5789,11.5593,11.532,11.493,11.4422,11.411,11.3954,11.3759,11.368,11.3798,11.3759,11.3602,11.3563,11.3485,11.3524,11.3173,11.3095,11.3095,11.3095,11.3095,11.3095,11.3095,11.3095,11.3095,11.3095,11.3095,11.3095,11.3103,11.3103,11.3103,11.3131,11.3142,11.3125,11.3125,11.3125,11.3164,11.3164,11.3164,11.3086,11.2734,11.1949,11.0911,10.9956,10.9011,10.8379,11.6484,11.6484,11.6484,11.6484,11.6484,11.6484,11.6484,11.6534,11.7135,11.741,11.7516,11.7975,11.8287,11.8287,11.8287,11.8287,11.8287,11.8287,11.8287,11.8287,11.8287,11.8287,11.8278,11.8257,11.8278,11.8287,11.8287,11.8287,11.8287,11.8287,11.8287,11.8287,11.8248,11.8118,11.7975,11.806,11.8144,11.7943,11.8093,11.8179,11.819,11.8239,11.8287,11.8287,11.8287,11.8287,11.8287,11.8287,11.8287,11.8287,11.8287,11.8287,11.8287,11.8287,11.8287,11.8287,11.8287,11.8287,11.8287,11.8287,11.8287,11.8287,11.8287,11.8287,11.8014,11.7389,11.6921,11.6686,11.6179,11.5398,11.4891,11.4734,11.4539,11.4071,11.368,11.3563,11.3485,11.329,11.3134,11.3095,11.3095,11.3095,11.3095,11.3095,11.3095,11.3095,11.3095,11.3095,11.3095,11.3095,11.3095,11.3095,11.3095,11.3095,11.3095,11.3095,11.3095,11.3095,11.3095,11.3095,11.3095,11.3111,11.3131,11.3103,11.3125,11.3112,11.3147,11.3125,11.3008,11.2881,11.2178,11.1062,11.0183,10.9277,10.8566,11.6484,11.6484,11.6484,11.6484,11.6484,11.6484,11.6484,11.6577,11.7153,11.7386,11.7487,11.7975,11.8287,11.8287,11.8287,11.8287,11.8287,11.8287,11.8287,11.8287,11.8287,11.8287,11.8268,11.821,11.8235,11.8246,11.8278,11.8287,11.8239,11.8118,11.8054,11.8073,11.7995,11.7842,11.7634,11.7824,11.7831,11.7658,11.7837,11.7904,11.8002,11.8129,11.8239,11.8287,11.8287,11.8287,11.8287,11.8287,11.8287,11.8287,11.8287,11.8287,11.8287,11.8287,11.8287,11.8287,11.8287,11.8287,11.8287,11.8287,11.8287,11.8287,11.8287,11.8287,11.8014,11.735,11.6374,11.5984,11.4813,11.4032,11.3954,11.3798,11.3759,11.3446,11.3329,11.329,11.3251,11.3173,11.3095,11.3095,11.3095,11.3095,11.3095,11.3095,11.3095,11.3095,11.3095,11.3095,11.3095,11.3095,11.3095,11.3095,11.3095,11.3095,11.3095,11.3095,11.3095,11.3095,11.3095,11.3095,11.3095,11.3095,11.3103,11.3118,11.3086,11.3125,11.3111,11.3103,11.3103,11.3014,11.2155,11.1127,11.0292,10.9503,10.8762,11.6484,11.6484,11.6484,11.6484,11.6484,11.6484,11.6484,11.6616,11.713,11.7396,11.7487,11.8053,11.8248,11.8287,11.8287,11.8287,11.8287,11.8287,11.8287,11.8287,11.8287,11.8287,11.8223,11.8067,11.8119,11.8157,11.8179,11.8129,11.8067,11.7904,11.7755,11.7716,11.7573,11.7387,11.7355,11.7401,11.7407,11.7414,11.7439,11.745,11.7664,11.7935,11.8106,11.8218,11.8278,11.8287,11.8287,11.8287,11.8287,11.8287,11.8287,11.8287,11.8287,11.8287,11.8287,11.8287,11.8287,11.8287,11.8287,11.8287,11.8287,11.8287,11.8287,11.8131,11.7858,11.7038,11.6062,11.5047,11.3876,11.329,11.3212,11.3173,11.3134,11.3134,11.3095,11.3095,11.3095,11.3095,11.3095,11.3095,11.3095,11.3095,11.3095,11.3095,11.3095,11.3095,11.3095,11.3095,11.3095,11.3095,11.3095,11.3095,11.3095,11.3095,11.3095,11.3095,11.3095,11.3095,11.3095,11.3095,11.3095,11.3095,11.3095,11.3095,11.3103,11.3111,11.3103,11.3095,11.3103,11.3111,11.2252,11.1315,11.0526,10.9738,10.8957,11.6484,11.6484,11.6484,11.6484,11.6484,11.6484,11.6484,11.6573,11.7132,11.7411,11.7572,11.7975,11.8287,11.8287,11.8287,11.8287,11.8287,11.8287,11.8287,11.8287,11.8287,11.8287,11.8218,11.8021,11.804,11.795,11.7857,11.7755,11.7741,11.7597,11.7464,11.7442,11.7458,11.7249,11.7136,11.7194,11.7247,11.7162,11.7198,11.7306,11.7414,11.7641,11.7819,11.7982,11.8145,11.8229,11.8287,11.8287,11.8287,11.8287,11.8287,11.8287,11.8287,11.8287,11.8287,11.8287,11.8287,11.8287,11.8287,11.8287,11.8287,11.8287,11.8209,11.7936,11.7389,11.653,11.5593,11.4734,11.3759,11.3251,11.3134,11.3134,11.3095,11.3095,11.3095,11.3095,11.3095,11.3095,11.3095,11.3095,11.3095,11.3095,11.3095,11.3095,11.3095,11.3095,11.3095,11.3095,11.3095,11.3095,11.3095,11.3095,11.3095,11.3095,11.3095,11.3095,11.3095,11.3095,11.3095,11.3095,11.3095,11.3095,11.3095,11.3095,11.3095,11.3103,11.3095,11.3095,11.3095,11.2986,11.2314,11.1533,11.0753,10.9972,10.923]},{"header":{"parameterUnit":"m.s-1","parameterCategory":1,"la1":31.0,"la2":29.5877,"lo1":-88.7671,"lo2":-86.6584,"dy":0.0162,"dx":0.0185,"nx":115,"ny":88,"refTime":"2023-10-26T12:00:00:Z","depth":0,"parameterNumber":3,"parameterNumberName":"V-component_of_WINDS"},"data":[0.0,0.0,0.0,0.0,0.0,0.0,0.0,0.0,0.0,0.0,0.0,0.0,0.0,0.0,0.0,0.0,0.0,0.0,0.0,0.0,0.0,0.0,0.0,0.0,0.0,0.0,0.0,0.0,0.0,0.0,0.0,0.0,0.0,0.0,0.0,0.0,0.0,0.0,0.0,0.0,0.0,0.0,0.0,0.0,0.0,0.0,0.0,0.0,0.0,0.0,0.0,0.0,0.0,0.0,0.0,0.0,0.0,0.0,0.0,0.0,0.0,0.0,0.0,0.0,0.0,0.0,0.0,0.0,0.0,0.0,0.0,0.0,0.0,0.0,0.0,0.0,0.0,0.0,0.0,0.0,0.0,0.0,0.0,0.0,0.0,0.0,0.0,0.0,0.0,0.0,0.0,0.0,0.0,0.0,0.0,0.0,0.0,0.0,0.0,0.0,0.0,0.0,0.0,0.0,0.0,0.0,0.0,0.0,0.0,0.0,0.0,0.0,0.0,0.0,0.0,0.0,0.0,0.0,0.0,0.0,0.0,0.0,0.0,0.0,0.0,0.0,0.0,0.0,0.0,0.0,0.0,0.0,0.0,0.0,0.0,0.0,0.0,0.0,0.0,0.0,0.0,0.0,0.0,0.0,0.0,0.0,0.0,0.0,0.0,0.0,0.0,0.0,0.0,0.0,0.0,0.0,0.0,0.0,0.0,0.0,0.0,0.0,0.0,0.0,0.0,0.0,0.0,0.0,0.0,0.0,0.0,0.0,0.0,0.0,0.0,0.0,0.0,0.0,0.0,0.0,0.0,0.0,0.0,0.0,0.0,0.0,0.0,0.0,0.0,0.0,0.0,0.0,0.0,0.0,0.0,0.0,0.0,0.0,0.0,0.0,0.0,0.0,0.0,0.0,0.0,0.0,0.0,0.0,0.0,0.0,0.0,0.0,0.0,0.0,0.0,0.0,0.0,0.0,0.0,0.0,0.0,0.0,0.0,0.0,0.0,0.0,0.0,0.0,0.0,0.0,0.0,0.0,0.0,0.0,0.0,0.0,0.0,0.0,0.0,0.0,0.0,0.0,0.0,0.0,0.0,0.0,0.0,0.0,0.0,0.0,0.0,0.0,0.0,0.0,0.0,0.0,0.0,0.0,0.0,0.0,0.0,0.0,0.0,0.0,0.0,0.0,0.0,0.0,0.0,0.0,0.0,0.0,0.0,0.0,0.0,0.0,0.0,0.0,0.0,0.0,0.0,0.0,0.0,0.0,0.0,0.0,0.0,0.0,0.0,0.0,0.0,0.0,0.0,0.0,0.0,0.0,0.0,0.0,0.0,0.0,0.0,0.0,0.0,0.0,0.0,0.0,0.0,0.0,0.0,0.0,0.0,0.0,0.0,0.0,0.0,0.0,0.0,0.0,0.0,0.0,0.0,0.0,0.0,0.0,0.0,0.0,0.0,0.0,0.0,0.0,0.0,0.0,0.0,0.0,0.0,0.0,0.0,0.0,0.0,0.0,0.0,0.0,0.0,0.0,0.0,0.0,0.0,0.0,0.0,0.0,0.0,0.0,0.0,0.0,0.0,0.0,0.0,0.0,0.0,0.0,0.0,0.0,0.0,0.0,0.0,0.0,0.0,0.0,0.0,0.0,0.0,0.0,0.0,0.0,0.0,0.0,0.0,0.0,0.0,0.0,0.0,0.0,0.0,0.0,0.0,0.0,0.0,0.0,0.0,0.0,0.0,0.0,0.0,0.0,0.0,0.0,0.0,0.0,0.0,0.0,0.0,0.0,0.0,0.0,0.0,0.0,0.0,0.0,0.0,0.0,0.0,0.0,0.0,0.0,0.0,0.0,0.0,0.0,0.0,0.0,0.0,0.0,0.0,0.0,0.0,0.0,0.0,0.0,0.0,0.0,0.0,0.0,0.0,0.0,0.0,0.0,0.0,0.0,0.0,0.0,0.0,0.0,0.0,0.0,0.0,0.0,0.0,0.0,0.0,0.0,0.0,0.0,0.0,0.0,0.0,0.0,0.0,0.0,0.0,0.0,0.0,0.0,0.0,0.0,0.0,0.0,0.0,0.0,0.0,0.0,0.0,0.0,0.0,0.0,0.0,0.0,0.0,0.0,0.0,0.0,0.0,0.0,0.0,0.0,0.0,0.0,0.0,0.0,0.0,0.0,0.0,0.0,0.0,0.0,0.0,0.0,0.0,0.0,0.0,0.0,0.0,0.0,0.0,0.0,0.0,0.0,0.0,0.0,0.0,0.0,0.0,0.0,0.0,0.0,0.0,0.0,0.0,0.0,0.0,0.0,0.0,0.0,0.0,0.0,0.0,0.0,0.0,0.0,0.0,0.0,0.0,0.0,0.0,0.0,0.0,0.0,0.0,0.0,0.0,0.0,0.0,0.0,0.0,0.0,0.0,0.0,0.0,0.0,0.0,0.0,0.0,0.0,0.0,0.0,0.0,0.0,0.0,0.0,0.0,0.0,0.0,0.0,0.0,0.0,0.0,0.0,0.0,0.0,0.0,0.0,0.0,0.0,0.0,0.0,0.0,0.0,0.0,0.0,0.0,0.0,0.0,0.0,0.0,0.0,0.0,0.0,0.0,0.0,0.0,0.0,0.0,0.0,0.0,0.0,0.0,0.0,0.0,0.0,0.0,0.0,0.0,0.0,0.0,0.0,0.0,0.0,0.0,0.0,0.0,0.0,0.0,0.0,0.0,0.0,0.0,0.0,0.0,0.0,0.0,0.0,0.0,0.0,0.0,0.0,0.0,0.0,0.0,0.0,0.0,0.0,0.0,0.0,0.0,0.0,0.0,0.0,0.0,0.0,0.0,0.0,0.0,0.0,0.0,0.0,0.0,0.0,0.0,0.0,0.0,0.0,0.0,0.0,0.0,0.0,0.0,0.0,0.0,0.0,0.0,0.0,0.0,0.0,0.0,0.0,0.0,0.0,0.0,0.0,0.0,0.0,0.0,0.0,0.0,0.0,0.0,0.0,0.0,0.0,0.0,0.0,0.0,0.0,0.0,0.0,0.0,0.0,0.0,0.0,0.0,0.0,0.0,0.0,0.0,0.0,0.0,0.0,0.0,0.0,0.0,0.0,0.0,0.0,0.0,0.0,0.0,0.0,0.0,0.0,0.0,0.0,0.0,0.0,0.0,0.0,0.0,0.0,0.0,0.0,0.0,0.0,0.0,0.0,0.0,0.0,0.0,0.0,0.0,0.0,0.0,0.0,0.0,0.0,0.0,0.0,0.0,0.0,0.0,0.0,0.0,0.0,0.0,0.0,0.0,0.0,0.0,0.0,0.0,0.0,0.0,0.0,0.0,0.0,0.0,0.0,0.0,0.0,0.0,0.0,0.0,0.0,0.0,0.0,0.0,0.0,0.0,0.0,0.0,0.0,0.0,0.0,0.0,0.0,0.0,0.0,0.0,0.0,0.0,0.0,0.0,0.0,0.0,0.0,0.0,0.0,0.0,0.0,0.0,0.0,0.0,0.0,0.0,0.0,0.0,0.0,0.0,0.0,0.0,0.0,0.0,0.0,0.0,0.0,0.0,0.0,0.0,0.0,0.0,0.0,0.0,0.0,0.0,0.0,0.0,0.0,0.0,0.0,0.0,0.0,0.0,0.0,0.0,0.0,0.0,0.0,0.0,0.0,0.0,0.0,0.0,0.0,0.0,0.0,0.0,0.0,0.0,0.0,0.0,0.0,0.0,0.0,0.0,0.0,0.0,0.0,0.0,0.0,0.0,0.0,0.0,0.0,0.0,0.0,0.0,0.0,0.0,0.0,0.0,0.0,0.0,0.0,0.0,0.0,0.0,0.0,0.0,0.0,0.0,0.0,0.0,0.0,0.0,0.0,0.0,0.0,0.0,0.0,0.0,0.0,0.0,0.0,0.0,0.0,0.0,0.0,0.0,0.0,0.0,0.0,0.0,0.0,0.0,0.0,0.0,0.0,0.0,0.0,0.0,0.0,0.0,0.0,0.0,0.0,0.0,0.0,0.0,0.0,0.0,0.0,0.0,0.0,0.0,0.0,0.0,0.0,0.0,0.0,0.0,0.0,0.0,0.0,0.0,0.0,0.0,0.0,0.0,0.0,0.0,0.0,0.0,0.0,0.0,0.0,0.0,0.0,0.0,0.0,0.0,0.0,0.0,0.0,0.0,0.0,0.0,0.0,0.0,0.0,0.0,0.0,0.0,0.0,0.0,0.0,0.0,0.0,0.0,0.0,0.0,0.0,0.0,0.0,0.0,0.0,0.0,0.0,0.0,0.0,-0.4692,0.0,0.0,0.0,0.0,0.0,0.0,0.0,0.0,0.0,0.0,0.0,0.0,0.0,0.0,0.0,0.0,0.0,0.0,0.0,0.0,0.0,0.0,0.0,0.0,0.0,0.0,0.0,0.0,0.0,0.0,0.0,0.0,0.0,0.0,0.0,0.0,0.0,0.0,0.0,0.0,0.0,0.0,0.0,0.0,0.0,0.0,0.0,0.0,0.0,0.0,0.0,0.0,0.0,0.0,0.0,0.0,0.0,0.0,0.0,0.0,0.0,0.0,0.0,0.0,0.0,0.0,0.0,0.0,0.0,0.0,0.0,0.0,0.0,0.0,0.0,0.0,0.0,0.0,0.0,0.0,0.0,0.0,0.0,0.0,0.0,0.0,0.0,0.0,0.0,0.0,0.0,0.0,0.0,0.0,0.0,0.0,0.0,0.0,0.0,0.0,0.0,0.0,0.0,0.0,0.0,0.0,0.0,0.0,0.0,0.0,-0.2478,-0.2333,-0.3437,-0.398,-0.3856,0.0,0.0,0.0,0.0,0.0,0.0,0.0,0.0,0.0,0.0,0.0,0.0,0.0,0.0,0.0,0.0,0.0,0.0,0.0,0.0,0.0,0.0,0.0,0.0,0.0,0.0,0.0,0.0,0.0,0.0,0.0,0.0,0.0,0.0,0.0,0.0,0.0,0.0,0.0,0.0,0.0,0.0,0.0,0.0,0.0,0.0,0.0,0.0,0.0,0.0,0.0,0.0,0.0,0.0,0.0,0.0,0.0,0.0,0.0,0.0,0.0,0.0,0.0,0.0,0.0,0.0,0.0,0.0,0.0,0.0,0.0,0.0,0.0,0.0,0.0,0.0,0.0,0.0,0.0,0.0,0.0,0.0,0.0,0.0,0.0,0.0,0.0,0.0,0.0,0.0,0.0,0.0,0.0,0.0,0.0,0.0,0.0,0.0,0.0,0.0,0.0,0.0,0.0,0.0,0.0,0.0,0.0,0.0,0.0,0.0,0.0,0.0,-0.3052,-0.3313,-0.3158,0.0,0.0,0.0,0.0,0.0,0.0,0.0,0.0,0.0,0.0,0.0,0.0,0.0,0.0,0.0,0.0,0.0,0.0,0.0,0.0,0.0,0.0,0.0,0.0,0.0,0.0,0.0,0.0,0.0,0.0,0.0,0.0,0.0,0.0,0.0,0.0,0.0,0.0,0.0,0.0,0.0,0.0,0.0,0.0,0.0,0.0,0.0,0.0,0.0,0.0,0.0,0.0,0.0,0.0,0.0,0.0,0.0,0.0,0.0,0.0,0.0,0.0,0.0,0.0,0.0,0.0,0.0,0.0,0.0,0.0,0.0,0.0,0.0,0.0,0.0,0.0,0.0,0.0,0.0,0.0,0.0,0.0,0.0,0.0,0.0,0.0,0.0,0.0,0.0,0.0,0.0,0.0,0.0,0.0,0.0,0.0,0.0,0.0,0.0,0.0,0.0,0.0,0.0,0.0,0.0,0.0,0.0,0.0,0.0,0.0,-0.2358,-0.2262,-0.2535,0.0,-0.2478,0.0,0.0,0.0,0.0,0.0,0.0,0.0,0.0,0.0,0.0,0.0,0.0,0.0,0.0,0.0,0.0,0.0,0.0,0.0,0.0,0.0,0.0,0.0,0.0,0.0,0.0,0.0,0.0,0.0,0.0,0.0,0.0,0.0,0.0,0.0,0.0,0.0,0.0,0.0,0.0,0.0,0.0,0.0,0.0,0.0,0.0,0.0,0.0,0.0,0.0,0.0,0.0,0.0,0.0,0.0,0.0,0.0,0.0,0.0,0.0,0.0,0.0,0.0,0.0,0.0,0.0,0.0,0.0,0.0,0.0,0.0,0.0,0.0,0.0,0.0,0.0,0.0,0.0,0.0,0.0,0.0,0.0,0.0,0.0,0.0,0.0,0.0,0.0,0.0,0.0,0.0,0.0,0.0,0.0,0.0,0.0,0.0,0.0,0.0,0.0,0.0,0.0,0.0,0.0,0.0,0.0,0.0,0.0,0.0,0.0,-0.2398,-0.2423,-0.2412,-0.2541,0.0,0.0,0.0,0.0,0.0,0.0,0.0,0.0,0.0,0.0,0.0,0.0,0.0,0.0,0.0,0.0,0.0,0.0,0.0,0.0,0.0,0.0,0.0,0.0,0.0,0.0,0.0,0.0,0.0,0.0,0.0,0.0,0.0,0.0,0.0,0.0,0.0,0.0,0.0,0.0,0.0,0.0,0.0,0.0,0.0,0.0,0.0,0.0,0.0,0.0,0.0,0.0,0.0,0.0,0.0,0.0,0.0,0.0,0.0,0.0,0.0,0.0,0.0,0.0,0.0,0.0,0.0,0.0,0.0,0.0,0.0,0.0,0.0,0.0,0.0,0.0,0.0,0.0,0.0,0.0,0.0,0.0,0.0,0.0,0.0,0.0,0.0,0.0,0.0,0.0,0.0,0.0,0.0,0.0,0.0,0.0,0.0,0.0,0.0,0.0,0.0,0.0,0.0,0.0,0.0,0.0,0.0,0.0,0.0,0.0,-0.241,-0.2432,-0.2447,-0.244,-0.2574,-0.2541,0.0,0.0,0.0,0.0,0.0,0.0,0.0,0.0,0.0,0.0,0.0,0.0,0.0,0.0,0.0,0.0,0.0,0.0,0.0,0.0,0.0,0.0,0.0,0.0,0.0,0.0,0.0,0.0,0.0,0.0,0.0,0.0,0.0,0.0,0.0,0.0,0.0,0.0,0.0,0.0,0.0,0.0,0.0,0.0,0.0,0.0,0.0,0.0,0.0,0.0,0.0,0.0,0.0,0.0,0.0,0.0,0.0,0.0,0.0,0.0,0.0,0.0,0.0,0.0,0.0,0.0,0.0,0.0,0.0,0.0,0.0,0.0,0.0,0.0,0.0,0.0,0.0,0.0,0.0,0.0,0.0,0.0,0.0,0.0,0.0,0.0,0.0,0.0,0.0,0.0,0.0,0.0,0.0,0.0,0.0,0.0,0.0,0.0,0.0,0.0,0.0,0.0,0.0,0.0,0.0,0.0,0.0,0.0,-0.234,-0.2298,-0.2451,-0.2507,-0.2482,-0.2453,0.0,0.0,0.0,0.0,0.0,0.0,0.0,0.0,0.0,0.0,0.0,0.0,0.0,0.0,0.0,0.0,0.0,0.0,0.0,0.0,0.0,0.0,0.0,0.0,0.0,0.0,0.0,0.0,0.0,0.0,0.0,0.0,0.0,0.0,0.0,0.0,0.0,0.0,0.0,0.0,0.0,0.0,0.0,0.0,0.0,0.0,0.0,0.0,0.0,0.0,0.0,0.0,0.0,0.0,0.0,0.0,0.0,0.0,0.0,0.0,0.0,0.0,0.0,0.0,0.0,0.0,0.0,0.0,0.0,0.0,0.0,0.0,0.0,0.0,0.0,0.0,0.0,0.0,0.0,0.0,0.0,0.0,0.0,0.0,0.0,0.0,0.0,0.0,0.0,0.0,0.0,0.0,0.0,0.0,0.0,0.0,0.0,0.0,0.0,0.0,0.0,0.0,0.0,0.0,0.0,0.0,0.0,0.0,0.0,-0.2246,-0.2414,-0.247,-0.2563,-0.2485,-0.2606,0.0,0.0,0.0,0.0,0.0,0.0,0.0,0.0,0.0,0.0,0.0,0.0,0.0,0.0,0.0,0.0,0.0,0.0,0.0,0.0,0.0,0.0,0.0,0.0,0.0,0.0,0.0,0.0,0.0,0.0,0.0,0.0,0.0,0.0,0.0,0.0,0.0,0.0,0.0,0.0,0.0,0.0,0.0,0.0,0.0,0.0,0.0,0.0,0.0,0.0,0.0,0.0,0.0,0.0,0.0,0.0,0.0,0.0,0.0,0.0,0.0,0.0,0.0,0.0,0.0,0.0,0.0,0.0,0.0,0.0,0.0,0.0,0.0,0.0,0.0,0.0,0.0,0.0,0.0,0.0,0.0,0.0,0.0,0.0,0.0,0.0,0.0,0.0,0.0,0.0,0.0,0.0,0.0,0.0,0.0,0.0,0.0,0.0,0.0,0.0,0.0,0.0,0.0,0.0,0.0,0.0,0.0,0.0,0.0,-0.2391,0.0,-0.2511,-0.2567,-0.2496,-0.2607,0.0,0.0,0.0,0.0,0.0,0.0,0.0,0.0,0.0,0.0,0.0,0.0,0.0,0.0,0.0,0.0,0.0,0.0,0.0,0.0,0.0,0.0,0.0,0.0,0.0,0.0,0.0,0.0,0.0,0.0,0.0,0.0,0.0,0.0,0.0,0.0,0.0,0.0,0.0,0.0,0.0,0.0,0.0,0.0,0.0,0.0,0.0,0.0,0.0,0.0,0.0,0.0,0.0,0.0,0.0,0.0,0.0,0.0,0.0,0.0,0.0,0.0,0.0,0.0,0.0,0.0,0.0,0.0,0.0,0.0,0.0,0.0,0.0,0.0,0.0,0.0,0.0,0.0,0.0,0.0,0.0,0.0,0.0,0.0,0.0,0.0,0.0,0.0,0.0,0.0,0.0,0.0,0.0,0.0,0.0,0.0,0.0,0.0,0.0,0.0,0.0,0.0,0.0,0.0,0.0,0.0,0.0,0.0,-0.2394,-0.2507,-0.2566,-0.2568,-0.2518,-0.2512,-0.2457,0.0,0.0,0.0,0.0,0.0,0.0,0.0,0.0,0.0,0.0,0.0,0.0,0.0,0.0,0.0,0.0,0.0,0.0,0.0,0.0,0.0,0.0,0.0,0.0,0.0,0.0,0.0,0.0,0.0,0.0,0.0,0.0,0.0,0.0,0.0,0.0,0.0,0.0,0.0,0.0,0.0,0.0,0.0,0.0,0.0,0.0,0.0,0.0,0.0,0.0,0.0,0.0,0.0,0.0,0.0,0.0,0.0,0.0,0.0,0.0,0.0,0.0,0.0,0.0,0.0,0.0,0.0,0.0,0.0,0.0,0.0,0.0,0.0,0.0,0.0,0.0,0.0,0.0,0.0,0.0,0.0,0.0,0.0,0.0,0.0,0.0,0.0,0.0,0.0,0.0,0.0,0.0,0.0,0.0,0.0,0.0,0.0,0.0,0.0,0.0,0.0,0.0,0.0,0.0,0.0,0.0,0.0,0.0,0.0,-0.2484,-0.2521,-0.2552,-0.2571,-0.2495,-0.2454,0.0,0.0,0.0,0.0,0.0,0.0,0.0,0.0,0.0,0.0,0.0,0.0,0.0,0.0,0.0,0.0,0.0,0.0,0.0,0.0,0.0,0.0,0.0,0.0,0.0,0.0,0.0,0.0,0.0,0.0,0.0,0.0,0.0,0.0,0.0,0.0,0.0,0.0,0.0,0.0,0.0,0.0,0.0,0.0,0.0,0.0,0.0,0.0,0.0,0.0,0.0,0.0,0.0,0.0,0.0,0.0,0.0,0.0,0.0,0.0,0.0,0.0,0.0,0.0,0.0,0.0,0.0,0.0,0.0,0.0,0.0,0.0,0.0,0.0,0.0,0.0,0.0,0.0,0.0,0.0,0.0,0.0,0.0,0.0,0.0,0.0,0.0,0.0,0.0,0.0,0.0,0.0,0.0,0.0,0.0,0.0,0.0,0.0,0.0,0.0,0.0,0.0,0.0,0.0,0.0,0.0,0.0,0.0,0.0,-0.2572,-0.2611,-0.2632,-0.2635,-0.2552,-0.2499,-0.248,0.0,0.0,0.0,0.0,0.0,0.0,0.0,0.0,0.0,0.0,0.0,0.0,0.0,0.0,0.0,0.0,0.0,0.0,0.0,0.0,0.0,0.0,0.0,0.0,0.0,0.0,0.0,0.0,0.0,0.0,0.0,0.0,0.0,0.0,0.0,0.0,0.0,0.0,0.0,0.0,0.0,0.0,0.0,0.0,0.0,0.0,0.0,0.0,0.0,0.0,0.0,0.0,0.0,0.0,0.0,0.0,0.0,0.0,0.0,0.0,0.0,0.0,0.0,0.0,0.0,0.0,0.0,0.0,0.0,0.0,0.0,0.0,0.0,0.0,0.0,0.0,0.0,0.0,0.0,0.0,0.0,0.0,0.0,0.0,0.0,0.0,0.0,0.0,0.0,0.0,0.0,0.0,0.0,0.0,0.0,0.0,0.0,0.0,0.0,0.0,0.0,0.0,0.0,0.0,0.0,0.0,0.0,0.0,-0.2744,-0.2634,-0.2623,-0.2537,-0.2665,-0.2581,0.0,0.0,0.0,0.0,0.0,0.0,0.0,0.0,0.0,0.0,0.0,0.0,0.0,0.0,0.0,0.0,0.0,0.0,0.0,0.0,0.0,0.0,0.0,0.0,0.0,0.0,0.0,0.0,0.0,0.0,0.0,0.0,0.0,0.0,0.0,0.0,0.0,0.0,0.0,0.0,0.0,0.0,0.0,0.0,0.0,0.0,0.0,0.0,0.0,0.0,0.0,0.0,0.0,0.0,0.0,0.0,0.0,0.0,0.0,0.0,0.0,0.0,0.0,0.0,0.0,0.0,0.0,0.0,0.0,0.0,0.0,0.0,0.0,0.0,0.0,0.0,0.0,0.0,0.0,0.0,0.0,0.0,0.0,0.0,0.0,0.0,0.0,0.0,0.0,0.0,0.0,0.0,0.0,0.0,0.0,0.0,0.0,0.0,0.0,0.0,0.0,0.0,0.0,0.0,0.0,0.0,0.0,0.0,0.0,-0.2485,-0.1296,-0.0925,-0.1591,-0.237,-0.2628,0.0,0.0,0.0,0.0,0.0,0.0,0.0,0.0,0.0,0.0,0.0,0.0,0.0,0.0,0.0,0.0,0.0,0.0,0.0,0.0,0.0,0.0,0.0,0.0,0.0,0.0,0.0,0.0,0.0,0.0,0.0,0.0,0.0,0.0,0.0,0.0,0.0,0.0,0.0,0.0,0.0,0.0,0.0,0.0,0.0,0.0,0.0,0.0,0.0,0.0,0.0,0.0,0.0,0.0,0.0,0.0,0.0,0.0,0.0,0.0,0.0,0.0,0.0,0.0,0.0,0.0,0.0,0.0,0.0,0.0,0.0,0.0,0.0,0.0,0.0,0.0,0.0,0.0,0.0,0.0,0.0,0.0,0.0,0.0,0.0,0.0,0.0,0.0,0.0,0.0,0.0,0.0,0.0,0.0,0.0,0.0,0.0,0.0,0.0,0.0,0.0,0.0,0.0,0.0,0.0,0.0,0.0,0.0,-0.1611,-0.2548,-0.0951,-0.0192,-0.0742,-0.124,-0.1873,0.0,0.0,0.0,0.0,0.0,0.0,0.0,0.0,0.0,0.0,0.0,0.0,0.0,0.0,0.0,0.0,0.0,0.0,0.0,0.0,0.0,0.0,0.0,0.0,0.0,0.0,0.0,0.0,0.0,0.0,0.0,0.0,0.0,0.0,0.0,0.0,0.0,0.0,0.0,0.0,0.0,0.0,0.0,0.0,0.0,0.0,0.0,0.0,0.0,0.0,0.0,0.0,0.0,0.0,0.0,0.0,0.0,0.0,0.0,0.0,0.0,0.0,0.0,0.0,0.0,0.0,0.0,0.0,0.0,0.0,0.0,0.0,0.0,0.0,0.0,0.0,0.0,0.0,0.0,0.0,0.0,0.0,0.0,0.0,0.0,0.0,0.0,0.0,0.0,0.0,0.0,0.0,0.0,0.0,0.0,0.0,0.0,0.0,0.0,0.0,0.0,0.0,0.0,0.0,0.0,0.0,0.0,0.0,-0.1654,-0.2233,-0.0773,0.0,0.0,0.0,-0.0709,0.0,0.0,0.0,0.0,0.0,0.0,0.0,0.0,0.0,0.0,0.0,0.0,0.0,0.0,0.0,0.0,0.0,0.0,0.0,0.0,0.0,0.0,0.0,0.0,0.0,0.0,0.0,0.0,0.0,0.0,0.0,0.0,0.0,0.0,0.0,0.0,0.0,0.0,0.0,0.0,0.0,0.0,0.0,0.0,0.0,0.0,0.0,0.0,0.0,0.0,0.0,0.0,0.0,0.0,0.0,0.0,0.0,0.0,0.0,0.0,0.0,0.0,0.0,0.0,0.0,0.0,0.0,0.0,0.0,0.0,0.0,0.0,0.0,0.0,0.0,0.0,0.0,0.0,0.0,0.0,0.0,0.0,0.0,0.0,0.0,0.0,0.0,0.0,0.0,0.0,0.0,0.0,0.0,0.0,0.0,0.0,0.0,0.0,0.0,0.0,0.0,0.0,0.0,0.0,0.0,0.0,0.0,0.0,-0.1683,-0.0575,-0.0198,0.0,0.0,0.0,-0.0178,0.0,0.0,0.0,0.0,0.0,0.0,0.0,0.0,0.0,0.0,0.0,0.0,0.0,0.0,0.0,0.0,0.0,0.0,0.0,0.0,0.0,0.0,0.0,0.0,0.0,0.0,0.0,0.0,0.0,0.0,0.0,0.0,0.0,0.0,0.0,0.0,0.0,0.0,0.0,0.0,0.0,0.0,0.0,0.0,0.0,0.0,0.0,0.0,-0.8397,0.0,0.0,0.0,0.0,0.0,0.0,0.0,0.0,0.0,0.0,0.0,0.0,0.0,0.0,0.0,0.0,0.0,0.0,0.0,0.0,0.0,0.0,0.0,0.0,0.0,0.0,0.0,0.0,0.0,0.0,0.0,0.0,0.0,0.0,0.0,0.0,0.0,0.0,0.0,0.0,0.0,0.0,0.0,0.0,0.0,0.0,0.0,0.0,0.0,0.0,0.0,0.0,0.0,0.0,0.0,0.0,0.0,0.0,0.0,-0.1703,0.0,0.0,0.0,0.0,0.0,0.0,0.0,0.0,0.0,0.0,0.0,0.0,0.0,0.0,0.0,0.0,0.0,0.0,0.0,0.0,0.0,0.0,0.0,0.0,0.0,0.0,0.0,0.0,0.0,0.0,0.0,0.0,0.0,0.0,0.0,0.0,0.0,0.0,0.0,0.0,0.0,0.0,0.0,0.0,0.0,0.0,0.0,0.0,0.0,0.0,0.0,0.0,0.0,0.0,0.0,0.0,0.0,0.0,0.0,0.0,0.0,0.0,0.0,0.0,0.0,0.0,0.0,0.0,0.0,0.0,0.0,0.0,0.0,0.0,0.0,0.0,0.0,0.0,0.0,0.0,0.0,0.0,0.0,0.0,0.0,0.0,0.0,0.0,0.0,0.0,0.0,0.0,0.0,0.0,0.0,0.0,0.0,0.0,0.0,0.0,0.0,0.0,0.0,0.0,0.0,0.0,0.0,0.0,0.0,0.0,0.0,0.0,0.0,-0.1841,-0.1528,0.0,0.0,0.0,0.0,0.0,0.0,0.0,0.0,0.0,0.0,0.0,0.0,0.0,0.0,0.0,0.0,0.0,0.0,0.0,0.0,0.0,0.0,0.0,0.0,0.0,0.0,0.0,0.0,0.0,0.0,0.0,0.0,0.0,0.0,0.0,0.0,0.0,0.0,0.0,0.0,0.0,0.0,0.0,0.0,0.0,-0.7385,-0.7358,0.0,0.0,0.0,0.0,0.0,0.0,0.0,0.0,-0.8234,0.0,0.0,0.0,0.0,0.0,0.0,0.0,0.0,0.0,0.0,0.0,0.0,0.0,0.0,0.0,0.0,0.0,0.0,0.0,0.0,0.0,0.0,0.0,0.0,0.0,0.0,0.0,0.0,0.0,0.0,0.0,0.0,0.0,0.0,0.0,0.0,0.0,0.0,0.0,0.0,0.0,0.0,0.0,0.0,0.0,0.0,0.0,0.0,0.0,0.0,0.0,0.0,0.0,0.0,0.0,0.0,-0.0186,-0.0374,-0.0385,0.0,0.0,0.0,0.0,0.0,0.0,0.0,0.0,0.0,0.0,0.0,0.0,0.0,0.0,0.0,0.0,0.0,0.0,0.0,0.0,0.0,0.0,0.0,0.0,0.0,0.0,0.0,0.0,0.0,0.0,0.0,0.0,0.0,0.0,0.0,0.0,0.0,0.0,0.0,0.0,0.0,0.0,0.0,0.0,0.0,0.0,-0.7553,-0.7106,0.0,0.0,0.0,0.0,0.0,0.0,0.0,0.0,-0.8565,0.0,0.0,0.0,0.0,0.0,0.0,0.0,0.0,0.0,0.0,0.0,0.0,0.0,0.0,0.0,0.0,0.0,0.0,0.0,0.0,0.0,0.0,0.0,0.0,0.0,0.0,0.0,0.0,0.0,0.0,0.0,0.0,0.0,0.0,0.0,0.0,0.0,0.0,0.0,0.0,0.0,0.0,0.0,0.0,0.0,0.0,0.0,0.0,0.0,0.0,0.0,0.0,0.0,0.0,0.0,-0.1294,-0.0382,0.0,0.0,0.0,0.0,0.0,0.0,0.0,0.0,0.0,0.0,0.0,0.0,0.0,0.0,0.0,0.0,0.0,0.0,0.0,0.0,0.0,0.0,0.0,0.0,0.0,0.0,0.0,0.0,0.0,0.0,0.0,0.0,0.0,0.0,0.0,0.0,0.0,0.0,0.0,0.0,0.0,0.0,0.0,0.0,0.0,0.0,0.0,-0.7432,-0.7999,-0.9036,0.0,0.0,0.0,0.0,0.0,0.0,-0.8982,-0.882,0.0,0.0,0.0,0.0,0.0,0.0,0.0,0.0,0.0,0.0,0.0,0.0,0.0,0.0,0.0,0.0,0.0,0.0,0.0,0.0,0.0,0.0,0.0,0.0,0.0,0.0,0.0,0.0,0.0,0.0,0.0,0.0,0.0,0.0,0.0,0.0,0.0,0.0,0.0,0.0,0.0,0.0,0.0,0.0,0.0,0.0,0.0,0.0,0.0,0.0,0.0,0.0,0.0,0.0,0.0,-0.1836,-0.0969,-0.0402,0.0,0.0,0.0,0.0,0.0,-0.0193,0.0,0.0,0.0,0.0,0.0,0.0,0.0,0.0,0.0,0.0,0.0,0.0,0.0,0.0,0.0,0.0,0.0,0.0,0.0,0.0,0.0,0.0,0.0,0.0,0.0,0.0,0.0,0.0,0.0,0.0,0.0,0.0,0.0,0.0,0.0,0.0,0.0,0.0,0.0,0.0,0.0,-0.8906,-0.9587,-0.9108,0.0,0.0,0.0,0.0,-0.9604,-0.9483,0.0,0.0,0.0,0.0,0.0,0.0,0.0,0.0,0.0,0.0,0.0,0.0,0.0,0.0,0.0,0.0,0.0,0.0,0.0,0.0,0.0,0.0,0.0,0.0,0.0,0.0,0.0,0.0,0.0,0.0,0.0,0.0,0.0,0.0,0.0,0.0,0.0,0.0,0.0,0.0,0.0,0.0,0.0,0.0,0.0,0.0,0.0,0.0,0.0,0.0,0.0,0.0,0.0,0.0,0.0,0.0,-0.0375,-0.1756,-0.1615,0.0,0.0,0.0,0.0,0.0,-0.0768,0.0,0.0,0.0,0.0,0.0,0.0,0.0,0.0,0.0,0.0,0.0,0.0,0.0,0.0,0.0,0.0,0.0,0.0,0.0,0.0,0.0,0.0,0.0,0.0,0.0,0.0,0.0,0.0,0.0,0.0,0.0,0.0,0.0,0.0,0.0,0.0,0.0,0.0,0.0,0.0,0.0,-0.8342,-0.9693,-0.9065,-0.8444,0.0,0.0,-1.0088,-1.013,-1.0702,0.0,0.0,0.0,0.0,0.0,0.0,0.0,0.0,0.0,0.0,0.0,0.0,0.0,0.0,0.0,0.0,0.0,0.0,0.0,0.0,0.0,0.0,0.0,0.0,0.0,0.0,0.0,0.0,0.0,0.0,0.0,0.0,0.0,0.0,0.0,0.0,0.0,0.0,0.0,0.0,0.0,0.0,0.0,0.0,0.0,0.0,0.0,0.0,0.0,0.0,0.0,0.0,0.0,0.0,0.0,0.0,0.0,-0.0798,-0.0827,0.0,0.0,0.0,0.0,0.0,-0.0385,0.0,0.0,0.0,0.0,0.0,0.0,0.0,0.0,0.0,0.0,0.0,0.0,0.0,0.0,0.0,0.0,0.0,0.0,0.0,0.0,0.0,0.0,0.0,0.0,0.0,0.0,0.0,0.0,0.0,0.0,0.0,0.0,0.0,0.0,0.0,0.0,0.0,0.0,0.0,0.0,0.0,0.0,-0.9392,-0.9335,0.0,0.0,0.0,-0.9617,-1.0296,0.0,0.0,0.0,0.0,0.0,0.0,0.0,0.0,0.0,0.0,0.0,0.0,0.0,0.0,0.0,0.0,0.0,0.0,0.0,0.0,0.0,0.0,0.0,0.0,0.0,0.0,0.0,0.0,0.0,0.0,0.0,0.0,0.0,0.0,0.0,0.0,0.0,0.0,0.0,0.0,0.0,0.0,0.0,0.0,0.0,0.0,0.0,0.0,0.0,0.0,0.0,0.0,0.0,0.0,0.0,0.0,0.0,0.0,0.0,0.0,0.0,0.0,0.0,0.0,0.0,0.0,0.0,0.0,0.0,0.0,0.0,0.0,0.0,0.0,0.0,0.0,0.0,0.0,0.0,0.0,0.0,0.0,0.0,0.0,0.0,0.0,0.0,0.0,0.0,0.0,0.0,0.0,-0.7344,0.0,0.0,0.0,0.0,0.0,0.0,0.0,0.0,0.0,0.0,0.0,0.0,0.0,0.0,-0.9955,-0.9032,-0.9382,-0.9788,0.0,0.0,-0.8969,-1.0053,-1.1694,-1.2112,0.0,0.0,0.0,0.0,0.0,0.0,0.0,0.0,0.0,0.0,0.0,0.0,0.0,0.0,0.0,0.0,0.0,0.0,0.0,0.0,0.0,0.0,0.0,0.0,0.0,0.0,0.0,0.0,0.0,0.0,0.0,0.0,0.0,0.0,0.0,0.0,0.0,0.0,0.0,0.0,0.0,0.0,0.0,0.0,0.0,0.0,0.0,0.0,0.0,0.0,0.0,0.0,0.0,0.0,0.0,0.0,0.0,0.0,0.0,0.0,0.0,0.0,0.0,-0.0799,0.0,0.0,0.0,0.0,0.0,0.0,0.0,0.0,0.0,0.0,0.0,0.0,0.0,0.0,0.0,0.0,0.0,0.0,0.0,0.0,0.0,0.0,0.0,0.0,0.0,0.0,0.0,0.0,0.0,0.0,0.0,0.0,0.0,0.0,0.0,0.0,0.0,0.0,0.0,0.0,0.0,-0.9853,-0.8864,-0.9313,-0.9996,0.0,-0.9479,-0.9032,-0.9179,-1.1212,-1.2363,-1.0633,0.0,0.0,0.0,0.0,0.0,0.0,0.0,0.0,0.0,0.0,0.0,0.0,0.0,0.0,0.0,0.0,0.0,0.0,0.0,0.0,0.0,0.0,0.0,0.0,0.0,0.0,0.0,0.0,0.0,0.0,0.0,0.0,0.0,0.0,0.0,0.0,0.0,0.0,0.0,0.0,0.0,0.0,0.0,0.0,0.0,0.0,0.0,0.0,0.0,0.0,0.0,0.0,0.0,0.0,0.0,0.0,0.0,0.0,0.0,0.0,0.0,0.0,-0.0402,0.0,0.0,0.0,0.0,0.0,0.0,0.0,0.0,0.0,0.0,0.0,0.0,0.0,0.0,0.0,0.0,0.0,0.0,0.0,0.0,0.0,0.0,0.0,0.0,0.0,0.0,0.0,0.0,-0.8848,-0.8924,-0.8277,0.0,0.0,0.0,0.0,0.0,0.0,0.0,0.0,0.0,0.0,-0.8708,-0.892,-0.8207,0.0,0.0,-0.8277,-0.7265,-0.9056,-0.9928,-1.0413,-0.973,-0.8977,0.0,0.0,0.0,0.0,0.0,0.0,0.0,0.0,0.0,0.0,0.0,0.0,0.0,0.0,0.0,0.0,0.0,0.0,0.0,0.0,0.0,0.0,0.0,0.0,0.0,0.0,0.0,0.0,0.0,0.0,0.0,0.0,0.0,0.0,0.0,0.0,0.0,0.0,0.0,0.0,0.0,0.0,0.0,0.0,0.0,0.0,0.0,0.0,0.0,0.0,0.0,0.0,0.0,0.0,0.0,0.0,0.0,0.0,0.0,0.0,0.0,0.0204,0.0,0.0,0.0,0.0,0.0,0.0,0.0,0.0,0.0,0.0,0.0,0.0,0.0,0.0,0.0,0.0,0.0,0.0,0.0,0.0,0.0,0.0,0.0,0.0,0.0,0.0,0.0,0.0,-0.8565,-0.8569,-0.8352,0.0,0.0,0.0,0.0,0.0,0.0,0.0,0.0,0.0,0.0,-0.698,-0.7502,-0.6936,-0.7137,-0.9132,-0.7879,-0.7443,-0.9994,-0.8856,-0.7816,-0.7944,0.0,0.0,0.0,0.0,0.0,0.0,0.0,0.0,0.0,0.0,0.0,0.0,0.0,0.0,0.0,0.0,0.0,0.0,0.0,0.0,0.0,0.0,0.0,0.0,0.0,0.0,0.0,-0.2395,0.0,0.0,0.0,0.0,0.0,0.0,0.0,0.0,0.0,0.0,0.0,0.0,0.0,0.0,0.0,0.0,0.0,0.0,0.0,0.0,0.0,0.0,0.0,0.0,0.0,0.0,0.0,0.0,0.0,0.0,0.0,0.0,0.0,0.0,0.0838,0.2626,0.0,0.0,0.0,0.0,0.0,0.0,0.0,0.0,0.0,0.0,0.0,0.0,0.0,0.0,0.0,0.0,0.0,0.0,0.0,0.0,0.0,0.0,0.0,0.0,0.0,0.0,-0.606,-0.6717,-0.7495,0.0,0.0,0.0,0.0,0.0,0.0,0.0,0.0,0.0,-0.537,-0.4681,-0.423,-0.4397,-0.5339,-0.6487,-0.7259,-0.8267,-1.0082,-1.2389,-0.8248,-0.4785,0.0,0.0,0.0,0.0,0.0,0.0,0.0,0.0,0.0,0.0,0.0,0.0,0.0,0.0,0.0,0.0,0.0,0.0,0.0,0.0,0.0,0.0,0.0,0.0,0.0,0.0,0.0,-0.0337,-0.0837,0.0,0.0,0.0,0.0,0.0,0.0,0.0,0.0,0.0,0.0,0.0,0.33,0.3904,0.0,0.0,0.0,0.0,0.0,0.0,0.0,0.0,0.0,0.0,0.0,0.0,0.0,0.0,0.0,0.0,0.0,0.0,0.0,0.0,0.0,0.0213,0.103,0.0,0.0,0.0,0.0,0.0,0.0,0.0,0.0,0.0,0.0,0.0,0.0,0.0,0.0,0.0,0.0,0.0,0.0,0.0,0.0,0.0,0.0,0.0,0.0,0.0,-0.7537,0.0,0.0,0.0,0.0,0.0,0.0,0.0,0.0,0.0,0.0,0.0,-0.3988,-0.4473,-0.3793,-0.2883,-0.1554,-0.2917,-0.4481,0.0,0.0,0.0,0.0,0.0,0.0,0.0,0.0,0.0,0.0,0.0,0.0,0.0,0.0,-0.7127,-0.6935,-0.8313,-0.9426,-0.9074,0.0,0.0,0.0,0.0,0.0,0.0,0.0,0.0,0.0,0.0,0.0,0.0,0.0,0.0,0.0178,0.0528,0.1049,0.0,0.0,0.0,0.0,0.0,0.0,0.0,0.0,0.3943,0.4412,0.3472,0.332,0.3924,0.4889,0.481,0.3542,0.0,0.0,0.0,0.0,0.0,0.0,0.0,0.0,0.0,0.0,0.0,0.0,0.0,0.0,0.0,0.0,0.0,0.0,0.0,0.0,-0.059,0.0,0.0,0.0,0.0,0.0,0.0,0.0,0.0,0.0,0.0,0.0,0.0,0.0,0.0,0.0,0.0,0.0,0.0,0.0,0.0,0.0,0.0,0.0,-0.7047,0.0,0.0,0.0,0.0,0.0,0.0,0.0,0.0,0.0,-0.3691,-0.2536,-0.2428,-0.3632,-0.3279,-0.2521,-0.1166,0.0,0.0,0.0,0.0,0.0,0.0,0.0,-0.4676,-0.4134,-0.4834,-0.6092,-0.7799,-0.8523,-0.8603,-0.8465,0.0,0.0,-0.7978,-0.9225,-1.0383,-1.0011,-0.983,-0.9848,-0.9913,-0.9582,-0.9442,0.0,0.0,0.0,0.0,0.3286,0.0,0.0,0.0,0.0567,0.0749,0.0,0.2784,0.0,0.0,0.0,0.0,0.3201,0.3322,0.0,0.0,0.2422,0.3288,0.3439,0.3437,0.3454,0.3273,0.4389,0.4331,0.3337,0.2297,0.0,0.0,0.0,0.0,0.0,0.0,0.0,0.0,0.0,0.0,0.0,0.0,0.0,0.0,0.0,0.0,0.0,0.0,0.0,0.0,-0.1729,0.0,0.0,0.0,0.0,0.0,0.0,0.0,0.0,0.0,0.0,0.0,0.0,0.0,0.0,0.0,0.0,0.0,0.0,0.0,0.0,-0.5329,0.0,0.0,0.0,0.0,0.0,0.0,0.0,0.0,0.0,0.0,-0.0361,0.0,-0.0575,-0.2709,0.0,0.0,0.0,0.0,-0.077,-0.2648,-0.4489,-0.56,-0.5659,-0.4181,-0.3642,-0.5229,0.0,0.0,-1.0271,-0.9743,-0.8943,-0.87,-0.97,-1.0045,-0.8428,-0.8888,-0.9407,-0.9403,-0.9594,-0.9398,-0.9215,-0.9105,-0.8394,0.1921,0.0,0.0,0.0,0.0,0.3047,0.3292,0.2982,0.2578,0.2561,0.2928,0.3295,0.0,0.0,0.0,0.0,0.0,0.0,0.31,0.2561,0.3043,0.3302,0.3328,0.335,0.3365,0.3371,0.3765,0.3333,0.2292,0.2705,0.28,0.2402,0.0,0.0,0.0,0.0,0.164,0.0,0.0,0.0,0.0,0.0,0.0,0.0,0.0,0.0,0.0,0.0,0.0,0.0,-0.0409,0.0,0.0,0.0,0.0,0.0,0.0,0.0,0.0,0.0,0.0,0.0,0.0,0.0,0.0,0.0,0.0,0.0,0.0,0.0,-0.3412,-0.2932,-0.293,0.0,0.0,0.0,0.0,0.0,0.0,0.0,0.0,0.0,0.1546,0.2329,0.1172,0.0,0.0,-0.0197,-0.0779,-0.0785,-0.079,-0.0792,-0.2569,0.0,-0.3796,-0.218,-0.158,-0.3389,-0.5811,-0.7828,-0.8783,-1.0396,-1.1595,-1.1496,-1.1982,-1.2033,-1.154,-1.1678,-1.1839,-1.1844,-1.1844,-1.1844,-1.1849,-1.1673,-1.1486,0.2791,0.2353,0.2326,0.2334,0.2363,0.3152,0.3404,0.3287,0.3287,0.3481,0.3463,0.3456,0.3397,0.3298,0.2679,0.0,0.0,0.0,0.3408,0.3483,0.3313,0.335,0.3384,0.3404,0.3411,0.3411,0.3411,0.2991,0.2357,0.3435,0.3757,0.3346,0.0,0.0786,0.1376,0.2859,0.2949,0.1508,0.1105,0.0449,0.0,0.0,0.0,0.0,0.0,0.0,0.0,0.0,0.0,0.0,0.0,-0.0616,0.0,0.0,0.0,0.0,0.0,0.0,0.0,0.0,0.0,0.0,0.0,-0.2543,-0.2449,0.0,0.0,0.0,-0.1084,-0.0555,-0.1132,-0.0945,0.0,0.0,0.0,0.0,0.0,0.0,0.0,-0.284,-0.2339,-0.0797,0.2614,0.3208,0.2402,0.0201,-0.1203,-0.1196,0.0993,0.0,0.0605,0.0,-0.1012,-0.1825,-0.1841,-0.0812,-0.0404,-0.163,-0.3468,-0.5505,-0.714,-0.8974,-1.0202,-1.0405,-1.0405,-1.0401,-1.0392,-1.1619,-1.3009,-1.2912,-1.289,-1.289,-1.289,-1.289,-1.289,0.3279,0.3272,0.3191,0.3191,0.3243,0.3247,0.3294,0.3369,0.3369,0.337,0.3371,0.34,0.3336,0.3404,0.3344,0.0,0.3287,0.3287,0.333,0.3411,0.3411,0.3411,0.3412,0.3415,0.3415,0.3415,0.3418,0.3434,0.3459,0.4081,0.4063,0.3631,0.2332,0.2302,0.3295,0.3582,0.3662,0.3728,0.2691,0.1367,0.0,0.023,0.0229,0.0,0.0,0.0,0.0,0.0,0.0,0.0,0.0,0.0,0.0,0.0,0.0,0.0,0.0,0.0,0.0,0.0,0.0,0.0,0.0,0.0,0.0,0.0,0.0,0.0,0.0573,0.0,0.1794,0.0974,0.0,0.0,0.0,-0.2809,-0.3634,-0.2339,-0.2168,-0.4536,0.0,0.0,0.3078,0.308,0.3081,0.3084,-0.2053,-0.3682,0.1825,0.2858,0.2464,0.0616,0.0,0.0,0.0,0.0,0.0,0.0,0.0,0.0,-0.4763,-0.5792,-0.5795,-0.5997,-0.5795,-0.6206,-0.6415,-0.9942,-1.2816,-1.2362,-1.2727,-1.2928,-1.2944,-1.2944,-1.2944,0.331,0.3309,0.3287,0.33,0.3336,0.3359,0.3382,0.3401,0.3401,0.3401,0.3401,0.341,0.3392,0.3358,0.3344,0.3352,0.338,0.338,0.339,0.3411,0.3411,0.3411,0.3412,0.3435,0.3446,0.3448,0.3469,0.3484,0.3493,0.3725,0.3938,0.4352,0.3494,0.3245,0.3596,0.4278,0.4576,0.3792,0.3365,0.3173,0.2989,0.2991,0.2527,0.1376,0.0459,0.0,0.0,0.0,0.0,0.0,0.0,0.0,0.0,0.0,0.0,0.0,0.0,0.0,0.0,0.0,0.0,0.0,0.0,-0.1959,-0.067,0.0,-0.2573,0.0,-0.1968,-0.0408,0.2443,0.2613,0.0,0.0,-0.0971,-0.1161,0.0,-0.141,-0.1623,0.0811,0.0824,0.146,0.2926,0.1672,0.1048,0.1898,0.0626,-0.062,-0.1238,0.1247,0.2927,0.2301,0.1049,0.0,0.0,0.0,0.0,0.0,0.0,0.0,0.0,-0.1459,-0.1452,-0.1452,-0.1452,-0.2696,-0.5602,-0.9971,-1.1212,-0.906,-1.0501,-1.3,-1.3,-1.2984,-1.2979,0.336,0.3363,0.3375,0.3392,0.3405,0.3381,0.338,0.339,0.3392,0.3399,0.3411,0.3411,0.3411,0.3411,0.3411,0.3419,0.3431,0.3431,0.344,0.3452,0.3453,0.3452,0.3453,0.3469,0.3478,0.3479,0.3508,0.3528,0.3543,0.357,0.3808,0.4252,0.4272,0.4468,0.5051,0.5669,0.57,0.5131,0.4286,0.3659,0.3718,0.3722,0.3465,0.2732,0.2048,0.1803,0.1768,0.1547,0.088,0.0,0.0,0.0,0.0,0.0,0.0389,0.0,0.0,0.0,0.0,0.0,0.0,0.0,0.0,0.0,0.0,0.0,-0.019,-0.0,-0.1001,-0.0825,0.1013,0.1819,0.2023,0.142,0.1006,0.0807,0.0826,-0.0624,-0.0834,0.146,0.0631,0.0423,0.1481,0.0846,0.0212,0.0857,0.085,0.0211,-0.1268,0.0424,0.1705,0.1712,0.086,0.0,0.0,0.0,0.0,0.0,0.0,0.0,0.0,0.0,0.0,0.0,0.0,0.0,-0.3186,-0.5313,-0.6589,-0.7223,-0.8289,-0.9725,-0.9991,-1.0153,-1.0566,0.3423,0.3426,0.3452,0.3463,0.3457,0.3378,0.3359,0.3384,0.3384,0.3399,0.3423,0.3423,0.3423,0.3423,0.3423,0.3438,0.3463,0.3463,0.3478,0.3502,0.3506,0.3508,0.3508,0.3516,0.352,0.3521,0.3549,0.3576,0.3602,0.3628,0.3652,0.3904,0.4595,0.5493,0.6579,0.6441,0.6392,0.6663,0.4775,0.3707,0.3759,0.3986,0.3928,0.3594,0.3809,0.3753,0.3851,0.3845,0.2552,0.0633,0.0,0.0,0.0,0.02,0.1173,0.0,0.3156,0.0,0.0,0.0,0.0,0.0,0.0,0.0,0.0,0.1173,0.2945,0.2732,0.1014,-0.0412,-0.1208,0.0405,0.1638,0.2496,0.2709,0.1887,0.0213,0.0,0.0,0.0,0.0,0.0,0.0,0.0,0.0,0.0,0.0,0.0,0.0,0.0,0.0,0.0,0.0,0.0,0.0,0.0,0.0,0.0,0.0,0.0,0.0,0.0,0.0,0.0,0.0,0.0,0.0,0.0,0.0,-0.4587,-0.546,-0.5625,-0.5692,-0.5646,-0.7087,0.3484,0.3486,0.3491,0.3494,0.3493,0.3475,0.3471,0.3476,0.3476,0.348,0.3486,0.3486,0.3486,0.3486,0.3486,0.3489,0.3494,0.3494,0.3497,0.3504,0.3525,0.3536,0.3762,0.3587,0.361,0.3611,0.364,0.3658,0.3663,0.367,0.3892,0.4328,0.4099,0.4536,0.5397,0.0,0.0,0.0,0.433,0.3686,0.3696,0.4563,0.4728,0.4223,0.3775,0.0,0.4745,0.5603,0.4935,0.2766,0.085,0.0,0.0,0.0,0.0,0.0,0.0,0.0,0.0,0.0,0.0,0.0,0.1614,0.2389,0.2135,0.2557,0.2198,0.081,0.0206,-0.0,-0.021,0.0,0.0423,0.0636,0.0,0.0425,0.0,0.0,0.0,0.0,0.0,0.0,0.0,0.0,0.0,0.0,0.0,0.0,0.0,0.0,0.0,0.0,0.0,0.0,0.0,0.0,0.0,0.0,0.0,0.0,0.0,0.0,0.0,0.0,0.0,0.0,0.0,0.0,0.0,0.0,0.0,-0.131,-0.1301,0.0,-0.2593,0.3546,0.3546,0.3546,0.3546,0.0,0.3546,0.3546,0.3543,0.3514,0.3502,0.3504,0.3504,0.3504,0.3504,0.3504,0.351,0.3524,0.3523,0.3539,0.3568,0.3583,0.3598,0.3838,0.3644,0.3658,0.3658,0.3673,0.3689,0.3703,0.3704,0.3934,0.4165,0.3934,0.3925,0.46,0.4154,0.4139,0.4996,0.4122,0.3694,0.3723,0.4158,0.4565,0.4491,0.4488,0.0,0.0,0.0,0.0,0.0,0.0,0.0,0.0,0.1487,0.0,0.1472,0.1655,0.2055,0.2902,0.2075,0.1046,0.0213,0.1061,0.2089,0.3035,0.2044,0.1034,0.0,0.0,0.0,0.0,0.0,0.0,0.0,0.0,0.0,0.0,0.0,0.0,0.0,0.0,0.0,0.0,0.0,0.0,0.0,0.0,0.0,0.0,0.0,0.0,0.0,0.0,0.0,0.0,0.0,0.0,0.0,0.0,0.0,0.0,0.0,0.0,0.0,0.0,0.0,0.0,0.0,0.0,0.0,0.0,0.0,0.0,0.0,0.0,0.3606,0.3606,0.3606,0.3606,0.3606,0.3606,0.3606,0.3602,0.3543,0.0,0.0,0.3517,0.3519,0.3519,0.3523,0.3539,0.3561,0.3566,0.3596,0.3643,0.3649,0.3664,0.3689,0.3925,0.3697,0.3697,0.3696,0.3709,0.3733,0.3734,0.3749,0.3776,0.3779,0.3782,0.3788,0.3812,0.4024,0.4413,0.3934,0.372,0.3769,0.3761,0.3947,0.4537,0.4989,0.4933,0.4818,0.5031,0.4578,0.3897,0.368,0.3459,0.3228,0.1291,0.0,0.0,0.0,0.0646,0.2401,0.2619,0.1753,0.0222,0.0,0.0652,0.2334,0.1066,0.0,0.0,0.0,0.0,0.0,0.0,0.0,0.0,0.0,0.0,0.0,0.0,0.0,0.0,0.0,0.0,0.0,0.0,0.0,0.0,0.0,0.0,0.0,0.0,0.0,0.0,0.0,0.0,0.0,0.0,0.0,0.0,0.0,0.0,0.0,0.0,0.0,0.0,0.0,0.0,0.0,0.0,0.0,0.0,0.0,0.0,0.0,0.0,0.0,0.3667,0.3669,0.3669,0.3669,0.3667,0.3669,0.3669,0.3663,0.3604,0.3577,0.3577,0.3577,0.3577,0.3579,0.3606,0.3619,0.3625,0.3649,0.3666,0.3675,0.3701,0.3716,0.3722,0.3746,0.3759,0.3759,0.3759,0.3761,0.3764,0.3765,0.378,0.3808,0.381,0.3823,0.3844,0.3851,0.3847,0.4073,0.3784,0.3763,0.3771,0.372,0.3892,0.3825,0.4498,0.4903,0.5035,0.4817,0.4372,0.3929,0.4149,0.4175,0.3338,0.1336,0.0,0.0,0.0,0.0228,0.0,0.0,0.0225,0.0,0.0,0.022,0.0436,0.0218,0.0,0.0,0.0,0.0,0.0,0.0,0.0,0.0,0.0,0.0,0.0,0.0,0.0,0.0,0.0,0.0,0.0,0.0,0.0,0.0,0.0,0.0,0.0,0.0,0.0,0.0,0.0,0.0,0.0,0.0,0.0,0.0,0.0,0.0,0.0,0.0,0.0,0.0,0.0,0.0,0.0,0.0,0.0,0.0,0.0,0.0,0.0,0.0,0.0,0.3656,0.3658,0.3674,0.3681,0.3681,0.3681,0.3681,0.3678,0.3652,0.3639,0.3639,0.3639,0.364,0.364,0.3654,0.366,0.3662,0.3674,0.3689,0.3705,0.372,0.3735,0.375,0.3765,0.3772,0.3772,0.3772,0.3779,0.3795,0.3795,0.381,0.3838,0.384,0.3854,0.3881,0.3883,0.3892,0.3906,0.3848,0.3818,0.3818,0.3791,0.3764,0.3735,0.4202,0.4188,0.439,0.4371,0.4131,0.3901,0.4113,0.4118,0.3686,0.2536,0.2077,0.2083,0.0694,0.0,0.0,0.0,0.0,0.0,0.0,0.0,0.0,0.0,0.0,0.0,0.0,0.0,0.0,0.0,0.0,0.0,0.0,0.0,0.0,0.0,0.0,0.0,0.0,0.0,0.0,0.0,0.0,0.0,0.0,0.0,0.0,0.0,0.0,0.0,0.0,0.0,0.0,0.0,0.0,0.0,0.0,0.0,0.0,0.0,0.0,0.0,0.0,0.0,0.0,0.0,0.0,0.0,0.0,0.0,0.0,0.0,0.0,0.3666,0.3669,0.3692,0.3701,0.3701,0.3701,0.3701,0.3701,0.3701,0.3701,0.37,0.3688,0.3681,0.3681,0.3688,0.369,0.3692,0.3699,0.3714,0.3735,0.3737,0.3749,0.3771,0.3778,0.3782,0.3783,0.3787,0.3803,0.3824,0.3825,0.384,0.3868,0.3876,0.3891,0.3914,0.3914,0.3926,0.3945,0.3903,0.3878,0.3878,0.3878,0.3876,0.3869,0.3868,0.3866,0.3858,0.3838,0.3827,0.3825,0.3798,0.3782,0.3782,0.3775,0.3761,0.3739,0.1867,0.0465,0.0,0.0,0.0,0.0,0.0,0.0,0.0,0.0,0.0,0.0,0.0,0.0,0.0,0.0,0.0,0.0,0.0,0.0,0.0,0.0,0.0,0.0,0.0,0.0,0.0,0.0,0.0,0.0,0.0,0.0,0.0,0.0,0.0,0.0,0.0,0.0,0.0,0.0,0.0,0.0,0.0,0.0,0.0,0.0,0.0,0.0,0.0,0.0,0.0,0.0,0.0,0.0,0.0,0.0,0.0,0.0,0.0,0.3757,0.376,0.3759,0.3764,0.3761,0.3761,0.3761,0.3761,0.3763,0.3763,0.3754,0.3705,0.3682,0.3685,0.3711,0.3722,0.3724,0.375,0.3764,0.3765,0.3767,0.3768,0.3775,0.3799,0.3813,0.3814,0.3836,0.3848,0.3855,0.3857,0.3872,0.39,0.3928,0.3941,0.3945,0.3947,0.3948,0.3949,0.3944,0.3941,0.3941,0.3941,0.3928,0.39,0.39,0.3887,0.3865,0.3857,0.3855,0.3853,0.3828,0.3813,0.381,0.3787,0.3771,0.3768,0.3531,0.258,0.0,0.0,0.0,0.0,0.0,0.0,0.0,0.0,0.0,0.0,0.0,0.0,0.0,0.0,0.0,0.0,0.0,0.0,0.0,0.0,0.0,0.0,0.0,0.0,0.0,0.0,0.0,0.0,0.0,0.0,0.0,0.0,0.0,0.0,0.0,0.0,0.0,0.0,0.0,0.0,0.0,0.0,0.0,0.0,0.0,0.0,0.0,0.0,0.0,0.0,0.0,0.0,0.0,0.0,0.0,0.0,0.0,0.3744,0.3746,0.3764,0.3772,0.3772,0.3772,0.3772,0.3772,0.3772,0.3772,0.3769,0.3745,0.3735,0.3735,0.3748,0.3753,0.3753,0.3767,0.3772,0.3772,0.3772,0.3772,0.3775,0.3803,0.3817,0.3818,0.3846,0.3868,0.3887,0.3903,0.3919,0.3933,0.3962,0.3977,0.3978,0.3994,0.4003,0.4003,0.4003,0.4003,0.4001,0.3985,0.397,0.396,0.3958,0.3944,0.3914,0.3895,0.3885,0.3884,0.3858,0.3842,0.3842,0.3814,0.3798,0.3797,0.3782,0.3295,0.2346,0.0938,0.0,0.0,0.0,0.0,0.0,0.0,0.0,0.0,0.0,0.0,0.0,0.0,0.0,0.0,0.0,0.0,0.0,0.0,0.0,0.0,0.0,0.0,0.0,0.0,0.0,0.0,0.0,0.0,0.0,0.0,0.0,0.0,0.0,0.0,0.0,0.0,0.0,0.0,0.0,0.0,0.0,0.0,0.0,0.0,0.0,0.0,0.0,0.0,0.0,0.0,0.0,0.0,0.0,0.0,0.0,0.3738,0.3742,0.3763,0.3772,0.3772,0.3772,0.3772,0.3772,0.3772,0.3772,0.3772,0.3772,0.3772,0.3772,0.3772,0.3772,0.3772,0.3772,0.3772,0.3772,0.3772,0.3776,0.3786,0.3814,0.3833,0.3844,0.3872,0.3896,0.3918,0.3947,0.3962,0.3966,0.3993,0.4007,0.4009,0.4031,0.4041,0.4039,0.4041,0.4043,0.4048,0.4031,0.4016,0.4008,0.3998,0.3983,0.3963,0.3933,0.3917,0.3917,0.3888,0.3872,0.387,0.3844,0.3828,0.3825,0.3801,0.3784,0.3783,0.2124,0.0707,0.0,0.0,0.0,0.0,0.0,0.0,0.0,0.0,0.0,0.0,0.0,0.0,0.0,0.0,0.0,0.0,0.0,0.0,0.0,0.0,0.0,0.0,0.0,0.0,0.0,0.0,0.0,0.0,0.0,0.0,0.0,0.0,0.0,0.0,0.0,0.0,0.0,0.0,0.0,0.0,0.0,0.0,0.0,0.0,0.0,0.0,0.0,0.0,0.0,0.0,0.0,0.0,0.0,0.0,0.3769,0.3769,0.3771,0.3772,0.3772,0.3772,0.3772,0.3772,0.3772,0.3772,0.3772,0.3772,0.3772,0.3772,0.3772,0.3772,0.3772,0.3772,0.3772,0.3772,0.3772,0.3787,0.3816,0.3844,0.3872,0.3893,0.3926,0.3945,0.3951,0.3978,0.3993,0.3994,0.4023,0.4038,0.4039,0.4043,0.4042,0.4048,0.4048,0.4056,0.4079,0.4082,0.4067,0.4042,0.4012,0.3997,0.3989,0.3964,0.3948,0.3947,0.3918,0.3902,0.39,0.3874,0.3857,0.3853,0.3829,0.3814,0.3812,0.3554,0.2595,0.0,0.0,0.0,0.0,0.0,0.0,0.0,0.0,0.0,0.0,0.0,0.0,0.0,0.0,0.0,0.0,0.0,0.0,0.0,0.0,0.0,0.0,0.0,0.0,0.0,0.0,0.0,0.0,0.0,0.0,0.0,0.0,0.0,0.0,0.0,0.0,0.0,0.0,0.0,0.0,0.0,0.0,0.0,0.0,0.0,0.0,0.0,0.0,0.0,0.0,0.0,0.0,0.0,0.0,0.3772,0.3772,0.3772,0.3772,0.3772,0.3772,0.3772,0.3772,0.3772,0.3772,0.3772,0.3772,0.3772,0.3772,0.3772,0.3772,0.3772,0.3772,0.3772,0.3772,0.3772,0.3787,0.3818,0.3846,0.3876,0.3908,0.3955,0.3989,0.4008,0.4019,0.4024,0.4028,0.4054,0.4069,0.4072,0.409,0.4098,0.4098,0.4098,0.4105,0.4113,0.4114,0.4109,0.4098,0.4069,0.4034,0.3996,0.3983,0.397,0.3951,0.3938,0.3933,0.393,0.3904,0.3878,0.3861,0.385,0.3844,0.3843,0.3836,0.3582,0.2613,0.1662,0.1185,0.118,0.0,0.0,0.0,0.0,0.0,0.0,0.0,0.0,0.0,0.0,0.0,0.0,0.0,0.0,0.0,0.0,0.0,0.0,0.0,0.0,0.0,0.0,0.0,0.0,0.0,0.0,0.0,0.0,0.0,0.0,0.0,0.0,0.0,0.0,0.0,0.0,0.0,0.0,0.0,0.0,0.0,0.0,0.0,0.0,0.0,0.0,0.0,0.0,0.0,0.0,0.3799,0.3799,0.3799,0.3801,0.3801,0.3799,0.3799,0.3799,0.3799,0.3799,0.3799,0.3799,0.3801,0.3799,0.3801,0.3801,0.3798,0.3791,0.3786,0.3787,0.3795,0.3816,0.3846,0.3874,0.3904,0.3937,0.3985,0.4022,0.4039,0.405,0.4054,0.4057,0.4084,0.4101,0.4105,0.4121,0.4131,0.4131,0.4131,0.4131,0.4131,0.4131,0.4131,0.4128,0.4112,0.4078,0.4027,0.4015,0.4001,0.3982,0.3979,0.3974,0.3963,0.3936,0.391,0.3891,0.3878,0.3874,0.3872,0.3866,0.3853,0.3835,0.3113,0.2388,0.2377,0.1663,0.095,0.0,0.0,0.0,0.0,0.0,0.0,0.0,0.0,0.0,0.0,0.0,0.0,0.0,0.0,0.0,0.0,0.0,0.0,0.0,0.0,0.0,0.0,0.0,0.0,0.0,0.0,0.0,0.0,0.0,0.0,0.0,0.0,0.0,0.0,0.0,0.0,0.0,0.0,0.0,0.0,0.0,0.0,0.0,0.0,0.0,0.0,0.0,0.0,0.3857,0.3854,0.3858,0.3853,0.3851,0.3851,0.3855,0.3853,0.3854,0.385,0.3847,0.3854,0.385,0.3854,0.3848,0.3854,0.3847,0.3831,0.382,0.3818,0.384,0.3869,0.39,0.3926,0.3962,0.3996,0.4026,0.4041,0.405,0.4073,0.4086,0.4091,0.4113,0.4125,0.4129,0.4129,0.4131,0.4131,0.4131,0.4131,0.4131,0.4131,0.4131,0.4131,0.4128,0.4113,0.4084,0.4056,0.4038,0.4035,0.4035,0.4024,0.3996,0.3966,0.3949,0.3943,0.3921,0.3906,0.3902,0.3881,0.3869,0.3862,0.3862,0.3618,0.3611,0.3371,0.2648,0.0,0.0,0.0,0.0,0.0,0.0,0.0,0.0,0.0,0.0,0.0,0.0,0.0,0.0,0.0,0.0,0.0,0.0,0.0,0.0,0.0,0.0,0.0,0.0,0.0,0.0,0.0,0.0,0.0,0.0,0.0,0.0,0.0,0.0,0.0,0.0,0.0,0.0,0.0,0.0,0.0,0.0,0.0,0.0,0.0,0.0,0.0,0.0,0.3859,0.3859,0.3859,0.3859,0.3859,0.3859,0.3859,0.3859,0.3859,0.3859,0.3859,0.3859,0.3859,0.3859,0.3859,0.3859,0.3859,0.3869,0.3866,0.3851,0.3857,0.3887,0.3929,0.3945,0.3988,0.4049,0.4067,0.4083,0.4101,0.4112,0.4117,0.412,0.4127,0.4131,0.4131,0.4131,0.4131,0.4131,0.4131,0.4131,0.4131,0.4131,0.4131,0.4131,0.4131,0.4125,0.4117,0.4088,0.4063,0.4043,0.4041,0.4035,0.4023,0.3997,0.3981,0.3978,0.3952,0.3936,0.3934,0.3926,0.3911,0.3896,0.3891,0.3881,0.3865,0.3622,0.3381,0.2414,0.0,0.0,0.0,0.0,0.0,0.0,0.0,0.0,0.0,0.0,0.0,0.0,0.0,0.0,0.0,0.0,0.0,0.0,0.0,0.0,0.0,0.0,0.0,0.0,0.0,0.0,0.0,0.0,0.0,0.0,0.0,0.0,0.0,0.0,0.0,0.0,0.0,0.0,0.0,0.0,0.0,0.0,0.0,0.0,0.0,0.0,0.0,0.3892,0.3892,0.3892,0.3892,0.3892,0.3892,0.3892,0.3893,0.3892,0.3892,0.3893,0.3893,0.3892,0.3892,0.3892,0.3892,0.3893,0.3913,0.3911,0.3895,0.3892,0.3915,0.3952,0.3975,0.4023,0.409,0.4102,0.4112,0.4129,0.4131,0.4131,0.4131,0.4131,0.4131,0.4131,0.4131,0.4131,0.4131,0.4131,0.4131,0.4131,0.4131,0.4131,0.4131,0.4131,0.4131,0.4131,0.4112,0.4094,0.4075,0.4064,0.4057,0.4054,0.403,0.4012,0.4008,0.3994,0.3979,0.3968,0.3966,0.3953,0.3928,0.3921,0.3669,0.3167,0.292,0.2434,0.1947,0.0,0.0,0.0,0.0,0.0,0.0,0.0,0.0,0.0,0.0,0.0,0.0,0.0,0.0,0.0,0.0,0.0,0.0,0.0,0.0,0.0,0.0,0.0,0.0,0.0,0.0,0.0,0.0,0.0,0.0,0.0,0.0,0.0,0.0,0.0,0.0,0.0,0.0,0.0,0.0,0.0,0.0,0.0,0.0,0.0,0.0,0.0,0.3949,0.3952,0.3949,0.3945,0.3945,0.3944,0.3943,0.3947,0.3945,0.3943,0.3944,0.394,0.3944,0.3947,0.394,0.394,0.3948,0.3944,0.3944,0.3941,0.3943,0.3949,0.3968,0.402,0.4075,0.412,0.4127,0.4129,0.4131,0.4131,0.4131,0.4131,0.4131,0.4131,0.4131,0.4131,0.4131,0.4131,0.4131,0.4131,0.4131,0.4131,0.4131,0.4131,0.4131,0.4131,0.4131,0.4127,0.4128,0.4125,0.4101,0.4088,0.4083,0.406,0.4042,0.4042,0.4041,0.4022,0.4004,0.3997,0.3986,0.3963,0.3955,0.3457,0.2467,0.1724,0.1231,0.0985,0.0493,0.0,0.0,0.0,0.0,0.0,0.0,0.0,0.0,0.0,0.0,0.0,0.0,0.0,0.0,0.0,0.0,0.0,0.0,0.0,0.0,0.0,0.0,0.0,0.0,0.0,0.0,0.0,0.0,0.0,0.0,0.0,0.0,0.0,0.0,0.0,0.0,0.0,0.0,0.0,0.0,0.0,0.0,0.0,0.0,0.0,0.0,0.3963,0.3979,0.3959,0.3949,0.3949,0.3949,0.3951,0.3951,0.3951,0.3953,0.3951,0.3949,0.3953,0.3951,0.3952,0.3949,0.3953,0.3952,0.3949,0.3949,0.3949,0.3978,0.402,0.4076,0.4113,0.4129,0.4131,0.4131,0.4131,0.4131,0.4131,0.4131,0.4131,0.4131,0.4131,0.4131,0.4131,0.4131,0.4131,0.4131,0.4131,0.4131,0.4131,0.4131,0.4131,0.4131,0.4131,0.4131,0.4131,0.4131,0.4125,0.412,0.4114,0.409,0.4073,0.4072,0.4054,0.4039,0.4031,0.4028,0.4023,0.4016,0.3993,0.3733,0.3484,0.2971,0.2964,0.2469,0.0,0.0,0.0,0.0,0.0,0.0,0.0,0.0,0.0,0.0,0.0,0.0,0.0,0.0,0.0,0.0,0.0,0.0,0.0,0.0,0.0,0.0,0.0,0.0,0.0,0.0,0.0,0.0,0.0,0.0,0.0,0.0,0.0,0.0,0.0,0.0,0.0,0.0,0.0,0.0,0.0,0.0,0.0,0.0,0.0,0.0,0.0,0.3998,0.4012,0.3994,0.3988,0.3988,0.3988,0.3988,0.3988,0.3988,0.3988,0.3988,0.3988,0.3988,0.3988,0.3989,0.3989,0.3988,0.3988,0.3989,0.3992,0.4004,0.4022,0.405,0.4091,0.4118,0.4131,0.4131,0.4131,0.4131,0.4131,0.4131,0.4131,0.4131,0.4131,0.4131,0.4131,0.4131,0.4131,0.4131,0.4131,0.4131,0.4131,0.4131,0.4131,0.4131,0.4131,0.4131,0.4131,0.4131,0.4131,0.4131,0.4131,0.4129,0.4116,0.4105,0.4103,0.4087,0.4075,0.4061,0.4058,0.4053,0.4041,0.4022,0.4016,0.4012,0.3996,0.3988,0.3492,0.2486,0.1737,0.1487,0.0742,0.0,0.0,0.0,0.0,0.0,0.0,0.0,0.0,0.0,0.0,0.0,0.0,0.0,0.0,0.0,0.0,0.0,0.0,0.0,0.0,0.0,0.0,0.0,0.0,0.0,0.0,0.0,0.0,0.0,0.0,0.0,0.0,0.0,0.0,0.0,0.0,0.0,0.0,0.0,0.0,0.0,0.0,0.0,0.429,0.4045,0.4042,0.4041,0.4038,0.4039,0.4034,0.4038,0.4034,0.4035,0.4035,0.4038,0.4031,0.4041,0.4028,0.4037,0.4037,0.4031,0.4034,0.4041,0.4056,0.4068,0.4054,0.4084,0.4112,0.4128,0.4131,0.4131,0.4131,0.4131,0.4131,0.4131,0.4131,0.4131,0.4131,0.4131,0.4131,0.4131,0.4131,0.4131,0.4131,0.4131,0.4131,0.4131,0.4131,0.4131,0.4131,0.4131,0.4131,0.4131,0.4131,0.4131,0.4131,0.4131,0.4129,0.4128,0.4122,0.4112,0.4097,0.409,0.4082,0.4061,0.4052,0.4045,0.4042,0.4035,0.403,0.4028,0.4015,0.3501,0.3248,0.174,0.0,0.0,0.0,0.0,0.0,0.0,0.0,0.0,0.0,0.0,0.0,0.0,0.0,0.0,0.0,0.0,0.0,0.0,0.0,0.0,0.0,0.0,0.0,0.0,0.0,0.0,0.0,0.0,0.0,0.0,0.0,0.0,0.0,0.0,0.0,0.0,0.0,0.0,0.0,0.0,0.0,0.0,0.0,0.579,0.4073,0.405,0.4041,0.4041,0.4041,0.4041,0.4042,0.4042,0.4046,0.4042,0.4042,0.4043,0.4042,0.4046,0.4041,0.4046,0.4046,0.4041,0.4045,0.4072,0.4082,0.4082,0.4106,0.4122,0.4131,0.4131,0.4131,0.4131,0.4131,0.4131,0.4131,0.4131,0.4131,0.4131,0.4131,0.4131,0.4131,0.4131,0.4131,0.4131,0.4131,0.4131,0.4131,0.4131,0.4131,0.4131,0.4131,0.4131,0.4131,0.4131,0.4131,0.4131,0.4131,0.4131,0.4131,0.4131,0.4127,0.4122,0.4118,0.4118,0.4106,0.4086,0.4075,0.4073,0.4054,0.4045,0.4039,0.4034,0.403,0.3774,0.2515,0.1757,0.1503,0.0,0.0,0.0,0.0,0.0,0.0,0.0,0.0,0.0,0.0,0.0,0.0,0.0,0.0,0.0,0.0,0.0,0.0,0.0,0.0,0.0,0.0,0.0,0.0,0.0,0.0,0.0,0.0,0.0,0.0,0.0,0.0,0.0,0.0,0.0,0.0,0.0,0.0,0.0,0.0,0.0,0.6615,0.4105,0.409,0.4083,0.4083,0.4083,0.4083,0.4083,0.4083,0.4083,0.4083,0.4083,0.4083,0.4083,0.4083,0.4084,0.4083,0.4083,0.4083,0.4087,0.4102,0.4107,0.4109,0.4121,0.4131,0.4131,0.4131,0.4131,0.4131,0.4131,0.4131,0.4131,0.4131,0.4131,0.4131,0.4131,0.4131,0.4131,0.4131,0.4131,0.4131,0.4131,0.4131,0.4131,0.4131,0.4131,0.4131,0.4131,0.4131,0.4131,0.4131,0.4131,0.4131,0.4131,0.4131,0.4131,0.4131,0.4131,0.4131,0.4131,0.4129,0.4131,0.4114,0.411,0.4105,0.4091,0.4084,0.4079,0.4071,0.4057,0.4042,0.3535,0.303,0.3028,0.2264,0.1506,0.0,0.0,0.0,0.0,0.0,0.0,0.0,0.0,0.0,0.0,0.0,0.0,0.0,0.0,0.0,0.0,0.0,0.0,0.0,0.0,0.0,0.0,0.0,0.0,0.0,0.0,0.0,0.0,0.0,0.0,0.0,0.0,0.0,0.0,0.0,0.0,0.0,0.0,0.0,0.7461,0.4645,0.4645,0.4387,0.4131,0.4129,0.4127,0.4128,0.4131,0.4122,0.4131,0.4131,0.4121,0.4128,0.4127,0.4129,0.4128,0.4127,0.412,0.4122,0.4124,0.4125,0.4127,0.4129,0.4131,0.4131,0.4131,0.4131,0.4131,0.4131,0.4131,0.4131,0.4131,0.4131,0.4131,0.4131,0.4131,0.4131,0.4131,0.4131,0.4131,0.4131,0.4131,0.4131,0.4131,0.4131,0.4131,0.4131,0.4131,0.4131,0.4131,0.4131,0.4131,0.4131,0.4131,0.4131,0.4131,0.4131,0.4131,0.4131,0.4131,0.4131,0.4131,0.4129,0.4128,0.4125,0.4122,0.4117,0.4105,0.4084,0.4058,0.4063,0.406,0.4056,0.4053,0.3035,0.1009,0.0,0.0,0.0,0.0,0.0,0.0,0.0,0.0,0.0,0.0,0.0,0.0,0.0,0.0,0.0,0.0,0.0,0.0,0.0,0.0,0.0,0.0,0.0,0.0,0.0,0.0,0.0,0.0,0.0,0.0,0.0,0.0,0.0,0.0,0.0,0.0,0.0,0.0,1.2015,0.7469,0.7469,0.6186,0.4389,0.4131,0.4131,0.4131,0.4131,0.4131,0.4131,0.4131,0.4131,0.4131,0.4131,0.4131,0.4131,0.4131,0.4131,0.4131,0.4131,0.4131,0.4131,0.4131,0.4131,0.4131,0.4131,0.4131,0.4131,0.4131,0.4131,0.4131,0.4131,0.4131,0.4131,0.4131,0.4131,0.4131,0.4131,0.4131,0.4131,0.4131,0.4131,0.4131,0.4131,0.4131,0.4131,0.4131,0.4131,0.4131,0.4131,0.4131,0.4131,0.4131,0.4131,0.4131,0.4131,0.4131,0.4131,0.4131,0.4131,0.4131,0.4131,0.4131,0.4131,0.4131,0.4131,0.4129,0.4127,0.4118,0.4117,0.4107,0.4113,0.4109,0.4093,0.3568,0.2289,0.0,0.0,0.0,0.0,0.0,0.0,0.0,0.0,0.0,0.0,0.0,0.0,0.0,0.0,0.0,0.0,0.0,0.0,0.0,0.0,0.0,0.0,0.0,0.0,0.0,0.0,0.0,0.0,0.0,0.0,0.0,0.0,0.0,0.0,0.0,0.0,0.0,0.0,1.4089,1.0288,0.8751,0.7469,0.6186,0.4645,0.4131,0.4131,0.4131,0.4131,0.4131,0.4131,0.4131,0.4131,0.4131,0.4131,0.4131,0.4131,0.4131,0.4131,0.4131,0.4131,0.4131,0.4131,0.4131,0.4131,0.4131,0.4131,0.4131,0.4131,0.4131,0.4131,0.4131,0.4131,0.4131,0.4131,0.4131,0.4131,0.4131,0.4131,0.4131,0.4131,0.4131,0.4131,0.4131,0.4131,0.4131,0.4131,0.4131,0.4131,0.4131,0.4131,0.4131,0.4131,0.4131,0.4131,0.4131,0.4131,0.4131,0.4131,0.4131,0.4131,0.4131,0.4131,0.4131,0.4131,0.4131,0.4131,0.4131,0.4131,0.4128,0.4131,0.4131,0.4128,0.4117,0.3852,0.3335,0.2558,0.1526,0.0505,0.0,0.0,0.0,0.0,0.0,0.0,0.0,0.0,0.0,0.0,0.0,0.0,0.0,0.0,0.0,0.0,0.0,0.0,0.0,0.0,0.0,0.0,0.0,0.0,0.0,0.0,0.0,0.0,0.0,0.0,0.0,0.0,0.0,0.0,0.0,1.5669,1.2851,1.0801,0.9262,0.798,0.5931,0.4645,0.4131,0.4131,0.4131,0.4131,0.4131,0.4131,0.4131,0.4131,0.4131,0.4131,0.4131,0.4131,0.4131,0.4131,0.4131,0.4131,0.4131,0.4131,0.4131,0.4131,0.4131,0.4131,0.4131,0.4131,0.4131,0.4131,0.4131,0.4131,0.4131,0.4131,0.4131,0.4131,0.4131,0.4131,0.4131,0.4131,0.4131,0.4131,0.4131,0.4131,0.4131,0.4131,0.4131,0.4131,0.4131,0.4131,0.4131,0.4131,0.4131,0.4131,0.4131,0.4131,0.4131,0.4131,0.4131,0.4131,0.4131,0.4131,0.4131,0.4131,0.4131,0.4131,0.4131,0.4131,0.4131,0.4131,0.4131,0.4131,0.4129,0.4127,0.3605,0.2826,0.1788,0.1018,0.0,0.0,0.0,0.0,0.0,0.0,0.0,0.0,0.0,0.0,0.0,0.0,0.0,0.0,0.0,0.0,0.0,0.0,0.0,0.0,0.0,0.0,0.0,0.0,0.0,0.0,0.0,0.0,0.0,0.0,0.0,0.0,0.0,0.0,1.8491,1.5929,1.5413,1.2595,0.8751,0.7983,0.6186,0.4389,0.4131,0.4131,0.4131,0.4131,0.4131,0.4131,0.4131,0.4131,0.4131,0.4131,0.4131,0.4131,0.4131,0.4131,0.4131,0.4131,0.4131,0.4131,0.4131,0.4131,0.4131,0.4131,0.4131,0.4131,0.4131,0.4131,0.4131,0.4131,0.4131,0.4131,0.4131,0.4131,0.4131,0.4131,0.4131,0.4131,0.4131,0.4131,0.4131,0.4131,0.4131,0.4131,0.4131,0.4131,0.4131,0.4131,0.4131,0.4131,0.4131,0.4131,0.4131,0.4131,0.4131,0.4131,0.4131,0.4131,0.4131,0.4131,0.4131,0.4131,0.4131,0.4131,0.4131,0.4131,0.4131,0.4131,0.4131,0.4131,0.4131,0.4131,0.335,0.3349,0.2562,0.1528,0.0,0.0,0.0,0.0,0.0,0.0,0.0,0.0,0.0,0.0,0.0,0.0,0.0,0.0,0.0,0.0,0.0,0.0,0.0,0.0,0.0,0.0,0.0,0.0,0.0,0.0,0.0,0.0,0.0,0.0,0.0,0.0,0.0,1.977,1.8491,1.6956,1.5158,1.2595,0.9519,0.7469,0.6186,0.4645,0.4131,0.4131,0.4131,0.4131,0.4131,0.4131,0.4131,0.4131,0.4131,0.4131,0.4131,0.4131,0.4131,0.4131,0.4131,0.4131,0.4131,0.4131,0.4131,0.4131,0.4131,0.4131,0.4131,0.4131,0.4131,0.4131,0.4131,0.4131,0.4131,0.4131,0.4131,0.4131,0.4131,0.4131,0.4131,0.4131,0.4131,0.4131,0.4131,0.4131,0.4131,0.4131,0.4131,0.4131,0.4131,0.4131,0.4131,0.4131,0.4131,0.4131,0.4131,0.4131,0.4131,0.4131,0.4131,0.4131,0.4131,0.4131,0.4131,0.4131,0.4131,0.4131,0.4131,0.4131,0.4131,0.4131,0.4131,0.4131,0.4131,0.3871,0.4131,0.387,0.2821,0.1785,0.0,0.0,0.0,0.0,0.0,0.0,0.0,0.0,0.0,0.0,0.0,0.0,0.0,0.0,0.0,0.0,0.0,0.0,0.0,0.0,0.0,0.0,0.0,0.0,0.0,0.0,0.0,0.0,0.0,0.0,0.0,0.0,2.0539,2.0285,1.823,1.6956,1.6185,1.1827,0.9519,0.7723,0.5156,0.4128,0.4131,0.4131,0.4131,0.4131,0.4131,0.4131,0.4131,0.4131,0.4131,0.4131,0.4131,0.4131,0.4131,0.4131,0.4131,0.4131,0.4131,0.4131,0.4131,0.4131,0.4131,0.4131,0.4131,0.4131,0.4131,0.4131,0.4131,0.4131,0.4131,0.4131,0.4131,0.4131,0.4131,0.4131,0.4131,0.4131,0.4131,0.4131,0.4131,0.4131,0.4131,0.4131,0.4131,0.4131,0.4131,0.4131,0.4131,0.4131,0.4131,0.4131,0.4131,0.4131,0.4131,0.4131,0.4131,0.4131,0.4131,0.4131,0.4131,0.4131,0.4131,0.4131,0.4131,0.4131,0.4131,0.4131,0.4131,0.4131,0.4131,0.4131,0.4131,0.4131,0.3084,0.2051,0.0,0.0,0.0,0.0,0.0,0.0,0.0,0.0,0.0,0.0,0.0,0.0,0.0,0.0,0.0,0.0,0.0,0.0,0.0,0.0,0.0,0.0,0.0,0.0,0.0,0.0,0.0,0.0,0.0,0.0,0.0,2.0539,2.0539,2.0285,1.8746,1.6445,1.6185,1.2851,0.8491,0.5403,0.4121,0.4131,0.4131,0.4131,0.4131,0.4131,0.4131,0.4131,0.4131,0.4131,0.4131,0.4131,0.4131,0.4131,0.4131,0.4131,0.4131,0.4131,0.4131,0.4131,0.4131,0.4131,0.4131,0.4131,0.4131,0.4131,0.4131,0.4131,0.4131,0.4131,0.4131,0.4131,0.4131,0.4131,0.4131,0.4131,0.4131,0.4131,0.4131,0.4131,0.4131,0.4131,0.4131,0.4131,0.4131,0.4131,0.4131,0.4131,0.4131,0.4131,0.4131,0.4131,0.4131,0.4131,0.4131,0.4131,0.4131,0.4131,0.4131,0.4131,0.4131,0.4131,0.4131,0.4131,0.4131,0.4131,0.4131,0.4131,0.4131,0.4131,0.4131,0.4131,0.4131,0.4131,0.3089,0.2312,0.0,0.0,0.0,0.0,0.0,0.0,0.0,0.0,0.0,0.0,0.0,0.0,0.0,0.0,0.0,0.0,0.0,0.0,0.0,0.0,0.0,0.0,0.0,0.0,0.0,0.0,0.0,0.0,0.0,0.0,2.0539,2.0539,2.0539,1.9776,1.8746,1.7211,1.4135,1.0285,0.617,0.412,0.4131,0.4131,0.4131,0.4131,0.4131,0.4131,0.4131,0.4131,0.4131,0.4131,0.4131,0.4131,0.4131,0.4131,0.4131,0.4131,0.4131,0.4131,0.4131,0.4131,0.4131,0.4131,0.4131,0.4131,0.4131,0.4131,0.4131,0.4131,0.4131,0.4131,0.4131,0.4131,0.4131,0.4131,0.4131,0.4131,0.4131,0.4131,0.4131,0.4131,0.4131,0.4131,0.4131,0.4131,0.4131,0.4131,0.4131,0.4131,0.4131,0.4131,0.4131,0.4131,0.4131,0.4131,0.4131,0.4131,0.4131,0.4131,0.4131,0.4131,0.4131,0.4131,0.4131,0.4131,0.4131,0.4131,0.4131,0.4131,0.4131,0.4131,0.4131,0.4131,0.4131,0.3871,0.335,0.0,0.0,0.0,0.0,0.0,0.0,0.0,0.0,0.0,0.0,0.0,0.0,0.0,0.0,0.0,0.0,0.0,0.0,0.0,0.0,0.0,0.0,0.0,0.0,0.0,0.0,0.0,0.0,0.0,0.0,2.0539,2.0539,2.0539,2.0539,2.0285,1.8491,1.5929,1.3103,0.8728,0.5401,0.4127,0.4128,0.4131,0.4131,0.4131,0.4131,0.4131,0.4131,0.4131,0.4131,0.4131,0.4131,0.4131,0.4131,0.4131,0.4131,0.4131,0.4131,0.4131,0.4131,0.4131,0.4131,0.4131,0.4131,0.4131,0.4131,0.4131,0.4131,0.4131,0.4131,0.4131,0.4131,0.4131,0.4131,0.4131,0.4131,0.4131,0.4131,0.4131,0.4131,0.4131,0.4131,0.4131,0.4131,0.4131,0.4131,0.4131,0.4131,0.4131,0.4131,0.4131,0.4131,0.4131,0.4131,0.4131,0.4131,0.4131,0.4131,0.4131,0.4131,0.4131,0.4131,0.4131,0.4131,0.4131,0.4131,0.4131,0.4131,0.4131,0.4131,0.4131,0.4131,0.4124,0.4122,0.3861,0.3593,0.3055,0.2276,0.0,0.0,0.0,0.0,0.0,0.0,0.0,0.0,0.0,0.0,0.0,0.0,0.0,0.0,0.0,0.0,0.0,0.0,0.0,0.0,0.0,0.0,0.0,0.0,0.0,0.0,0.0,2.0539,2.0539,2.0539,2.0539,2.0539,2.0539,1.8746,1.5669,1.2311,0.8466,0.4374,0.4125,0.4131,0.4131,0.4131,0.4131,0.4131,0.4131,0.4131,0.4131,0.4131,0.4131,0.4131,0.4131,0.4131,0.4131,0.4131,0.4131,0.4131,0.4131,0.4131,0.4131,0.4131,0.4131,0.4131,0.4131,0.4131,0.4131,0.4131,0.4131,0.4131,0.4131,0.4131,0.4131,0.4131,0.4131,0.4131,0.4131,0.4131,0.4131,0.4131,0.4131,0.4131,0.4131,0.4131,0.4131,0.4131,0.4131,0.4131,0.4131,0.4131,0.4131,0.4131,0.4131,0.4131,0.4131,0.4131,0.4131,0.4131,0.4131,0.4131,0.4131,0.4131,0.4129,0.4129,0.4127,0.4127,0.4121,0.4118,0.4128,0.4131,0.4129,0.4118,0.4112,0.4109,0.4094,0.4067,0.379,0.3268,0.2745,0.1977,0.1728,0.1481,0.0,0.0,0.0,0.0,0.0,0.0,0.0,0.0,0.0,0.0,0.0,0.0,0.0,0.0,0.0,0.0,0.0,0.0,0.0,0.0,0.0,0.0,2.0539,2.0539,2.0539,2.0539,2.0539,2.0539,1.9,1.5924,1.1559,0.7451,0.463,0.4125,0.4131,0.4131,0.4131,0.4131,0.4131,0.4131,0.4131,0.4131,0.4131,0.4131,0.4131,0.4131,0.4131,0.4131,0.4131,0.4131,0.4131,0.4131,0.4131,0.4131,0.4131,0.4131,0.4131,0.4131,0.4131,0.4131,0.4131,0.4131,0.4131,0.4131,0.4131,0.4131,0.4131,0.4131,0.4131,0.4131,0.4131,0.4131,0.4131,0.4131,0.4131,0.4131,0.4131,0.4131,0.4131,0.4131,0.4131,0.4131,0.4131,0.4131,0.4131,0.4131,0.4131,0.4131,0.4131,0.4131,0.4131,0.4131,0.4131,0.4131,0.4129,0.4125,0.4122,0.412,0.4116,0.4105,0.4102,0.4121,0.4131,0.4113,0.4099,0.4083,0.4078,0.4063,0.4034,0.4023,0.3505,0.3483,0.3209,0.3209,0.2962,0.2222,0.1728,0.1234,0.0,0.0,0.0,0.0,0.0,0.0,0.0,0.0,0.0,0.0,0.0,0.0,0.0,0.0,0.0,0.0,0.0,0.0,0.0,2.0539,2.0539,2.0539,2.0539,2.0539,2.0539,1.9516,1.695,1.2079,0.771,0.4627,0.4124,0.4131,0.4131,0.4131,0.4131,0.4131,0.4131,0.4131,0.4131,0.4131,0.4131,0.4131,0.4131,0.4131,0.4131,0.4131,0.4131,0.4131,0.4131,0.4131,0.4131,0.4131,0.4131,0.4131,0.4131,0.4131,0.4131,0.4131,0.4131,0.4131,0.4131,0.4131,0.4131,0.4131,0.4131,0.4131,0.4131,0.4131,0.4131,0.4131,0.4131,0.4131,0.4131,0.4131,0.4131,0.4131,0.4131,0.4131,0.4131,0.4131,0.4131,0.4131,0.4131,0.4131,0.4131,0.4131,0.4131,0.4131,0.4129,0.4129,0.4129,0.4125,0.4121,0.4107,0.4103,0.4098,0.4087,0.4075,0.4097,0.4102,0.4087,0.4073,0.4056,0.4041,0.402,0.4,0.3994,0.3989,0.3968,0.3949,0.3949,0.3703,0.3209,0.2715,0.2223,0.0,0.0,0.0,0.0,0.0,0.0,0.0,0.0,0.0,0.0,0.0,0.0,0.0,0.0,0.0,0.0,0.0,0.1178,0.0943,2.0539,2.0539,2.0539,2.0539,2.0539,2.0539,2.0285,1.977,1.4647,0.8984,0.4102,0.4122,0.4131,0.4131,0.4131,0.4131,0.4131,0.4131,0.4131,0.4131,0.4131,0.4131,0.4131,0.4131,0.4131,0.4131,0.4131,0.4131,0.4131,0.4131,0.4131,0.4131,0.4131,0.4131,0.4131,0.4131,0.4131,0.4131,0.4131,0.4131,0.4131,0.4131,0.4131,0.4131,0.4131,0.4131,0.4131,0.4131,0.4131,0.4131,0.4131,0.4131,0.4131,0.4131,0.4131,0.4131,0.4131,0.4131,0.4131,0.4131,0.4131,0.4131,0.4131,0.4131,0.4131,0.4131,0.4131,0.4131,0.4131,0.4128,0.4127,0.4124,0.4121,0.4106,0.4087,0.4082,0.4076,0.4064,0.4049,0.405,0.4054,0.4048,0.4039,0.4023,0.4013,0.3993,0.3979,0.3978,0.3973,0.3964,0.3951,0.3949,0.3949,0.3949,0.3456,0.3209,0.0,0.0,0.0,0.0,0.0,0.0,0.0,0.0,0.0,0.0,0.0,0.0,0.0,0.0,0.0,0.0,0.1897,0.2831,0.2593,2.0539,2.0539,2.0539,2.0539,2.0539,2.0539,2.0539,1.977,1.4642,0.924,0.4102,0.4121,0.4131,0.4131,0.4131,0.4131,0.4131,0.4131,0.4131,0.4131,0.4131,0.4131,0.4131,0.4131,0.4131,0.4131,0.4131,0.4131,0.4131,0.4131,0.4131,0.4131,0.4131,0.4131,0.4131,0.4131,0.4131,0.4131,0.4131,0.4131,0.4131,0.4131,0.4131,0.4131,0.4131,0.4131,0.4131,0.4131,0.4131,0.4131,0.4131,0.4131,0.4131,0.4131,0.4131,0.4131,0.4131,0.4131,0.4131,0.4131,0.4131,0.4131,0.4131,0.4131,0.4131,0.4129,0.4128,0.4125,0.4118,0.4112,0.4102,0.4098,0.4093,0.4078,0.4058,0.4046,0.4041,0.403,0.4016,0.4022,0.4024,0.4018,0.4008,0.4004,0.3992,0.397,0.3959,0.396,0.396,0.3953,0.3951,0.3949,0.3949,0.3949,0.3949,0.3456,0.2962,0.0,0.1728,0.0988,0.0,0.0,0.0,0.0,0.0,0.0,0.0,0.0,0.0,0.0,0.0,0.0,0.2861,0.3317,0.3773,2.0539,2.0539,2.0539,2.0539,2.0539,2.0539,2.0539,1.9516,1.4642,0.924,0.436,0.4122,0.4131,0.4131,0.4131,0.4131,0.4131,0.4131,0.4131,0.4131,0.4131,0.4131,0.4131,0.4131,0.4131,0.4131,0.4131,0.4131,0.4131,0.4131,0.4131,0.4131,0.4131,0.4131,0.4131,0.4131,0.4131,0.4131,0.4131,0.4131,0.4131,0.4131,0.4131,0.4131,0.4131,0.4131,0.4131,0.4131,0.4131,0.4131,0.4131,0.4131,0.4131,0.4131,0.4131,0.4131,0.4131,0.4131,0.4131,0.4131,0.4131,0.4131,0.4131,0.4131,0.4124,0.4118,0.4113,0.4107,0.4098,0.4087,0.4076,0.4065,0.4054,0.4043,0.4026,0.4008,0.3998,0.3992,0.3993,0.3998,0.3996,0.399,0.3983,0.3981,0.3975,0.396,0.3953,0.3953,0.3953,0.3952,0.3951,0.3949,0.3949,0.3949,0.3949,0.3949,0.3456,0.3209,0.2962,0.2222,0.1481,0.0,0.0,0.0,0.0,0.0,0.0,0.0,0.0,0.0,0.0486,0.1929,0.287,0.3322,0.3545,2.0539,2.0539,2.0539,2.0539,2.0539,2.0539,2.0539,1.977,1.4642,0.924,0.4874,0.4122,0.4131,0.4131,0.4131,0.4131,0.4131,0.4131,0.4131,0.4131,0.4131,0.4131,0.4131,0.4131,0.4131,0.4131,0.4131,0.4131,0.4131,0.4131,0.4131,0.4131,0.4131,0.4647,0.5935,0.4389,0.4389,0.5159,0.4645,0.4131,0.4131,0.4131,0.4131,0.4131,0.4131,0.4131,0.4131,0.4131,0.4131,0.4131,0.4131,0.4131,0.4131,0.4131,0.4131,0.4131,0.4131,0.4131,0.4131,0.4131,0.4131,0.4131,0.4131,0.4131,0.4124,0.4107,0.4099,0.4091,0.4082,0.4058,0.4043,0.4037,0.4027,0.4013,0.3996,0.3985,0.3979,0.3973,0.397,0.3974,0.3973,0.3967,0.3966,0.3963,0.3964,0.3952,0.3949,0.3949,0.3949,0.3949,0.3949,0.3949,0.3949,0.3949,0.3949,0.3949,0.3949,0.3703,0.3703,0.3703,0.2715,0.2222,0.0,0.0,0.0,0.0,0.0,0.0,0.0,0.0,0.0977,0.242,0.3119,0.3331,0.3548,2.0539,2.0539,2.0539,2.0539,2.0539,2.0539,2.0539,2.0024,1.4642,0.924,0.4874,0.412,0.4131,0.4131,0.4131,0.4131,0.4131,0.4131,0.4131,0.4131,0.4131,0.4131,0.4389,0.4905,0.4389,0.4131,0.4131,0.4131,0.4131,0.4131,0.4131,0.4131,0.4129,0.5415,0.9026,0.7221,0.645,0.7214,0.5931,0.4902,0.4644,0.4387,0.4131,0.4131,0.4131,0.4131,0.4131,0.4131,0.4131,0.4131,0.4131,0.4131,0.4131,0.4131,0.4131,0.4131,0.4131,0.4131,0.4131,0.4131,0.4131,0.4131,0.4131,0.4131,0.4121,0.4099,0.4083,0.4075,0.4057,0.403,0.4012,0.4007,0.4,0.3983,0.397,0.3966,0.3963,0.3956,0.3951,0.3949,0.3949,0.3949,0.3949,0.3949,0.3949,0.3949,0.3949,0.3949,0.3949,0.3949,0.3949,0.3949,0.3949,0.3949,0.3949,0.3949,0.3949,0.3949,0.3949,0.3949,0.3949,0.3456,0.2715,0.2221,0.0,0.1728,0.1975,0.0,0.0,0.1478,0.1468,0.2666,0.3366,0.3577,0.3791,2.0539,2.0539,2.0539,2.0539,2.0539,2.0539,2.0539,1.977,1.5423,1.0012,0.4616,0.412,0.4131,0.4131,0.4131,0.4131,0.4131,0.4131,0.4131,0.4131,0.4131,0.4131,0.4647,0.5937,0.5421,0.5163,0.4389,0.4131,0.4387,0.5415,0.5929,0.4639,0.4636,0.6949,1.1586,1.0826,1.0309,1.0035,0.824,0.7211,0.6184,0.5158,0.4387,0.4131,0.4131,0.4131,0.4131,0.4131,0.4131,0.4131,0.4131,0.4131,0.4131,0.4131,0.4131,0.4131,0.4131,0.4131,0.4131,0.4131,0.4131,0.4131,0.4131,0.4131,0.4121,0.4098,0.4064,0.405,0.4009,0.3982,0.3979,0.3974,0.3973,0.3962,0.3958,0.3956,0.3955,0.3952,0.3949,0.3949,0.3949,0.3949,0.3949,0.3949,0.3949,0.3949,0.3949,0.3949,0.3949,0.3949,0.3949,0.3949,0.3949,0.3949,0.3949,0.3949,0.3949,0.3949,0.3949,0.3949,0.3949,0.3949,0.3703,0.3209,0.2961,0.2962,0.3456,0.3703,0.3703,0.2713,0.2692,0.3153,0.3611,0.3824,0.3798,2.0539,2.0539,2.0539,2.0539,2.0539,2.0539,2.0539,1.9776,1.6462,1.0787,0.4616,0.4122,0.4129,0.4131,0.4131,0.4131,0.4131,0.4131,0.4131,0.4131,0.4131,0.4131,0.5679,0.7739,0.619,0.5417,0.4902,0.5158,0.5671,0.7211,0.7718,0.5654,0.6162,0.7951,1.3112,1.65,1.7547,1.3637,1.1567,1.1051,0.9002,0.6697,0.5673,0.4903,0.4389,0.4131,0.4131,0.4131,0.4131,0.4131,0.4131,0.4131,0.4131,0.4131,0.4131,0.4131,0.4131,0.4131,0.4131,0.4131,0.4131,0.4131,0.4131,0.4125,0.4116,0.4087,0.4053,0.4018,0.3977,0.3956,0.3953,0.3952,0.3951,0.3951,0.3949,0.3949,0.3949,0.3949,0.3949,0.3949,0.3949,0.3949,0.3949,0.3949,0.3949,0.3949,0.3949,0.3949,0.3949,0.3949,0.3949,0.3949,0.3949,0.3949,0.3949,0.3949,0.3949,0.3949,0.3949,0.3949,0.3949,0.3949,0.3949,0.3949,0.3703,0.3456,0.3703,0.3949,0.3703,0.3456,0.343,0.3401,0.3618,0.3832,0.3805,2.0539,2.0539,2.0539,2.0539,2.0539,2.0539,2.0539,2.0031,1.6723,1.1047,0.539,0.412,0.4131,0.4131,0.4131,0.4131,0.4131,0.4131,0.4131,0.4131,0.4131,0.4131,0.4903,0.7218,0.5412,0.5666,0.6692,0.7718,0.8491,1.0288,1.1311,1.0275,1.0535,1.3359,1.7768,1.9874,1.8832,1.5945,1.4131,1.2847,1.1823,0.9775,0.8497,0.7216,0.5675,0.4645,0.4131,0.4131,0.4131,0.4131,0.4131,0.4131,0.4131,0.4131,0.4131,0.4131,0.4131,0.4131,0.4131,0.4131,0.4131,0.4131,0.4128,0.4118,0.4099,0.4069,0.4037,0.4007,0.3973,0.3955,0.3951,0.3951,0.3949,0.3949,0.3949,0.3949,0.3949,0.3949,0.3949,0.3949,0.3949,0.3949,0.3949,0.3949,0.3949,0.3949,0.3949,0.3949,0.3949,0.3949,0.3949,0.3949,0.3949,0.3949,0.3949,0.3949,0.3949,0.3949,0.3949,0.3949,0.3949,0.3949,0.3949,0.3949,0.3949,0.3703,0.3949,0.3949,0.3949,0.3699,0.3922,0.3895,0.3868,0.384,0.3814]}]]